[[{"header":{"parameterUnit":"m.s-1","parameterCategory":1,"la1":30.6,"la2":29.2853,"lo1":-89.7004,"lo2":-87.6739,"dx":0.0162,"dy":0.0183,"nx":112,"ny":82,"refTime":"2023-01-01T18:00:00:Z","depth":0,"parameterNumber":2,"parameterNumberName":"U-component_of_WINDS"},"data":[0.0,0.0,0.0,0.0,0.0,0.0,0.0,0.0,0.0,0.0,0.0,0.0,0.0,0.0,0.0,0.0,0.0,0.0,0.0,0.0,0.0,0.0,0.0,0.0,0.0,0.0,0.0,0.0,0.0,0.0,0.0,0.0,0.0,0.0,0.0,0.0,0.0,0.0,0.0,0.0,0.0,0.0,0.0,0.0,0.0,0.0,0.0,0.0,0.0,0.0,0.0,0.0,0.0,0.0,0.0,0.0,0.0,0.0,0.0,0.0,0.0,0.0,0.0,0.0,0.0,0.0,0.0,0.0,0.0,0.0,0.0,0.0,0.0,0.0,0.0,0.0,0.0,0.0,0.0,0.0,0.0,0.0,0.0,0.0,0.0,0.0,0.0,0.0,0.0,0.0,1.6672,2.0794,2.3427,2.4682,2.4054,2.4079,2.1945,1.6848,0.0,0.0,0.0,0.0,0.0,0.0,0.0,0.0,0.0,0.0,0.0,0.0,0.0,0.0,0.0,0.0,0.0,0.0,0.0,0.0,0.0,0.0,0.0,0.0,0.0,0.0,0.0,0.0,0.0,0.0,0.0,0.0,0.0,0.0,0.0,0.0,0.0,0.0,0.0,0.0,0.0,0.0,0.0,0.0,0.0,0.0,0.0,0.0,0.0,0.0,0.0,0.0,0.0,0.0,0.0,0.0,0.0,0.0,0.0,0.0,0.0,0.0,0.0,0.0,0.0,0.0,0.0,0.0,0.0,0.0,0.0,0.0,0.0,0.0,0.0,0.0,0.0,0.0,0.0,0.0,0.0,0.0,0.0,0.0,0.0,0.0,0.0,0.0,0.0,0.0,0.0,0.0,0.0,0.0,0.0,0.0,0.0,0.0,0.0,0.0,0.0,0.0,0.0,0.0,1.8129,2.2975,2.4682,2.5084,2.4079,2.4431,2.2347,1.6873,0.0,0.0,0.0,0.0,0.0,0.0,0.0,0.0,0.0,0.0,0.0,0.0,0.0,0.0,0.0,0.0,0.0,0.0,0.0,0.0,0.0,0.0,0.0,0.0,0.0,0.0,0.0,0.0,0.0,0.0,0.0,0.0,0.0,0.0,0.0,0.0,0.0,0.0,0.0,0.0,0.0,0.0,0.0,0.0,0.0,0.0,0.0,0.0,0.0,0.0,0.0,0.0,0.0,0.0,0.0,0.0,0.0,0.0,0.0,0.0,0.0,0.0,0.0,0.0,0.0,0.0,0.0,0.0,0.0,0.0,0.0,0.0,0.0,0.0,0.0,0.0,0.0,0.0,0.0,0.0,0.0,0.0,0.0,0.0,0.0,0.0,0.0,0.0,0.0,0.0,0.0,0.0,0.0,0.0,0.0,0.0,0.0,0.0,0.0,0.0,0.0,0.0,0.0,1.8656,2.2221,2.423,2.541,2.5511,2.413,2.4506,2.2447,1.6873,1.6522,0.0,0.0,0.0,0.0,0.0,0.0,0.0,0.0,0.0,0.0,0.0,0.0,0.0,0.0,0.0,0.0,0.0,0.0,0.0,0.0,0.0,0.0,0.0,0.0,0.0,0.0,0.0,0.0,0.0,0.0,0.0,0.0,0.0,0.0,0.0,0.0,0.0,0.0,0.0,0.0,0.0,0.0,0.0,0.0,0.0,0.0,0.0,0.0,0.0,0.0,0.0,0.0,0.0,0.0,0.0,0.0,0.0,0.0,0.0,0.0,0.0,0.0,0.0,0.0,0.0,0.0,0.0,0.0,0.0,0.0,0.0,0.0,0.0,0.0,0.0,0.0,0.0,0.0,0.0,0.0,0.0,0.0,0.0,0.0,0.0,0.0,0.0,0.0,0.0,0.0,0.0,0.0,0.0,0.0,0.0,0.0,0.0,0.0,0.0,0.0,0.0,0.0,2.1644,2.4782,2.4632,2.5737,2.5787,2.413,2.4506,2.2447,1.6873,1.6522,0.0,0.0,0.0,0.0,0.0,0.0,0.0,0.0,0.0,0.0,0.0,0.0,0.0,0.0,0.0,0.0,0.0,0.0,0.0,0.0,0.0,0.0,0.0,0.0,0.0,0.0,0.0,0.0,0.0,0.0,0.0,0.0,0.0,0.0,0.0,0.0,0.0,0.0,0.0,0.0,0.0,0.0,0.0,0.0,0.0,0.0,0.0,0.0,0.0,0.0,0.0,0.0,0.0,0.0,0.0,0.0,0.0,0.0,0.0,0.0,0.0,0.0,0.0,0.0,0.0,0.0,0.0,0.0,0.0,0.0,0.0,0.0,0.0,0.0,0.0,0.0,0.0,0.0,0.0,0.0,0.0,0.0,0.0,0.0,0.0,0.0,0.0,0.0,0.0,0.0,0.0,0.0,0.0,0.0,0.0,0.0,0.0,0.0,0.0,0.0,0.0,0.0,2.0062,2.2924,2.3954,2.5511,2.5787,2.413,2.4506,2.2447,1.6873,1.6522,0.0,0.0,0.0,0.0,0.0,0.0,0.0,0.0,0.0,0.0,0.0,0.0,0.0,0.0,0.0,0.0,0.0,0.0,0.0,0.0,0.0,0.0,0.0,0.0,0.0,0.0,0.0,0.0,0.0,0.0,0.0,0.0,0.0,0.0,0.0,0.0,0.0,0.0,0.0,0.0,0.0,0.0,0.0,0.0,0.0,0.0,0.0,0.0,0.0,0.0,0.0,0.0,0.0,0.0,0.0,0.0,0.0,0.0,0.0,0.0,0.0,0.0,0.0,0.0,0.0,0.0,0.0,0.0,0.0,0.0,0.0,0.0,0.0,0.0,0.0,0.0,0.0,0.0,0.0,0.0,0.0,0.0,0.0,0.0,0.0,0.0,0.0,0.0,0.0,0.0,0.0,0.0,0.0,0.0,0.0,0.0,0.0,0.0,0.0,0.0,0.0,0.0,2.1644,2.4808,2.4531,2.5686,2.5937,2.4632,2.5008,2.31,1.7903,0.0,0.0,0.0,0.0,0.0,0.0,0.0,0.0,0.0,0.0,0.0,0.0,0.0,0.0,0.0,0.0,0.0,0.0,0.0,0.0,0.0,0.0,0.0,0.0,0.0,0.0,0.0,0.0,0.0,0.0,0.0,0.0,0.0,0.0,0.0,0.0,0.0,0.0,0.0,0.0,0.0,0.0,0.0,0.0,0.0,0.0,0.0,0.0,0.0,0.0,0.0,0.0,0.0,0.0,0.0,0.0,0.0,0.0,0.0,0.0,0.0,0.0,0.0,0.0,0.0,0.0,0.0,0.0,0.0,0.0,0.0,0.0,0.0,0.0,0.0,0.0,0.0,0.0,0.0,0.0,0.0,0.0,0.0,0.0,0.0,0.0,0.0,0.0,0.0,0.0,0.0,0.0,0.0,0.0,0.0,0.0,0.0,0.0,0.0,0.0,0.0,0.0,1.7702,2.2799,2.6163,2.5435,2.6013,2.6088,2.5159,2.5385,2.3477,1.8505,0.0,0.0,0.0,0.0,0.0,0.0,0.0,0.0,0.0,0.0,0.0,0.0,0.0,0.0,0.0,0.0,0.0,0.0,0.0,0.0,0.0,0.0,0.0,0.0,0.0,0.0,0.0,0.0,0.0,0.0,0.0,0.0,0.0,0.0,0.0,0.0,0.0,0.0,0.0,0.0,0.0,0.0,0.0,0.0,0.0,0.0,0.0,0.0,0.0,0.0,0.0,0.0,0.0,0.0,0.0,0.0,0.0,0.0,0.0,0.0,0.0,0.0,0.0,0.0,0.0,0.0,0.0,0.0,0.0,0.0,0.0,0.0,0.0,0.0,0.0,0.0,0.0,0.0,0.0,0.0,0.0,0.0,0.0,0.0,0.0,0.0,0.0,0.0,0.0,0.0,0.0,0.0,0.0,0.0,0.0,0.0,0.0,0.0,0.0,0.0,0.0,0.0,1.8229,2.305,2.6533,2.6559,2.6533,2.6239,2.5661,2.5611,2.3502,0.0,0.0,0.0,0.0,0.0,0.0,0.0,0.0,0.0,0.0,0.0,0.0,0.0,0.0,0.0,0.0,0.0,0.0,0.0,0.0,0.0,0.0,0.0,0.0,0.0,0.0,0.0,0.0,0.0,0.0,0.0,0.0,0.0,0.0,0.0,0.0,0.0,0.0,0.0,0.0,0.0,0.0,0.0,0.0,0.0,0.0,0.0,0.0,0.0,0.0,0.0,0.0,0.0,0.0,0.0,0.0,0.0,0.0,0.0,0.0,0.0,0.0,0.0,0.0,0.0,0.0,0.0,0.0,0.0,0.0,0.0,0.0,0.0,0.0,0.0,0.0,0.0,0.0,0.0,0.0,0.0,0.0,0.0,0.0,0.0,0.0,0.0,0.0,0.0,0.0,0.0,0.0,0.0,0.0,0.0,0.0,0.0,0.0,0.0,0.0,0.0,0.0,0.0,1.9284,2.3853,2.7193,2.757,2.6917,2.654,2.6766,2.6791,2.4833,2.0238,0.0,0.0,0.0,0.0,0.0,0.0,0.0,0.0,0.0,0.0,0.0,0.0,0.0,0.0,0.0,0.0,0.0,0.0,0.0,0.0,0.0,0.0,0.0,0.0,0.0,0.0,0.0,0.0,0.0,0.0,0.0,0.0,0.0,0.0,0.0,0.0,0.0,0.0,0.0,0.0,0.0,0.0,0.0,0.0,0.0,0.0,0.0,0.0,0.0,0.0,0.0,0.0,0.0,0.0,0.0,0.0,0.0,0.0,0.0,0.0,0.0,0.0,0.0,0.0,0.0,0.0,0.0,0.0,0.0,0.0,0.0,0.0,0.0,0.0,0.0,0.0,0.0,0.0,0.0,0.0,0.0,0.0,0.0,0.0,0.0,0.0,0.0,0.0,0.0,0.0,0.0,0.0,0.0,0.0,0.0,0.0,0.0,0.0,0.0,0.0,0.0,0.0,2.0087,2.4506,2.7821,2.8373,2.7444,2.6917,2.7243,2.7494,2.5912,2.1895,0.0,0.0,0.0,0.0,0.0,0.0,0.0,0.0,0.0,0.0,0.0,0.0,0.0,0.0,0.0,0.0,0.0,0.0,0.0,0.0,0.0,0.0,0.0,0.0,0.0,0.0,0.0,0.0,0.0,0.0,0.0,0.0,0.0,0.0,0.0,0.0,0.0,0.0,0.0,0.0,0.0,0.0,0.0,0.0,0.0,0.0,0.0,0.0,0.0,0.0,0.0,0.0,0.0,0.0,0.0,0.0,0.0,0.0,0.0,0.0,0.0,0.0,0.0,0.0,0.0,0.0,0.0,0.0,0.0,0.0,0.0,0.0,0.0,0.0,0.0,0.0,0.0,0.0,0.0,0.0,0.0,0.0,0.0,0.0,0.0,0.0,0.0,0.0,0.0,0.0,0.0,0.0,0.0,0.0,0.0,0.0,0.0,0.0,0.0,0.0,0.0,0.0,2.0794,2.5134,2.8398,2.895,2.8021,2.7344,2.7344,2.7871,2.6791,2.3502,0.0,0.0,0.0,0.0,0.0,0.0,0.0,0.0,0.0,0.0,0.0,0.0,0.0,0.0,0.0,0.0,0.0,0.0,0.0,0.0,0.0,0.0,0.0,0.0,0.0,0.0,0.0,0.0,0.0,0.0,0.0,0.0,0.0,0.0,0.0,0.0,0.0,0.0,0.0,0.0,0.0,0.0,0.0,0.0,0.0,0.0,0.0,0.0,0.0,0.0,0.0,0.0,0.0,0.0,0.0,0.0,0.0,0.0,0.0,0.0,1.7072,1.3311,0.0,0.0,0.0,0.0,0.0,0.0,0.0,0.0,0.0,0.0,0.0,0.0,0.0,0.0,0.0,0.0,0.0,0.0,0.0,0.0,0.0,0.0,0.0,0.0,0.0,0.0,0.0,0.0,0.0,0.0,0.0,0.0,0.0,0.0,0.0,0.0,0.0,0.0,0.0,0.0,2.182,2.5937,2.8976,2.9553,2.8599,2.7921,2.7921,2.8423,2.7519,2.4632,2.4406,0.0,0.0,0.0,0.0,0.0,0.0,0.0,0.0,0.0,0.0,0.0,0.0,0.0,0.0,0.0,0.0,0.0,0.0,0.0,0.0,0.0,0.0,0.0,0.0,0.0,0.0,0.0,0.0,0.0,0.0,0.0,0.0,0.0,0.0,0.0,0.0,0.0,0.0,0.0,0.0,0.0,0.0,0.0,0.0,0.0,0.0,0.0,0.0,0.0,0.0,0.0,0.0,0.0,0.0,0.0,0.0,0.0,0.0,0.0,1.8766,1.6716,0.0,0.0,0.0,0.0,0.0,0.0,0.0,0.0,0.0,0.0,0.0,0.0,0.0,0.0,0.0,0.0,0.0,0.0,0.0,0.0,0.0,0.0,0.0,0.0,0.0,0.0,0.0,0.0,0.0,0.0,0.0,0.0,0.0,0.0,0.0,0.0,0.0,0.0,0.0,0.0,2.2196,2.6189,2.9051,2.9352,2.885,2.8499,2.8499,2.9026,2.8499,2.6515,2.5887,0.0,0.0,0.0,0.0,0.0,0.0,0.0,0.0,0.0,0.0,0.0,0.0,0.0,0.0,0.0,0.0,0.0,0.0,0.0,0.0,0.0,0.0,0.0,0.0,0.0,0.0,0.0,0.0,0.0,0.0,0.0,0.0,0.0,0.0,0.0,0.0,0.0,0.0,0.0,0.0,0.0,0.0,0.0,0.0,0.0,0.0,0.0,0.0,0.0,0.0,0.0,0.0,0.0,1.9238,1.9601,2.0016,2.0435,2.0872,2.1267,2.0442,2.0668,2.1467,1.866,0.0,0.0,0.0,0.0,0.0,0.0,0.0,0.0,0.0,0.0,0.0,0.0,0.0,0.0,0.0,0.0,0.0,0.0,0.0,0.0,0.0,0.0,1.9359,2.0891,2.1242,2.1142,2.0715,0.0,0.0,0.0,0.0,0.0,0.0,0.0,0.0,0.0,0.0,0.0,2.2523,2.6389,2.9126,2.9227,2.9227,2.9176,2.9076,2.9679,2.9603,2.8473,2.7193,2.5862,0.0,0.0,0.0,0.0,0.0,0.0,0.0,0.0,0.0,0.0,0.0,0.0,0.0,0.0,0.0,0.0,0.0,0.0,0.0,0.0,0.0,0.0,0.0,0.0,0.0,0.0,0.0,0.0,0.0,0.0,0.0,0.0,1.194,1.4595,0.0,0.0,0.0,0.0,0.0,0.0,0.0,0.0,0.0,0.0,0.0,0.0,0.0,1.7549,1.7183,1.9749,2.089,2.0483,2.2383,2.3542,2.4002,2.3654,2.3729,2.4204,2.3069,0.0,2.1284,2.146,0.0,0.0,0.0,0.0,0.0,0.0,0.0,0.0,0.0,0.0,0.0,0.0,0.0,0.0,0.0,0.0,0.0,0.0,0.0,0.0,0.0,0.0,2.5561,2.6741,2.5234,2.418,2.6414,2.1769,1.7727,1.9686,1.8405,1.6798,0.0,0.0,0.0,0.0,0.0,0.0,2.3703,2.7218,2.9854,3.0331,3.0407,3.0206,2.9729,3.0608,3.0708,2.9628,2.9804,2.88,2.6307,2.6666,0.0,0.0,0.0,0.0,0.0,0.0,0.0,0.0,0.0,0.0,0.0,0.0,0.0,0.0,0.0,0.0,0.0,0.0,0.0,0.0,0.0,0.0,0.0,0.0,0.0,0.0,0.0,0.0,0.0,1.211,1.3156,1.5177,1.4203,1.2934,0.0,0.0,0.0,0.0,0.0,0.0,0.0,0.0,0.0,1.7733,1.9277,2.0284,2.0629,2.2457,2.3389,2.3513,2.4756,2.5511,2.5737,2.5485,2.5511,2.5711,2.5209,2.4663,2.4082,2.3155,2.2645,2.2258,0.0,0.0,0.0,0.0,1.7134,1.8115,1.8115,1.9656,2.1594,2.1041,0.0,0.0,0.0,0.0,0.0,0.0,0.0,2.1594,2.3627,2.531,2.6892,2.8649,2.8122,2.7595,2.88,2.5837,2.2949,2.3,2.1468,1.9685,1.8179,1.9359,0.0,0.0,0.0,2.5109,2.536,2.7971,2.988,3.0131,3.0683,3.1085,3.1135,3.1587,3.1662,3.1185,3.0809,3.0055,2.885,2.8725,2.6766,0.0,0.0,0.0,0.0,0.0,0.0,0.0,0.0,0.0,0.0,0.0,0.0,0.0,0.0,0.0,0.0,0.0,0.0,0.0,0.0,0.0,0.0,0.0,0.0,0.0,0.0,0.0,0.0,1.4417,1.5313,1.6996,1.655,1.5519,0.0,0.0,0.0,0.0,0.0,0.0,1.739,1.8231,1.9163,2.0111,2.1644,2.2825,2.3578,2.4678,2.5303,2.5475,2.602,2.6239,2.6239,2.6088,2.6038,2.6038,2.6189,2.6239,2.6138,2.4757,2.4456,2.4732,2.3602,2.2648,2.182,2.0966,2.1016,2.1493,2.1493,2.2975,2.4732,2.418,2.418,2.4255,2.3401,0.0,0.0,0.0,0.0,2.3226,2.5285,2.6465,2.7544,2.9352,2.9804,2.9829,2.998,2.8674,2.7218,2.6264,2.4732,2.3025,2.1242,2.2397,0.0,2.1719,2.4582,2.6841,2.6691,2.875,3.0256,3.0407,3.126,3.2039,3.2591,3.2767,3.2742,3.2466,3.1687,3.1185,3.1035,3.0357,2.8825,2.6339,0.0,0.0,0.0,0.0,0.0,0.0,0.0,0.0,0.0,0.0,0.0,0.0,0.0,0.0,0.0,0.0,0.0,0.0,0.0,0.0,0.0,0.0,0.0,0.0,0.0,0.0,0.0,0.0,0.0,2.15,2.1509,0.0,0.0,0.0,0.0,1.7427,1.8215,1.9492,2.1032,2.1668,2.2712,2.4453,2.5069,2.5216,2.492,2.5926,2.5951,2.504,2.5456,2.5636,2.5611,2.5134,2.4908,2.4933,2.5435,2.5636,2.5711,2.6666,2.7092,2.7017,2.5862,2.5385,2.5159,2.3552,2.4305,2.6181,2.6181,2.7595,2.9352,2.8775,2.7193,2.5209,2.3627,2.3452,0.0,0.0,2.5008,2.6307,2.6458,2.7595,2.8976,2.9628,2.9804,2.993,3.0457,2.9252,2.8348,2.9352,2.8197,2.6841,2.6257,0.0,2.6314,2.4155,2.6214,2.7846,2.7318,2.9628,3.1512,3.2039,3.2641,3.3219,3.3771,3.4299,3.4148,3.3093,3.2993,3.2717,3.2164,3.1135,3.0507,3.0331,2.772,0.0,0.0,0.0,0.0,0.0,0.0,0.0,0.0,0.0,0.0,0.0,0.0,0.0,0.0,0.0,0.0,0.0,0.0,0.0,0.0,0.0,0.0,0.0,0.0,0.0,0.0,0.0,0.0,2.1176,2.1744,0.0,2.0951,2.0824,2.0594,2.0029,2.1082,2.1997,2.2631,2.3466,2.427,2.4929,2.5351,2.5553,2.5413,2.5752,2.5952,2.5955,2.6452,2.6866,2.7193,2.7017,2.6942,2.6942,2.7143,2.7218,2.7268,2.8021,2.772,2.6716,2.6314,2.6138,2.6163,2.6289,2.6841,2.762,2.8348,2.9126,2.9804,2.9955,2.9478,2.8775,2.8524,2.8348,2.8247,2.8247,2.8674,2.9126,2.9126,2.9829,3.0658,3.121,3.1361,3.1411,3.1612,3.116,3.0758,3.0809,2.9478,2.8273,2.8072,2.9101,2.9302,2.7444,2.8925,3.0156,2.9955,3.1085,3.2139,3.2717,3.3596,3.4349,3.4901,3.5127,3.5077,3.47,3.3997,3.3345,3.2792,3.239,3.1863,3.1135,3.0482,2.8122,0.0,0.0,0.0,0.0,0.0,0.0,0.0,0.0,0.0,0.0,0.0,0.0,0.0,0.0,0.0,0.0,0.0,0.0,0.0,0.0,0.0,0.0,0.0,0.0,0.0,1.8718,2.1067,2.192,2.2941,2.3361,2.2585,2.2879,2.2969,2.2654,2.3706,2.428,2.4111,2.4764,2.5317,2.5511,2.5723,2.6063,2.644,2.644,2.664,2.7017,2.7394,2.7745,2.8097,2.8097,2.7996,2.7846,2.8021,2.7996,2.7871,2.8423,2.7996,2.7042,2.7444,2.7595,2.767,2.8398,2.88,2.9076,3.0005,3.0331,3.0382,3.0758,3.0884,3.0934,3.1286,3.116,3.0884,3.0884,3.0884,3.0884,3.0884,3.126,3.1813,3.2365,3.2641,3.2842,3.3018,3.2767,3.2516,3.2516,3.1009,2.9654,2.9277,3.0131,3.0357,2.8875,2.9729,3.0482,3.0306,3.1411,3.2365,3.2742,3.4123,3.5228,3.578,3.5303,3.5152,3.5529,3.4324,3.3621,3.3621,3.2918,3.2164,3.1411,3.0834,2.8925,2.5636,0.0,0.0,0.0,0.0,0.0,0.0,0.0,0.0,0.0,0.0,0.0,0.0,0.0,0.0,0.0,0.0,0.0,0.0,0.0,0.0,0.0,0.0,0.0,1.6865,2.0945,2.4016,2.3976,2.545,2.6293,2.5925,2.6226,2.607,2.5063,2.5931,2.6189,2.5661,2.5611,2.5887,2.6533,2.6559,2.6992,2.8072,2.8097,2.8122,2.8122,2.8122,2.8147,2.8147,2.8147,2.7871,2.7394,2.7921,2.7871,2.7419,2.7971,2.8197,2.8323,2.9352,2.9754,2.9779,2.9804,3.0181,3.0758,3.1235,3.1411,3.1436,3.1436,3.1461,3.1461,3.1461,3.1486,3.1486,3.1486,3.1486,3.1486,3.1486,3.1888,3.2441,3.2993,3.3545,3.4073,3.46,3.3872,3.3445,3.4525,3.2968,3.116,3.0131,2.9955,2.9578,2.8499,2.8775,0.0,2.8398,3.0658,3.234,3.2365,3.4248,3.5755,3.6358,3.4876,3.4374,3.5504,3.4073,3.3646,3.47,3.2667,3.1512,3.1486,2.88,2.8473,3.0633,0.0,0.0,0.0,0.0,0.0,0.0,0.0,0.0,0.0,0.0,0.0,0.0,0.0,0.0,0.0,0.0,0.0,0.0,0.0,0.0,0.0,1.9673,2.1609,2.1332,2.285,2.4568,2.6183,2.6446,2.6596,2.6838,2.6252,2.577,2.5475,2.5702,2.5963,2.6214,2.6214,2.649,2.7042,2.7067,2.7193,2.7494,2.7921,2.8298,2.8699,2.8699,2.8925,2.9327,2.9327,2.9252,2.9101,2.9252,2.9478,2.9704,2.9854,3.0382,3.0909,2.9227,2.8825,2.9277,3.008,3.1235,3.2315,3.1637,3.1938,3.2616,3.2616,3.2893,3.3219,3.3219,3.3495,3.3796,3.3796,3.3796,3.3796,3.3796,3.3922,3.4073,3.4223,3.4374,3.455,3.47,3.4474,3.4349,3.4675,3.4223,3.3721,3.342,3.337,3.3395,3.3495,3.3294,3.3219,3.347,3.4173,3.4926,3.573,3.4926,3.5228,3.7362,3.5303,3.455,3.6031,3.5705,3.5429,3.5328,3.4726,3.4223,3.3822,3.1461,3.0557,0.0,0.0,0.0,0.0,0.0,0.0,0.0,0.0,0.0,0.0,0.0,0.0,0.0,0.0,0.0,0.0,0.0,0.0,0.0,0.0,0.0,0.0,2.1798,2.4054,2.4723,2.5162,2.5937,2.7444,2.7344,2.7193,2.7268,2.6691,2.6314,2.6314,2.6314,2.654,2.7118,2.7143,2.7293,2.762,2.7846,2.7971,2.7971,2.8524,2.8976,2.9302,2.9528,2.993,3.0457,3.0457,3.0583,3.0809,3.0809,3.0984,3.1311,3.1537,3.2014,3.239,0.0,0.0,0.0,0.0,3.2591,3.337,3.2943,3.3219,3.3771,3.3771,3.3972,3.4248,3.4248,3.4148,3.4022,3.4022,3.3696,3.3445,3.3922,3.4022,3.4198,3.4901,3.5077,3.5127,3.5353,3.5052,3.4851,3.5328,3.5052,0.0,3.5629,3.4801,3.4073,3.4148,3.3872,3.3872,3.4449,3.5127,3.5705,3.6107,3.5629,3.583,3.7186,3.5228,0.0,0.0,0.0,3.5203,3.4876,3.4851,0.0,0.0,0.0,3.1512,3.2441,3.0934,0.0,0.0,2.7092,2.5988,0.0,0.0,0.0,0.0,0.0,0.0,0.0,0.0,0.0,0.0,0.0,0.0,0.0,0.0,0.0,0.0,2.3678,2.5661,2.7243,2.7469,2.7645,2.8147,2.8147,2.7946,2.7519,2.7419,2.7369,2.7369,2.7369,2.762,2.8172,2.8147,0.0,0.0,0.0,2.8976,2.9126,2.9679,3.003,3.0181,3.0658,3.1135,3.1587,3.1587,3.1838,3.2315,3.2315,3.234,3.2441,3.2968,3.3244,3.3294,3.2667,3.2717,3.3219,3.3646,3.3897,3.4048,3.4399,0.0,0.0,3.4726,3.4776,3.4826,3.4826,3.4173,3.3445,3.3445,3.2717,3.219,3.3194,3.3445,3.3822,3.5278,3.5629,3.578,3.6257,3.5604,3.5203,3.6182,3.5629,3.5454,3.6935,3.5152,3.3395,3.3018,3.2918,3.3068,3.3646,3.4951,3.568,3.5328,3.6307,0.0,3.6759,3.5102,3.4801,3.6433,3.5228,3.4449,3.4449,3.4525,3.3847,3.2365,3.1863,3.2591,3.455,3.4073,3.4826,3.6609,3.1436,3.0357,0.0,0.0,0.0,0.0,0.0,0.0,0.0,0.0,0.0,0.0,0.0,0.0,0.0,0.0,0.0,2.4054,2.5661,2.7218,2.8448,2.8599,2.8649,2.875,2.8373,2.8247,2.8574,2.8197,2.7946,2.7946,2.7946,2.8197,2.875,2.8348,2.8323,2.875,2.8875,2.9377,3.0281,3.0809,3.1537,3.2441,3.2541,0.0,3.2742,3.2742,3.2817,3.2918,3.2918,3.3169,3.3571,3.3696,3.4274,3.4977,3.3972,3.3646,3.3696,3.337,3.3796,3.4449,3.3671,3.3972,3.4726,3.4726,3.5027,3.5378,3.5378,3.5554,0.0,3.573,3.5579,3.5454,3.568,3.573,3.5805,3.6132,3.6207,3.6232,3.6332,3.6207,3.6107,3.6307,3.6558,3.681,3.7136,3.6734,3.6659,3.7462,3.7186,3.7086,3.7663,3.7613,3.7839,3.8642,3.701,3.6734,3.8868,3.6709,3.5931,3.7588,3.7839,3.7914,3.7914,3.8341,3.8417,3.809,3.799,3.814,3.8567,3.8467,3.8642,3.8969,3.6132,3.5077,0.0,0.0,0.0,0.0,0.0,0.0,0.0,0.0,0.0,0.0,0.0,2.0815,2.1393,0.0,2.4255,2.5084,2.6364,2.767,2.8775,2.9428,2.9779,2.9779,2.9528,2.9478,2.9754,2.9277,2.895,2.895,2.8674,2.8775,2.9327,2.9101,2.9076,2.9352,2.988,3.0432,3.0984,3.1813,3.2516,3.3068,3.3345,3.3646,3.3897,3.3897,3.4198,3.47,3.4424,3.4625,3.5127,3.5127,3.5454,3.5906,3.5353,3.5127,3.5102,3.4826,3.5077,3.5454,3.4901,3.5077,3.5554,3.5554,3.573,3.5956,3.5956,3.5755,3.5554,3.5554,3.5152,3.4851,3.5403,3.5554,3.568,3.6232,3.6358,3.6358,3.6358,3.6358,3.6433,3.6734,3.6985,3.7362,3.7939,3.8015,3.8216,3.8793,3.8617,3.8642,3.922,3.9044,3.8969,3.9245,3.804,3.7663,3.8768,3.7563,3.7262,3.8366,3.8718,3.8994,3.927,3.9823,4.0099,4.0099,4.0375,4.0526,4.0526,4.0526,4.0526,4.0501,3.9396,3.8567,0.0,0.0,0.0,0.0,0.0,0.0,0.0,1.9936,2.0765,2.1769,2.2322,2.2749,2.3201,2.4104,2.5109,2.6088,2.7092,2.8122,2.9126,3.0131,3.0809,3.0909,3.0834,3.0758,3.0758,3.0357,3.0105,3.0105,2.9679,2.9654,3.0231,3.0256,3.0306,3.0432,3.126,3.1813,3.2039,3.2943,3.3495,3.3721,3.4173,3.46,3.5052,3.5052,3.5529,3.6332,3.5906,3.5956,3.6358,3.6358,3.6433,3.6508,3.6508,3.6584,3.6659,3.6433,3.6358,3.6358,3.6358,3.6358,3.6358,3.6358,3.6358,3.6358,3.6358,3.5805,3.5203,3.5203,3.465,3.4248,3.5127,3.5353,3.5579,3.6458,3.6684,3.6709,3.681,3.686,3.701,3.7563,3.7764,3.8115,3.9019,3.927,3.927,3.9069,3.9019,3.9195,3.9647,3.9697,3.9521,3.9069,3.9019,3.8894,3.8517,3.8492,3.8743,3.932,3.9446,3.9697,4.0149,4.0701,4.1003,4.1003,4.143,4.1706,4.1806,4.1806,4.1882,4.1982,4.1982,4.1329,1.7074,1.5266,1.4702,1.6145,1.848,2.0467,0.0,2.315,2.5259,2.3979,2.5259,2.6666,2.6716,2.7218,2.7846,2.8448,2.9101,2.9729,3.0331,3.0934,3.1486,3.1964,3.1612,3.1311,3.1311,3.126,3.121,3.121,3.116,3.1361,3.1913,3.1938,3.219,3.2692,3.2817,3.337,3.4349,3.4474,3.5027,3.5981,3.6056,3.6107,3.6182,3.6182,3.6257,3.6358,3.6307,3.6307,3.6358,3.6358,3.6659,3.7086,3.7086,3.7387,3.7713,3.6734,3.6358,3.6358,3.6358,3.6358,3.6358,3.6358,3.6358,3.6358,3.6358,3.6609,3.691,3.691,3.7186,3.7487,3.7613,3.7638,3.7663,3.7789,3.7814,3.7965,3.8467,3.8592,3.8743,3.9295,3.9798,4.0174,4.03,4.0752,4.0727,3.9747,3.9597,3.9622,3.9697,3.9697,3.9672,3.9622,3.9597,3.9772,4.0199,4.0224,4.0475,4.1028,4.153,4.1806,4.1882,4.2409,4.271,4.271,4.276,4.3037,4.3539,4.3539,4.379,4.4242,4.4242,4.3413,1.9786,1.9384,1.951,2.0188,2.197,2.3627,2.4016,2.535,2.644,2.6389,2.7118,2.777,2.777,2.7695,2.7921,2.8775,2.9126,2.9603,3.0482,3.1336,3.1964,3.219,3.1738,3.1386,3.1386,3.1687,3.1612,3.0984,3.1512,3.1964,3.2215,3.2541,3.2968,3.3545,3.3872,3.4399,3.5203,3.5504,3.5906,3.6358,3.6358,3.6358,3.6358,3.6358,3.6533,3.686,3.7186,3.7312,3.7312,3.7312,3.7462,3.7663,3.7663,3.7789,3.7939,3.7487,3.7312,3.7312,3.7312,3.7312,3.7312,3.7312,3.7312,3.7312,3.7312,3.7487,3.7663,3.7663,3.7839,3.8015,3.8015,3.8015,3.809,3.8442,3.8517,3.8668,3.922,3.9346,3.9521,4.0074,4.035,4.0626,4.0927,4.1178,4.1178,4.0727,4.0651,4.0651,4.0651,4.0651,4.0777,4.1103,4.1128,4.1354,4.1907,4.1957,4.2183,4.2735,4.2986,4.3263,4.3589,4.3815,4.394,4.394,4.394,4.4041,4.4292,4.4292,4.4392,4.4618,4.4618,4.4443,2.1443,2.1845,2.2397,2.3175,2.4381,2.5611,2.649,2.6816,2.7143,2.7946,2.8222,2.8323,2.8323,2.8147,2.8247,2.9026,2.9428,2.9905,3.0708,3.1763,3.234,3.2014,3.1637,3.121,3.0758,3.1612,3.2014,3.1562,3.239,3.2968,3.3119,3.352,3.4022,3.455,3.4977,3.5378,3.5755,3.6157,3.6358,3.6358,3.6508,3.6584,3.6584,3.6734,3.7036,3.7437,3.7839,3.8015,3.8015,3.8015,3.809,3.8241,3.8241,3.8341,3.8467,3.8467,3.8266,3.8015,3.8015,3.8015,3.8015,3.8015,3.8015,3.8015,3.8015,3.8115,3.8241,3.8241,3.8341,3.8467,3.8467,3.8592,3.8793,3.922,3.9446,3.9697,4.0249,4.0375,4.0526,4.1078,4.1204,4.1329,4.1731,4.1781,4.1781,4.1781,4.1781,4.1681,4.1379,4.148,4.1731,4.2108,4.2283,4.261,4.3162,4.3212,4.3438,4.3991,4.4041,4.4192,4.4593,4.4618,4.4618,4.4618,4.4618,4.4694,4.4869,4.4869,4.4945,4.5095,4.5095,4.5321,2.1343,2.0715,2.0564,2.3301,2.4406,2.5259,2.6892,2.767,2.8072,2.8097,2.8524,2.89,2.89,2.9352,2.9729,2.9754,3.0633,3.1336,3.1361,3.234,3.2641,3.1537,3.1411,3.0758,2.9151,3.0959,3.2641,3.3721,3.4324,3.4876,3.5403,3.5454,3.573,3.6257,3.6307,3.6307,3.6332,3.6358,3.6358,3.6358,3.691,3.7161,3.7186,3.7713,3.7965,3.799,3.799,3.8015,3.8015,3.8015,3.8341,3.8843,3.8843,3.917,3.9647,3.9647,3.8944,3.8015,3.8015,3.8015,3.8015,3.8015,3.8015,3.8015,3.8015,3.8391,3.8843,3.8843,3.922,3.9647,3.9647,4.0049,4.045,4.045,4.0877,4.1404,4.1957,4.2082,4.2233,4.2785,4.2911,4.2911,4.2936,4.2936,4.2936,4.2936,4.2936,4.2534,4.148,4.1806,4.2133,4.2158,4.2635,4.3162,4.374,4.379,4.4016,4.4568,4.4593,4.4593,4.4618,4.4618,4.4618,4.4618,4.4618,4.4895,4.5472,4.5472,4.5723,4.625,4.625,4.6276,2.1543,2.2297,2.3452,2.4732,2.5762,2.6691,2.762,2.8247,2.8649,2.8649,2.8499,2.8373,2.8373,2.7946,2.7821,2.8549,2.8976,2.9729,3.1185,3.111,3.1311,3.239,3.1537,3.1235,3.2139,3.2215,3.2215,3.224,3.4123,3.5353,3.5437,3.5881,3.6182,3.6358,3.6358,3.6358,3.6358,3.6734,3.691,3.691,3.7462,3.7739,3.7739,3.8316,3.8567,3.8592,3.8969,3.912,3.912,3.912,3.9245,3.9421,3.9421,3.9521,3.9697,3.9697,3.9446,3.912,3.912,3.912,3.912,3.912,3.912,3.912,3.912,3.927,3.9421,3.9421,3.9546,3.9772,4.0149,4.0375,4.0701,4.143,4.1756,4.2032,4.2585,4.271,4.276,4.2936,4.2986,4.2986,4.2986,4.2986,4.3112,4.3463,4.3514,4.3388,4.3011,4.3463,4.394,4.4317,4.4543,4.4869,4.5422,4.5472,4.5547,4.5723,4.5748,4.5748,4.5748,4.5748,4.5748,4.5748,4.5748,4.5849,4.6024,4.6024,4.6125,4.6301,4.6301,4.6301,2.2573,2.3853,2.5285,2.6013,2.7042,2.7971,2.8323,2.8825,2.9227,2.9227,2.895,2.8574,2.8172,2.7519,2.7344,2.8247,2.875,2.9628,3.1436,3.1436,3.1637,3.2641,3.1838,3.1738,3.3169,3.3018,3.2667,3.2315,3.4123,3.5253,3.5253,3.5579,3.5956,3.6358,3.6358,3.6458,3.6659,3.701,3.7387,3.7789,3.814,3.8417,3.8617,3.8994,3.8944,3.8592,3.9371,3.9471,3.912,3.9521,3.9697,3.9697,3.9697,3.9697,3.9697,3.9697,3.9697,3.9697,3.9697,3.9697,3.9697,3.9697,3.9697,3.9697,3.9697,3.9697,3.9747,3.9923,3.9998,4.0124,4.0676,4.0953,4.1279,4.1982,4.2308,4.2559,4.2911,4.2986,4.2986,4.2986,4.2986,4.2986,4.2986,4.3137,4.3463,4.4016,4.4267,4.4342,4.4116,4.4593,4.507,4.5447,4.5673,4.5924,4.6276,4.6301,4.6301,4.6301,4.6301,4.6301,4.6301,4.6301,4.6301,4.6301,4.6301,4.6301,4.6301,4.6301,4.6301,4.6301,4.6301,4.6301,2.4205,2.5209,2.5963,2.7092,2.8147,2.8925,2.8976,2.9402,2.9779,2.9679,2.9628,2.9227,2.8072,2.7795,2.7996,2.8699,2.9679,3.0783,3.1964,3.3068,3.3345,3.234,3.2265,3.2315,3.2365,3.337,3.3997,3.3947,3.4474,3.4801,3.4801,3.4801,3.5278,3.6332,3.6383,3.6659,3.7186,3.7236,3.7814,3.8919,3.8919,3.9195,3.9697,3.9697,3.912,3.814,3.922,3.9094,3.8165,3.9245,3.9697,3.9697,3.9697,3.9697,3.9697,3.9697,3.9697,3.9697,3.9697,3.9697,3.9697,3.9697,3.9697,3.9697,3.9697,3.9722,3.9848,4.0375,4.0526,4.0676,4.1229,4.1756,4.2158,4.2183,4.261,4.2986,4.2986,4.2986,4.2986,4.2986,4.3011,4.3011,4.3011,4.3514,4.4066,4.4593,4.5171,4.5321,4.4744,4.5171,4.5522,4.5522,4.5999,4.6301,4.6301,4.6301,4.6301,4.6301,4.6301,4.6301,4.6301,4.6301,4.6301,4.6301,4.6301,4.6301,4.6301,4.6301,4.6301,4.6301,4.6301,4.6301,2.4155,2.5511,2.7118,2.8222,2.8725,2.9051,2.9478,2.9679,2.9428,2.8172,2.7243,2.6214,2.4682,2.3728,2.4029,2.6666,2.6967,2.7846,3.0633,3.126,3.1637,3.2164,3.2968,3.3796,3.4625,3.5328,3.5403,3.4575,3.5403,3.5956,3.5956,3.5956,3.6081,3.6358,3.6759,3.7036,3.7186,3.8015,3.8793,3.9496,3.9496,3.9546,3.9697,3.9697,3.9546,3.927,3.9572,3.9546,3.9295,3.9572,3.9697,3.9697,3.9697,3.9697,3.9697,3.9697,3.9697,3.9697,3.9697,3.9697,3.9697,3.9697,3.9697,3.9697,3.9697,3.9973,4.0325,4.0475,4.0802,4.1254,4.1806,4.2057,4.2258,4.266,4.2886,4.2986,4.2986,4.2986,4.2986,4.2986,4.3313,4.3589,4.3589,4.4418,4.5095,4.5246,4.5748,4.5899,4.5347,4.5748,4.61,4.61,4.6225,4.6301,4.6301,4.6301,4.6301,4.6301,4.6301,4.6301,4.6301,4.6301,4.6301,4.6301,4.6301,4.6301,4.6301,4.6301,4.6301,4.6301,4.6301,4.6301,2.5385,2.6691,2.8147,2.8775,2.9126,2.9202,2.8775,2.8699,2.8222,2.654,2.5686,2.4833,2.3401,2.2623,2.3226,2.6314,2.6741,2.7695,3.0557,3.1386,3.1913,3.2516,3.337,3.4424,3.578,3.6182,3.6107,3.5479,3.5579,3.5655,3.5655,3.5655,3.5981,3.6709,3.701,3.7412,3.7914,3.8793,3.9396,3.9697,3.9697,3.9697,3.9697,3.9697,3.9421,3.8994,3.9471,3.9421,3.8994,3.9496,3.9697,3.9697,3.9697,3.9697,3.9697,3.9697,3.9697,3.9697,3.9697,3.9697,3.9697,3.9697,3.9848,4.0049,4.0049,4.045,4.0927,4.1178,4.1455,4.1831,4.2359,4.2509,4.2585,4.2911,4.2986,4.2986,4.2986,4.2986,4.3062,4.3288,4.3589,4.3966,4.4468,4.507,4.5573,4.5824,4.6125,4.62,4.5899,4.6125,4.6301,4.6301,4.6301,4.6301,4.6301,4.6301,4.6301,4.6301,4.6301,4.6301,4.6301,4.6301,4.6301,4.6301,4.6301,4.6301,4.6301,4.6301,4.6301,4.6301,4.6301,4.6301,2.6917,2.8021,2.895,2.9026,2.9428,2.9402,2.7946,2.7444,2.6816,2.5159,2.4632,2.4117,2.3019,2.2905,2.3841,2.6477,2.7448,2.8549,3.0457,3.1964,3.2842,3.2842,3.347,3.455,3.6207,3.6232,3.6207,3.6358,3.5479,3.4951,3.4951,3.5002,3.578,3.7362,3.7412,3.7914,3.8969,3.9446,3.9697,3.9697,3.9697,3.9697,3.9697,3.9697,3.917,3.8291,3.927,3.9145,3.8316,3.9295,3.9697,3.9697,3.9697,3.9697,3.9697,3.9697,3.9697,3.9697,3.9697,3.9747,3.9798,3.9722,4.0074,4.0526,4.0526,4.0953,4.1555,4.2007,4.2208,4.2384,4.2861,4.2986,4.2986,4.2986,4.2986,4.2986,4.2986,4.3037,4.3212,4.3714,4.3915,4.4342,4.5321,4.5547,4.5748,4.6225,4.6301,4.6301,4.6301,4.6301,4.6301,4.6301,4.6301,4.6301,4.6301,4.6301,4.6301,4.6301,4.6301,4.6301,4.6301,4.6301,4.6301,4.6301,4.6301,4.6301,4.6301,4.6301,4.6301,4.6301,4.6301,4.6301,2.6735,2.7745,2.9051,2.9528,2.9704,2.9704,2.9428,2.8273,2.6816,2.5159,2.3728,2.2377,2.1343,2.1834,2.2898,2.4342,2.5787,2.6892,2.7339,2.9829,3.1687,3.1687,3.2993,3.455,3.6207,3.5554,3.5378,3.6282,3.6182,3.6081,3.6081,3.6508,3.7312,3.8542,3.8567,3.8894,3.9546,3.9647,3.9697,3.9697,3.9697,3.9697,3.9697,3.9697,3.9597,3.9421,3.9597,3.9597,3.9421,3.9622,3.9697,3.9697,3.9697,3.9697,3.9697,3.9697,3.9697,3.9697,3.9697,3.9998,4.03,3.9848,4.0074,4.0526,4.0526,4.1229,4.2032,4.2133,4.2484,4.2861,4.2961,4.2986,4.2986,4.2986,4.2986,4.2986,4.2986,4.3338,4.3689,4.379,4.4543,4.5271,4.5447,4.5874,4.62,4.6301,4.6301,4.6301,4.6301,4.6301,4.6301,4.6301,4.6301,4.6301,4.6301,4.6301,4.6301,4.6301,4.6301,4.6301,4.6301,4.6301,4.6301,4.6301,4.6301,4.6301,4.6301,4.6301,4.6301,4.6301,4.6301,4.6301,2.6691,2.7896,2.9453,2.9729,2.9804,2.9327,2.7595,2.6364,2.4858,2.2322,2.0941,2.0005,1.9502,2.0015,2.135,2.3643,2.5443,2.6866,2.8047,3.0281,3.1813,3.1813,3.3043,3.4223,3.5002,3.4851,3.4951,3.5479,3.5504,3.5881,3.6734,3.7588,3.8316,3.8843,3.9145,3.9421,3.9697,3.9697,3.9697,3.9697,3.9697,3.9697,3.9697,3.9697,3.9697,3.9697,3.9697,3.9346,3.8868,3.9446,3.9346,3.8868,3.9471,3.9697,3.9697,3.9697,3.9873,4.0124,4.0124,4.0475,4.0902,4.0651,4.0927,4.1379,4.1379,4.1932,4.2585,4.2585,4.276,4.2986,4.2986,4.2986,4.2986,4.2986,4.2986,4.3062,4.3338,4.3614,4.3991,4.4568,4.5121,4.5573,4.5874,4.6125,4.6301,4.6301,4.6301,4.6301,4.6301,4.6301,4.6301,4.6301,4.6301,4.6301,4.6301,4.6301,4.6301,4.6301,4.6301,4.6301,4.6301,4.6301,4.6301,4.6301,4.6301,4.6301,4.6301,4.6301,4.6301,4.6326,4.6602,4.6753,2.6791,2.8097,2.9603,2.9603,2.9704,2.8976,2.5887,2.4556,2.3125,2.0012,1.8756,1.8257,1.8363,1.9033,2.0382,2.3021,2.4753,2.654,2.8775,3.0281,3.1411,3.2139,3.3119,3.3872,3.4223,3.455,3.4826,3.5052,3.5303,3.5981,3.7287,3.8316,3.8919,3.9044,3.9471,3.9697,3.9697,3.9697,3.9697,3.9697,3.9697,3.9697,3.9697,3.9697,3.9697,3.9697,3.9697,3.9044,3.809,3.922,3.9019,3.8115,3.9245,3.9697,3.9697,3.9697,4.0049,4.0526,4.0526,4.0953,4.1505,4.1505,4.1806,4.2158,4.2158,4.2534,4.2986,4.2986,4.2986,4.2986,4.2986,4.2986,4.2986,4.2986,4.2986,4.3137,4.3689,4.389,4.4267,4.5296,4.5573,4.5799,4.6225,4.6301,4.6301,4.6301,4.6301,4.6301,4.6301,4.6301,4.6301,4.6301,4.6301,4.6301,4.6301,4.6301,4.6301,4.6301,4.6301,4.6301,4.6301,4.6301,4.6301,4.6301,4.6301,4.6301,4.6301,4.6301,4.6376,4.6502,4.6928,4.7205,2.6967,2.8097,2.9001,2.9001,2.9402,2.9176,2.6841,2.5109,2.3326,2.0991,1.9284,1.8339,1.883,2.0183,2.1386,2.1649,2.269,2.423,2.644,2.7318,2.885,3.1863,3.2767,3.3746,3.5253,3.4977,3.5127,3.6132,3.7136,3.7764,3.7914,3.8517,3.9094,3.9597,3.9672,3.9697,3.9697,3.9697,3.9697,3.9697,3.9697,3.9697,3.9697,3.9697,3.9697,3.9697,3.9697,3.9044,3.809,3.922,3.9019,3.8115,3.9245,3.9697,3.9697,3.9697,4.0049,4.0526,4.0526,4.1204,4.2082,4.2082,4.2108,4.2158,4.2158,4.2534,4.2986,4.2986,4.2986,4.2986,4.2986,4.2986,4.2986,4.2986,4.2986,4.3137,4.3689,4.4192,4.4744,4.5372,4.5899,4.625,4.6301,4.6301,4.6301,4.6301,4.6301,4.6301,4.6301,4.6301,4.6301,4.6301,4.6301,4.6301,4.6301,4.6301,4.6301,4.6301,4.6301,4.6301,4.6301,4.6301,4.6301,4.6301,4.6301,4.6301,4.6301,4.6301,4.6577,4.7054,4.7104,4.738,2.5862,2.7595,2.9453,2.9453,2.9628,2.895,2.5711,2.4205,2.2472,1.8907,1.7375,1.6766,1.6973,1.8091,1.9358,2.0318,2.1956,2.413,2.7042,2.8524,3.0156,3.2466,3.3822,3.4424,3.4098,3.4449,3.4901,3.5353,3.6408,3.7337,3.7965,3.8868,3.9471,3.9697,3.9697,3.9697,3.9697,3.9697,3.9697,3.9697,3.9697,3.9697,3.9697,3.9697,3.9697,3.9697,3.9697,3.8668,3.7161,3.8944,3.8642,3.7211,3.8994,3.9697,3.9747,4.0074,4.0551,4.1053,4.1379,4.2007,4.266,4.266,4.266,4.266,4.266,4.2811,4.2986,4.2986,4.2986,4.2986,4.2986,4.2986,4.2986,4.2986,4.3237,4.3639,4.4192,4.4744,4.5321,4.5874,4.615,4.6301,4.6301,4.6301,4.6301,4.6301,4.6301,4.6301,4.6301,4.6301,4.6301,4.6301,4.6301,4.6301,4.6301,4.6301,4.6301,4.6301,4.6301,4.6301,4.6301,4.6301,4.6301,4.6301,4.6301,4.6476,4.6803,4.6803,4.7079,4.7606,4.7958,4.8234,2.5134,2.7243,2.9528,2.9528,2.9176,2.7921,2.4506,2.2924,2.1041,1.7074,1.5969,1.5693,1.5693,1.6471,1.7727,1.951,2.1393,2.3753,2.6917,2.8674,3.0357,3.234,3.4048,3.4726,3.3897,3.465,3.5203,3.5203,3.6257,3.7211,3.7965,3.9069,3.9697,3.9697,3.9697,3.9697,3.9697,3.9697,3.9697,3.9697,3.9697,3.9521,3.9195,3.9546,3.9521,3.922,3.9546,3.8617,3.6985,3.8919,3.8592,3.7061,3.8969,3.9697,3.9747,4.03,4.0852,4.143,4.1957,4.2509,4.2986,4.2986,4.2986,4.2986,4.2986,4.2986,4.2986,4.2986,4.2986,4.2986,4.2986,4.2986,4.3011,4.3187,4.3514,4.3991,4.4719,4.5196,4.5648,4.62,4.6301,4.6301,4.6301,4.6301,4.6301,4.6301,4.6301,4.6301,4.6301,4.6301,4.6301,4.6301,4.6301,4.6301,4.6301,4.6301,4.6301,4.6301,4.6301,4.6301,4.6301,4.6301,4.6376,4.6552,4.6552,4.6828,4.7355,4.7355,4.7631,4.8184,4.8586,4.8862,2.5134,2.7218,2.8925,2.8925,2.7695,2.5912,2.3653,2.1418,1.9058,1.6271,1.5693,1.5693,1.5693,1.6145,1.725,1.9434,2.0765,2.2472,2.5234,2.659,2.8348,3.1085,3.2893,3.4349,3.5403,3.6031,3.6332,3.6332,3.7362,3.799,3.8015,3.9069,3.9697,3.9697,3.9697,3.9697,3.9697,3.9697,3.9697,3.9697,3.9697,3.9094,3.8065,3.9195,3.9094,3.809,3.9195,3.9044,3.8065,3.922,3.9019,3.809,3.9245,3.9697,3.9747,4.03,4.0852,4.143,4.1957,4.2509,4.2986,4.2986,4.2986,4.2986,4.2986,4.2986,4.2986,4.2986,4.2986,4.2986,4.2986,4.2986,4.3112,4.3664,4.379,4.4116,4.5246,4.5497,4.5648,4.62,4.6301,4.6301,4.6301,4.6301,4.6301,4.6301,4.6301,4.6301,4.6301,4.6301,4.6301,4.6301,4.6301,4.6301,4.6301,4.6301,4.6301,4.6301,4.6301,4.6301,4.6301,4.6301,4.6577,4.7104,4.7129,4.738,4.7908,4.7908,4.8184,4.8761,4.8761,4.9063,2.2548,2.3853,2.5059,2.546,2.4858,2.3602,2.1368,2.0313,1.8907,1.5768,1.5141,1.5141,1.5141,1.5894,1.7375,1.9962,2.1317,2.3427,2.7318,2.8524,2.988,3.2265,3.3671,3.4901,3.6006,3.5579,3.5554,3.6307,3.6684,3.7211,3.7965,3.9069,3.9697,3.9697,3.9697,3.9697,3.9697,3.9697,3.9697,3.9697,3.9697,3.9094,3.804,3.917,3.9069,3.8065,3.9195,3.9044,3.809,3.922,3.9019,3.8115,3.9245,3.9923,4.0325,4.0877,4.143,4.1982,4.2534,4.2836,4.2986,4.2986,4.2986,4.2986,4.2986,4.2986,4.2986,4.2986,4.2986,4.2986,4.2986,4.2986,4.3112,4.3664,4.4091,4.4568,4.5321,4.5773,4.61,4.6276,4.6301,4.6301,4.6301,4.6301,4.6301,4.6301,4.6301,4.6301,4.6301,4.6301,4.6301,4.6301,4.6301,4.6301,4.6301,4.6301,4.6301,4.6301,4.6301,4.6301,4.6301,4.6677,4.6954,4.7129,4.7481,4.7933,4.851,4.851,4.8786,4.9339,4.9339,4.9439,2.0413,2.197,2.3165,2.3577,2.2774,2.1518,2.0112,1.9158,1.7852,1.5432,1.5407,1.5658,1.5029,1.612,1.7727,1.9459,2.1543,2.3904,2.6691,2.8273,3.0055,3.2466,3.3746,3.5002,3.6533,3.5855,3.5629,3.6307,3.6558,3.7061,3.7965,3.8894,3.9471,3.9697,3.9697,3.9697,3.9697,3.9697,3.9697,3.9697,3.9697,3.9094,3.804,3.917,3.9069,3.8065,3.9195,3.9295,0.0,3.9396,3.927,3.8743,3.9647,4.0224,4.0601,4.1379,4.1856,4.2233,4.2785,4.2986,4.2986,4.2986,4.2986,4.2986,4.2986,4.2986,4.2986,4.2986,4.2986,4.2986,4.2986,4.3137,4.3438,4.3991,4.4543,4.5095,4.5673,4.6075,4.6301,4.6301,4.6301,4.6301,4.6301,4.6301,4.6301,4.6301,4.6301,4.6301,4.6301,4.6301,4.6301,4.6301,4.6301,4.6301,4.6301,4.6301,4.6301,4.6301,4.6301,4.6401,4.6602,4.6954,4.733,4.7732,4.8083,4.851,4.9088,4.9088,4.9264,4.959,4.959,4.959,0.0,2.0966,2.2564,2.2639,2.1142,1.956,1.956,1.7978,0.0,1.5291,1.6346,1.6974,1.5482,1.6999,1.848,1.8455,2.1619,2.413,2.418,2.654,2.9252,3.1838,3.3219,3.4751,3.681,3.6609,3.6358,3.6358,3.6885,3.7412,3.7965,3.8567,3.912,3.9672,3.9697,3.9697,3.9697,3.9697,3.9647,3.9572,3.9647,3.9069,3.7939,3.9145,3.9069,3.8065,3.9195,3.9697,3.9697,3.9697,3.9722,3.9798,4.0325,4.0576,4.0752,4.1781,4.2183,4.2283,4.2811,4.2986,4.2986,4.2986,4.2986,4.2986,4.2986,4.2986,4.2986,4.2986,4.2986,4.2986,4.3037,4.3413,4.394,4.4543,4.5095,4.5648,4.62,4.6301,4.6301,4.6301,4.6301,4.6301,4.6301,4.6301,4.6301,4.6301,4.6301,4.6301,4.6301,4.6301,4.6301,4.6301,4.6301,4.6301,4.6301,4.6301,4.6301,4.6301,4.6351,4.6602,4.7104,4.7205,4.7732,4.8761,4.8812,4.9088,4.959,4.959,4.959,4.959,4.959,4.959,1.523,0.0,1.7652,1.853,1.8003,1.73,0.0,1.6898,1.6697,1.73,1.7727,1.8028,1.8053,1.9861,2.1217,2.079,2.3251,2.5385,2.5812,2.8273,3.0407,3.1461,3.3319,3.4726,3.5253,3.5931,3.6358,3.6358,3.6885,3.7412,3.7965,3.8567,3.912,3.9672,3.9697,3.9697,3.9697,3.9697,3.927,3.8417,3.927,3.8668,3.681,3.8793,3.9069,3.8065,3.9195,3.9697,3.9697,3.9697,3.9948,4.0325,4.0475,4.1028,4.1806,4.2057,4.2409,4.2811,4.2936,4.2986,4.2986,4.2986,4.2986,4.2986,4.2986,4.2986,4.2986,4.2986,4.2986,4.3062,4.3489,4.3714,4.4041,4.5045,4.5397,4.5648,4.62,4.6301,4.6301,4.6301,4.6301,4.6301,4.6301,4.6301,4.6301,4.6301,4.6301,4.6301,4.6301,4.6301,4.6301,4.6301,4.6301,4.6301,4.6301,4.6301,4.6301,4.6301,4.6702,4.7004,4.7129,4.7933,4.851,4.8761,4.9188,4.9464,4.959,4.959,4.959,4.959,4.959,4.959,1.3946,1.4903,1.6019,1.7426,1.7124,1.6722,1.7455,1.7074,1.6848,1.7978,1.8405,1.8681,1.8982,2.0413,2.1543,2.1493,2.3175,2.5209,2.7293,2.9327,3.0909,3.1662,3.2616,3.3596,3.4625,3.5705,3.6358,3.6358,3.6634,3.7161,3.7965,3.8291,3.8843,3.9672,3.9697,3.9697,3.9697,3.9697,3.912,3.8015,3.9145,3.8793,3.7186,3.8919,3.9346,3.8793,3.8868,3.922,3.9672,3.9421,3.9798,4.0576,4.1078,4.163,4.2183,4.2434,4.271,4.2986,4.2986,4.2986,4.2986,4.2986,4.2986,4.2986,4.2986,4.2986,4.2986,4.2986,4.2986,4.3112,4.3664,4.3991,4.4392,4.5271,4.5673,4.5949,4.625,4.6301,4.6301,4.6301,4.6301,4.6301,4.6301,4.6301,4.6301,4.6301,4.6301,4.6301,4.6301,4.6301,4.6301,4.6301,4.6301,4.6301,4.6301,4.6301,4.6426,4.6677,4.6979,4.7355,4.7857,4.846,4.8887,4.9138,4.9439,4.959,4.959,4.959,4.959,4.959,4.959,4.959,1.3695,1.4752,1.5994,1.7752,1.735,1.6948,1.8607,1.7802,1.7074,1.853,1.9258,1.9634,1.9761,2.0966,2.1895,2.1769,2.2874,2.4983,2.8448,2.998,3.106,3.1989,3.2064,3.2742,3.455,3.5705,3.6358,3.6358,3.6358,3.681,3.7814,3.7965,3.8492,3.9546,3.9647,3.9697,3.9697,3.9697,3.912,3.8015,3.9145,3.9094,3.804,3.917,3.9697,3.9647,3.8693,3.8843,3.9798,3.932,3.9772,4.0852,4.1781,4.2208,4.2333,4.2811,4.2986,4.2986,4.2986,4.2986,4.2986,4.2986,4.2986,4.2986,4.2986,4.2986,4.2986,4.2986,4.3037,4.3237,4.379,4.4342,4.4895,4.5472,4.5974,4.6301,4.6301,4.6301,4.6301,4.6301,4.6301,4.6301,4.6301,4.6301,4.6301,4.6301,4.6301,4.6351,4.6426,4.6351,4.6351,4.6426,4.6351,4.6301,4.6301,4.6376,4.6677,4.723,4.7255,4.7732,4.8862,4.8887,4.9113,4.959,4.959,4.959,4.959,4.959,4.959,4.959,4.959,4.959,1.3182,1.4161,1.5517,1.7677,1.735,1.6948,1.8607,1.8103,1.8078,2.1066,2.2121,2.2648,2.315,2.5661,2.6615,2.3401,2.5008,2.7168,2.8725,3.0281,3.1336,3.1486,3.352,3.4851,3.4726,3.5705,3.6358,3.6358,3.6358,3.6634,3.7287,3.7739,3.8316,3.8969,3.9446,3.9697,3.9697,3.9697,3.912,3.8015,3.9145,3.9094,3.804,3.917,3.9697,3.9697,3.9521,3.9798,4.0375,4.03,4.0902,4.1932,4.2082,4.2434,4.2861,4.2936,4.2986,4.2986,4.2986,4.2986,4.2986,4.2986,4.2986,4.2986,4.2986,4.2986,4.2986,4.2986,4.3313,4.379,4.4342,4.492,4.5497,4.605,4.625,4.6301,4.6301,4.6301,4.6301,4.6301,4.6301,4.6301,4.6301,4.6301,4.6301,4.6301,4.6301,4.6476,4.6954,4.6602,4.6502,4.6954,4.6602,4.6301,4.6301,4.6753,4.723,4.7757,4.7782,4.8284,4.9414,4.9464,4.9515,4.959,4.959,4.959,4.959,4.959,4.959,4.959,4.959,4.959,1.3358,1.4299,1.5734,1.9133,1.848,1.7978,2.1719,2.0112,1.9007,2.3226,2.2397,2.1543,2.3627,2.4983,2.5745,2.5812,2.8398,3.0482,3.0683,3.1637,3.2416,3.2717,3.3872,3.4675,3.4726,3.5705,3.6358,3.6358,3.6358,3.6609,3.7161,3.7412,3.7965,3.8843,3.912,3.9396,3.9697,3.9697,3.912,3.8015,3.9145,3.9094,3.804,3.917,3.9697,3.9672,3.9371,3.9747,4.0526,4.0526,4.1153,4.2183,4.2484,4.276,4.2986,4.2986,4.2986,4.2986,4.2986,4.2986,4.2986,4.2986,4.2986,4.2986,4.2986,4.2986,4.3037,4.3338,4.3614,4.3915,4.4493,4.5045,4.5623,4.6175,4.6301,4.6301,4.6301,4.6301,4.6301,4.6301,4.6301,4.6301,4.6301,4.6301,4.6301,4.6301,4.6577,4.6753,4.6702,4.6728,4.6753,4.6702,4.6451,4.6426,4.6728,4.6979,4.7481,4.8309,4.8661,4.9063,4.9565,4.959,4.959,4.959,4.959,4.959,4.959,4.959,4.959,4.959,4.959,4.959,1.3644,1.45,1.591,2.0062,1.9233,1.8832,2.433,2.187,1.9811,2.4782,2.3,2.1468,2.4406,2.4481,2.5109,2.8197,3.0934,3.2717,3.2792,3.3395,3.3947,3.4248,3.45,3.4776,3.5077,3.5881,3.6358,3.6358,3.6358,3.6533,3.696,3.7111,3.7588,3.8442,3.8743,3.9069,3.9496,3.9622,3.9245,3.8417,3.927,3.9295,3.8617,3.9496,3.9948,4.0049,3.9647,3.9998,4.0902,4.0902,4.148,4.2384,4.2811,4.2986,4.2986,4.2986,4.2986,4.2986,4.2986,4.2986,4.2986,4.2986,4.2986,4.2986,4.2986,4.3062,4.3375,4.4091,4.4534,4.4726,4.4835,4.5246,4.5773,4.62,4.6301,4.6301,4.6301,4.6301,4.6301,4.6301,4.6301,4.6301,4.6301,4.6301,4.6301,4.6301,4.6778,4.7029,4.6728,4.6954,4.7079,4.6903,4.6652,4.6778,4.7456,4.7506,4.7933,4.8912,4.9364,4.959,4.959,4.959,4.959,4.959,4.959,4.959,4.959,4.959,4.959,4.959,4.959,4.959,1.3644,1.45,1.5734,1.9083,1.8631,1.8832,2.433,2.2171,2.0388,2.536,2.5711,2.5661,2.7469,2.7369,2.7745,3.0055,3.1035,3.2215,3.4248,3.5454,3.5956,3.5479,3.6332,3.6759,3.6282,3.6307,3.6358,3.6358,3.6358,3.6383,3.6408,3.691,3.7211,3.7312,3.8316,3.8894,3.8919,3.9446,3.9647,3.9572,3.9647,3.9923,4.035,4.0425,4.0727,4.1229,4.1178,4.1505,4.2032,4.2032,4.2384,4.2911,4.2961,4.2986,4.2986,4.2986,4.2986,4.2986,4.2986,4.2986,4.2986,4.2986,4.2986,4.2986,4.2986,4.3338,4.408,4.548,4.6573,4.7127,4.575,4.5849,4.625,4.6301,4.6301,4.6301,4.6301,4.6301,4.6301,4.6301,4.6301,4.6301,4.6301,4.6301,4.6301,4.6301,4.6778,4.728,4.7732,4.7405,4.7506,4.8485,4.7682,4.7506,4.856,4.8661,4.8912,4.949,4.9565,4.959,4.959,4.959,4.959,4.959,4.959,4.959,4.959,4.959,4.959,4.959,4.959,4.959,1.4249,1.5216,1.6848,2.0865,2.0137,1.9861,2.5385,2.3753,2.2598,2.7946,2.6389,2.4481,2.5812,2.7871,2.9854,3.1361,3.2641,3.3872,3.5077,3.5881,3.6282,3.6081,3.7036,3.7613,3.7412,3.7387,3.7236,3.6885,3.6885,3.6734,3.6383,3.6558,3.6835,3.7186,3.7588,3.8316,3.9371,3.9597,4.0049,4.0701,4.0375,4.03,4.0526,4.0877,4.1153,4.1354,4.1706,4.1957,4.2183,4.2534,4.2785,4.2986,4.2986,4.2986,4.2986,4.2986,4.2986,4.2986,4.2986,4.2986,4.2986,4.2986,4.2986,4.3037,4.3388,4.4265,4.5415,4.6678,4.8074,4.8952,4.8396,4.7968,4.7652,4.7652,4.7652,4.7652,4.7652,4.7652,4.7977,4.8851,4.83,4.7977,4.8851,4.9053,4.8842,4.8184,4.8635,4.8737,4.8007,4.8974,4.9689,4.9767,5.0026,4.9893,4.9366,4.959,4.9741,4.9615,4.959,4.959,4.959,4.959,4.959,4.959,4.959,4.959,4.959,4.959,4.959,4.959,5.0664,5.0537,1.4864,1.5951,1.7721,2.1644,2.0772,2.0514,2.6239,2.4833,2.3778,2.9001,2.8047,2.6414,2.6816,2.9202,3.1411,3.234,3.3445,3.4575,3.5655,3.6282,3.6634,3.6634,3.7437,3.8015,3.8015,3.8015,3.7839,3.7462,3.7437,3.7287,3.691,3.6885,3.7061,3.7437,3.7613,3.8341,3.9672,3.9873,4.0425,4.1329,4.1128,4.1028,4.1053,4.143,4.1706,4.1882,4.2258,4.2409,4.2434,4.2811,4.2986,4.2986,4.2986,4.2986,4.2986,4.2986,4.2986,4.2986,4.2986,4.3295,4.3628,4.3917,4.4274,4.4707,4.5278,4.6315,4.7459,4.8735,4.9967,5.0972,5.1399,5.0409,4.9167,4.9167,4.9167,4.9167,4.9167,4.9167,4.9508,5.0491,4.982,4.9508,5.0491,5.0878,5.0819,5.0201,5.0719,5.0871,4.9811,5.0975,5.1616,5.0948,5.1672,5.1779,5.0691,5.092,5.0895,5.0334,5.0308,5.0078,4.959,4.959,4.959,4.959,4.959,4.959,4.959,4.959,4.9822,5.0436,5.1492,5.1846,1.5415,1.6507,1.7982,2.0804,2.0246,2.0639,2.6691,2.5084,2.3602,2.8047,3.1135,3.2717,3.1587,3.1863,3.2416,3.2993,3.3093,3.3872,3.6056,3.6835,3.7186,3.7186,3.7688,3.8015,3.8015,3.8015,3.8015,3.8015,3.8015,3.8015,3.8015,3.8015,3.8015,3.8015,3.8567,3.912,3.9697,4.0249,4.0802,4.1354,4.1882,4.2158,4.2158,4.2158,4.2459,4.2986,4.2986,4.2986,4.2986,4.2986,4.2986,4.2986,4.2986,4.2986,4.2986,4.2986,4.2986,4.2986,4.2986,4.3907,4.5154,4.5817,4.6947,4.8221,4.8858,4.9467,5.0234,5.1671,5.2578,5.3413,5.4845,5.2934,5.0713,5.0713,5.0713,5.0713,5.0713,5.0713,5.0713,5.0713,5.0713,5.0713,5.0713,5.1349,5.1764,5.1764,5.2789,5.3564,5.3564,5.3591,5.3107,5.2183,5.2516,5.286,5.286,5.286,5.2596,5.2015,5.1989,5.1268,4.9719,4.959,4.959,4.959,4.959,4.959,4.959,4.959,5.0436,5.1962,5.2086,5.324,1.6829,1.7721,1.849,2.0907,2.2263,2.351,2.5543,2.5269,2.5661,2.9352,3.106,3.1562,3.0457,3.2616,3.4223,3.3244,3.4374,3.5604,3.6257,3.6835,3.7337,3.7713,3.8266,3.8768,3.9145,3.9195,3.9044,3.8642,3.8617,3.8442,3.804,3.8015,3.8015,3.8015,3.8165,3.8718,3.9697,3.9848,4.0601,4.1907,4.2082,4.2158,4.2158,4.2559,4.2811,4.2986,4.2986,4.2986,4.2986,4.2986,4.2986,4.3073,4.4016,4.3797,4.3073,4.4016,4.3797,4.2986,4.2986,4.4164,4.579,4.5949,4.7244,4.8886,4.9467,5.0522,5.1623,5.2531,5.3581,5.4641,5.5078,5.4509,5.3623,5.2509,5.2295,5.2295,5.2295,5.2295,5.2615,5.3623,5.3069,5.2615,5.3727,5.4387,5.4623,5.3941,5.4571,5.5254,5.568,5.6107,5.6503,5.6507,5.676,5.6558,5.5893,5.5414,5.4924,5.4297,5.4269,5.2881,4.9719,5.0664,5.1268,5.1268,5.2359,5.2971,5.2971,5.2971,5.3187,5.367,5.4831,5.5256,1.8612,1.9833,2.1019,2.366,2.47,2.5458,2.6769,2.704,2.7875,3.0989,3.219,3.2591,3.2164,3.4148,3.5554,3.455,3.5504,3.6358,3.6358,3.6659,3.7061,3.7613,3.8191,3.8743,3.932,3.9572,3.9546,3.922,3.9195,3.9044,3.8693,3.8668,3.8668,3.8668,3.8668,3.912,4.0023,4.0023,4.0727,4.2158,4.2158,4.2258,4.2484,4.2836,4.2986,4.2986,4.2986,4.2986,4.2986,4.2986,4.2986,4.3073,4.4535,4.4535,4.3907,4.5342,4.5502,4.5066,4.5066,4.6384,4.8075,4.8322,4.9637,5.1241,5.1843,5.2596,5.3437,5.3743,5.4509,5.5179,5.5179,5.5179,5.4976,5.4068,5.386,5.386,5.386,5.386,5.4171,5.5078,5.4509,5.4259,5.5406,5.6107,5.6422,5.6163,5.6698,5.7313,5.7956,5.8395,5.8723,5.8896,5.8864,5.8651,5.8175,5.7744,5.7154,5.6283,5.6226,5.4874,5.1669,5.2482,5.2944,5.2944,5.391,5.4386,5.4386,5.4386,5.4741,5.5327,5.6508,5.7312,2.0522,2.2451,2.4462,2.7533,2.7072,2.6721,3.0034,3.0173,3.0377,3.2878,3.4035,3.4776,3.5479,3.6125,3.6546,3.6452,3.6452,3.6546,3.6452,3.6358,3.6558,3.7111,3.7663,3.8241,3.8818,3.9371,3.9697,3.9697,3.9697,3.9697,3.9697,3.9697,3.9697,3.9697,3.9697,3.9923,4.0425,4.045,4.0978,4.2007,4.2057,4.2469,4.3108,4.3073,4.2986,4.2986,4.3073,4.3184,4.3184,4.3184,4.3295,4.3492,4.4725,4.5155,4.5369,4.6867,4.764,4.811,4.8166,4.955,5.1308,5.1885,5.3128,5.4401,5.4999,5.5179,5.5179,5.5179,5.5179,5.5179,5.5179,5.5179,5.5179,5.5179,5.5179,5.5179,5.5179,5.5179,5.5179,5.5179,5.5179,5.5388,5.6047,5.6675,5.7363,5.8112,5.877,5.9398,5.9997,6.0206,6.0126,5.9798,5.9796,5.9825,5.9882,5.9767,5.9217,5.8061,5.7945,5.7024,5.4887,5.4623,5.4623,5.4623,5.4741,5.4859,5.4859,5.4859,5.5588,5.7049,5.7627,5.9152,2.2122,2.3441,2.416,2.5244,2.6382,2.8886,3.5411,3.4882,3.3553,3.5241,3.4433,3.3997,3.5855,3.7073,3.7402,3.6546,3.715,3.7402,3.6546,3.6358,3.6558,3.7111,3.7663,3.8241,3.8818,3.9371,3.9697,3.9697,3.9697,3.9697,3.9697,3.9697,3.9697,3.9697,3.9697,3.9747,3.9873,3.9873,4.0199,4.0877,4.1304,4.2296,4.3883,4.3288,4.2986,4.3073,4.4126,4.4535,4.4535,4.4535,4.5262,4.6265,4.6578,4.6682,4.684,4.8805,4.8957,4.8193,4.8664,5.0199,5.1914,5.203,5.3422,5.4999,5.5149,5.5179,5.5179,5.5179,5.5179,5.5179,5.5179,5.5179,5.5179,5.5179,5.5179,5.5179,5.5179,5.5179,5.5179,5.5179,5.5179,5.5388,5.6047,5.6675,5.7513,5.871,5.9458,5.9937,6.0057,6.1014,6.1649,6.1545,6.1575,6.1783,6.2288,6.1397,6.0714,6.0416,5.9882,5.9177,5.8195,5.6849,5.6251,5.6251,5.744,5.8055,5.8055,5.8055,5.8542,5.9377,5.9525,6.038,2.1269,2.3673,2.5843,2.8681,3.0507,3.2716,3.6746,3.7204,3.699,3.7703,3.5956,3.4855,3.6893,3.7678,3.7926,3.7335,3.7678,3.7678,3.6546,3.6358,3.6458,3.6759,3.7287,3.7839,3.8391,3.8969,3.9396,3.9672,3.9697,3.9697,3.9697,3.9697,3.9697,3.9697,3.9697,3.9697,3.9697,3.9697,3.9973,4.0526,4.0802,4.2076,4.4204,4.4059,4.3602,4.3073,4.4427,4.5048,4.5048,4.5767,4.6474,4.7197,4.7808,4.8308,4.8821,5.0522,5.1146,5.1062,5.1408,5.2471,5.3539,5.3539,5.4345,5.5179,5.5179,5.5179,5.5179,5.5179,5.5179,5.5179,5.5179,5.5179,5.5179,5.5179,5.5179,5.5179,5.5179,5.5179,5.5179,5.5179,5.5179,5.5478,5.6466,5.7423,5.8411,5.9428,5.9877,6.0326,6.0954,6.1403,6.1732,6.2061,6.1822,6.1762,6.2121,6.1493,6.0984,6.0655,6.0266,5.9787,5.9129,5.8276,5.7804,5.7804,5.8634,5.9099,5.9099,5.9428,5.9757,6.0116,6.0745,6.1433,1.9901,2.3759,2.8158,3.3215,3.4876,3.5536,3.676,3.7974,3.9039,3.9693,3.7758,3.6427,3.8119,3.8379,3.8379,3.8107,3.8289,3.7952,3.664,3.6358,3.6358,3.6358,3.7026,3.7678,3.7965,3.8717,3.9297,3.9647,3.9697,3.9697,3.9697,3.9697,3.9697,3.9697,3.9697,3.98,4.0083,4.0083,4.0414,4.1054,4.1338,4.258,4.4492,4.5286,4.4862,4.3797,4.5155,4.5767,4.5872,4.6991,4.7689,4.8078,4.9009,4.9936,5.0842,5.21,5.3264,5.4221,5.4341,5.473,5.5179,5.5179,5.5179,5.5179,5.5179,5.5179,5.5179,5.5179,5.5179,5.5179,5.5179,5.5179,5.5179,5.5179,5.5179,5.5179,5.5179,5.5179,5.5179,5.5179,5.5359,5.5897,5.7064,5.8381,5.9458,5.9997,6.0296,6.0835,6.1942,6.1613,6.1523,6.2181,6.1672,6.1343,6.1433,6.1253,6.0864,6.0296,6.0057,5.9668,5.9129,5.9099,5.9099,5.9099,5.9099,5.9099,5.9099,5.9757,6.0146,6.0296,6.1523,6.2151,2.0176,2.4448,2.9325,3.3455,3.3304,3.33,3.7933,3.7565,3.7014,3.9865,3.9047,3.8119,3.9448,3.9623,3.936,3.8289,3.9006,3.8917,3.6709,3.6358,3.6358,3.6358,3.7732,3.8489,3.8038,3.9458,4.0223,3.975,3.9697,3.9697,3.9697,3.9697,3.9697,3.9697,3.9697,4.0262,4.1319,4.1319,4.1914,4.3136,4.4836,4.5705,4.5907,4.7193,4.7303,4.6578,4.8038,4.8638,4.8638,4.8837,4.9999,5.1431,5.0423,5.1227,5.2919,5.3614,5.4072,5.4281,5.485,5.5119,5.5179,5.5179,5.5179,5.5179,5.5179,5.5179,5.5179,5.5179,5.5179,5.5179,5.5179,5.5179,5.5179,5.5179,5.5179,5.5179,5.5179,5.5179,5.5179,5.5179,5.6077,5.7094,5.7872,5.9069,5.9997,6.0086,6.1074,6.1882,6.2061,6.2032,6.2211,6.2869,6.2361,6.2181,6.278,6.1762,6.1074,6.0984,5.9877,5.9189,5.9099,5.9099,5.9099,5.9099,5.9099,5.9099,5.9099,5.9757,6.0386,6.0984,6.1762,6.2391,2.1505,2.4328,2.738,3.3963,3.3275,3.2347,3.7644,3.7445,3.6975,3.9929,3.9943,3.9786,4.0689,4.0831,4.0661,4.0118,4.0462,4.0031,3.7678,3.7335,3.715,3.6452,3.7635,3.8463,3.8471,3.9547,4.0122,4.0227,3.9905,3.9981,4.0743,4.0743,4.0743,4.0743,4.0743,4.0642,4.0567,4.1219,4.2279,4.3504,4.5466,4.6518,4.6923,4.8923,4.8902,4.7197,4.8539,4.9363,4.9808,5.0525,5.1617,5.2755,5.2112,5.2625,5.3803,5.4102,5.4431,5.479,5.5089,5.5179,5.5179,5.5179,5.5179,5.5179,5.5179,5.5179,5.5179,5.5179,5.5179,5.5179,5.5179,5.5179,5.5179,5.5179,5.5179,5.5179,5.5179,5.5179,5.5299,5.5658,5.6466,5.7423,5.8501,5.9458,6.0356,6.1104,6.1702,6.2241,6.26,6.2331,6.2211,6.251,6.1583,6.1074,6.1373,6.0535,5.9997,5.9997,5.9428,5.9099,5.9099,5.9099,5.9099,5.9099,5.9099,5.9279,5.9668,6.0326,6.1014,6.1672,6.2331,6.281,2.1695,2.337,2.4956,3.2587,3.1988,3.0702,3.534,3.5908,3.6237,3.8871,4.0064,4.0837,4.1651,4.1666,4.1587,4.1587,4.1587,4.0887,3.8827,3.8559,3.8198,3.7428,3.8289,3.9132,3.936,4.016,4.0844,4.1053,4.0807,4.1119,4.2084,4.2084,4.2084,4.2084,4.2084,4.1789,4.1119,4.2609,4.3903,4.5016,4.6431,4.7503,4.8144,5.0288,5.0183,4.8465,4.9663,5.0534,5.1,5.204,5.2845,5.3443,5.3443,5.3862,5.4461,5.4461,5.476,5.5179,5.5179,5.5179,5.5179,5.5179,5.5179,5.5179,5.5179,5.5179,5.5179,5.5179,5.5179,5.5179,5.5179,5.5179,5.5179,5.5179,5.5179,5.5179,5.5179,5.5179,5.5418,5.6256,5.6915,5.7782,5.9129,6.0057,6.0924,6.1942,6.2241,6.251,6.3019,6.251,6.2091,6.2091,6.1044,6.0356,6.0356,5.9727,5.9338,5.9338,5.9189,5.9099,5.9099,5.9099,5.9099,5.9099,5.9279,5.9608,6.0086,6.0775,6.1463,6.2121,6.278,6.3079,1.963,2.1335,2.2951,2.7799,2.7889,2.75,3.0283,3.1839,3.3484,3.6148,3.865,4.0801,4.2085,4.1975,4.1587,4.1587,4.1587,4.1169,3.9972,3.9826,3.9798,3.9711,4.0746,4.1227,4.0686,4.2213,4.3012,4.2444,4.2983,4.3313,4.3409,4.3409,4.3409,4.3409,4.3409,4.3975,4.5115,4.6961,4.8268,4.8954,4.9104,4.9463,5.012,5.0807,5.1464,5.1965,5.2688,5.2987,5.3017,5.3114,5.3533,5.4162,5.4162,5.4551,5.5149,5.5149,5.5149,5.5179,5.5179,5.5179,5.5179,5.5179,5.5179,5.5179,5.5179,5.5179,5.5179,5.5179,5.5179,5.5179,5.5179,5.5179,5.5179,5.5179,5.5179,5.5179,5.5179,5.5179,5.5568,5.6795,5.7603,5.8471,5.9817,6.1134,6.2002,6.2091,6.263,6.3049,6.3079,6.251,6.2091,6.2091,6.1463,6.1074,6.1074,6.0416,6.0027,6.0027,5.9458,5.9099,5.9099,5.9099,5.9099,5.9099,5.9727,6.0057,6.0086,6.0775,6.1463,6.2121,6.278,6.3079,1.7742,1.8638,1.9803,2.5315,2.5046,2.4597,2.8936,3.0582,3.1749,3.3574,3.7045,3.9768,3.9798,4.105,4.2237,4.2651,4.271,4.2304,4.1169,4.1,4.0746,4.0,4.0916,4.1506,4.1284,4.2138,4.2854,4.3041,4.1758,4.2028,4.4542,4.3494,4.3381,4.4691,4.472,4.5132,4.5993,4.7119,4.8231,4.9254,4.9254,4.9613,5.0272,5.1349,5.2217,5.2875,5.3982,5.4221,5.3832,5.3832,5.4251,5.485,5.485,5.497,5.5179,5.5179,5.5179,5.5179,5.5179,5.5179,5.5179,5.5179,5.5179,5.5179,5.5179,5.5179,5.5179,5.5179,5.5179,5.5179,5.5179,5.5179,5.5179,5.5179,5.5179,5.5179,5.5179,5.5179,5.5688,5.7423,5.7962,5.883,6.0984,6.1762,6.2241,6.266,6.2929,6.2929,6.251,6.2241,6.1942,6.1493,6.1253,6.0924,6.0505,6.0236,5.9907,5.9488,5.9249,5.9099,5.9099,5.9099,5.9308,5.9727,5.9967,6.0296,6.0745,6.1403,6.2091,6.272,6.2959,6.3079,1.5411,1.6039,1.7174,2.1814,2.1994,2.2113,2.6303,2.8936,3.0761,3.1659,3.5878,3.929,3.8811,4.0367,4.2073,4.315,4.3329,4.3061,4.2275,4.2193,4.1864,4.1113,4.1699,4.2193,4.2193,4.2694,4.3335,4.3976,4.2625,4.3024,4.5871,4.4734,4.4734,4.634,4.6369,4.6807,4.7654,4.8092,4.8909,4.9912,4.9912,5.0152,5.0601,5.1917,5.2755,5.3264,5.461,5.494,5.4551,5.4551,5.479,5.5179,5.5179,5.5179,5.5179,5.5179,5.5179,5.5179,5.5179,5.5179,5.5179,5.5179,5.5179,5.5179,5.5179,5.5179,5.5179,5.5179,5.5179,5.5179,5.5179,5.5179,5.5179,5.5179,5.5179,5.5179,5.5179,5.5359,5.6047,5.7782,5.8471,5.9488,6.1702,6.2271,6.257,6.3019,6.3079,6.2929,6.248,6.2421,6.2091,6.1224,6.1104,6.0745,5.9847,5.9757,5.9578,5.9129,5.9099,5.9099,5.9099,5.9308,5.9638,6.0086,6.0535,6.0984,6.1433,6.1882,6.2421,6.3079,6.3079,6.3079,0.0,0.0,0.0,1.7115,1.8642,2.0139,2.2184,2.6632,3.0372,3.0402,3.513,3.929,3.9349,3.9948,4.1055,4.3,4.3299,4.3299,4.3299,4.3329,4.3329,4.3329,4.3329,4.3329,4.3329,4.3898,4.4556,4.5244,4.5873,4.6531,4.7309,4.7369,4.7668,4.8297,4.8327,4.8955,5.0242,5.0272,5.0601,5.1229,5.1229,5.1229,5.1259,5.2576,5.3174,5.3264,5.461,5.5179,5.5179,5.5179,5.5179,5.5179,5.5179,5.5179,5.5179,5.5179,5.5179,5.5179,5.5179,5.5179,5.5179,5.5179,5.5179,5.5179,5.5179,5.5179,5.5179,5.5179,5.5179,5.5179,5.5179,5.5179,5.5179,5.5179,5.5179,5.5209,5.5209,5.5748,5.6585,5.7902,5.9189,6.0505,6.1852,6.263,6.3049,6.3049,6.3019,6.3019,6.3019,6.2989,6.248,6.1194,6.1074,6.0535,5.9219,5.9129,5.9129,5.9099,5.9099,5.9099,5.9099,5.9727,6.0086,6.0116,6.1433,6.2121,6.2121,6.2121,6.245,6.3079,6.3079,6.3079,1.2029,0.0,0.0,0.0,0.0,0.0,2.0168,2.3849,2.723,2.8188,3.2377,3.6267,3.7704,3.9679,4.1444,4.2462,4.2641,4.2641,4.2641,4.303,4.3329,4.3329,4.3329,4.3329,4.3329,4.3509,4.4077,4.5214,4.4167,4.4796,4.7848,4.8476,4.8805,4.8985,4.9464,4.9883,5.0242,5.072,5.105,5.1229,5.1229,5.1229,5.1259,5.2576,5.3174,5.3264,5.461,5.5179,5.5179,5.5179,5.5179,5.5179,5.5179,5.5179,5.5179,5.5179,5.5179,5.5179,5.5179,5.5179,5.5179,5.5179,5.5179,5.5179,5.5179,5.5179,5.5179,5.5179,5.5179,5.5179,5.5179,5.5179,5.5179,5.5179,5.5179,5.5329,5.5807,5.6406,5.7244,5.859,5.9518,6.0505,6.1852,6.2241,6.2361,6.2361,6.1972,6.1642,6.1642,6.1224,6.0595,5.9757,6.0086,6.0027,5.9189,5.9548,5.9608,5.9129,5.9099,5.9099,5.9099,5.9727,6.0326,6.0805,6.1672,6.2331,6.281,6.281,6.2899,6.3079,6.3079,6.3079,1.2231,1.2501,1.313,1.4453,0.0,0.0,1.9271,2.34,2.7141,2.8188,3.2736,3.6477,3.6237,3.7704,3.905,3.9439,3.9738,4.0487,4.2132,4.291,4.324,4.294,4.318,4.3329,4.3329,4.3329,4.3868,4.5185,4.4227,4.4945,4.8117,4.8656,4.9105,4.9643,5.0032,5.0361,5.0631,5.102,5.1229,5.1229,5.1229,5.1229,5.1259,5.2576,5.3174,5.3264,5.461,5.5179,5.5179,5.5179,5.5179,5.5179,5.5179,5.5179,5.5179,5.5179,5.5179,5.5179,5.5179,5.5179,5.5179,5.5179,5.5179,5.5179,5.5179,5.5179,5.5179,5.5179,5.5179,5.5179,5.5179,5.5179,5.5179,5.5179,5.5179,5.5359,5.6017,5.6645,5.7483,5.883,5.9877,6.0775,6.1553,6.1912,6.2002,6.1732,6.1373,6.1104,6.1104,6.0775,6.0266,5.9578,5.9847,5.9817,5.9159,5.9458,5.9518,5.9129,5.9099,5.9219,5.9488,6.0146,6.0835,6.1493,6.2181,6.269,6.3079,6.3079,6.3079,6.3079,6.3079,6.3079,1.2921,1.2921,1.322,1.4483,1.5319,0.0,1.8822,2.358,2.7769,2.8727,3.3634,3.7015,3.4502,3.4592,3.51,3.516,3.5729,3.7494,4.1265,4.2641,4.294,4.2132,4.2791,4.3359,4.3419,4.3449,4.3988,4.5304,4.5544,4.6411,4.8177,4.8416,4.9045,5.0212,5.0301,5.0631,5.1199,5.1229,5.1229,5.1229,5.1229,5.1229,5.1259,5.2576,5.3174,5.3264,5.461,5.5179,5.5179,5.5179,5.5179,5.5179,5.5179,5.5179,5.5179,5.5179,5.5179,5.5179,5.5179,5.5179,5.5179,5.5179,5.5179,5.5179,5.5179,5.5179,5.5179,5.5179,5.5179,5.5179,5.5179,5.5179,5.5179,5.5179,5.5239,5.5478,5.6137,5.6765,5.7603,5.886,6.0116,6.1014,6.1014,6.1493,6.1672,6.1074,6.0954,6.0924,6.0984,6.0924,6.0655,6.0027,5.9967,5.9727,5.9159,5.9099,5.9099,5.9099,5.9189,5.9488,6.0057,6.0835,6.1493,6.2091,6.275,6.3079,6.3079,6.3079,6.3079,6.3079,6.3079,6.3079,1.3835,1.3615,1.3795,1.4603,1.5319,0.0,1.7055,1.8996,2.1425,2.4208,2.6243,2.8278,3.0821,3.1839,3.2497,3.3006,3.3664,3.507,3.7973,4.0786,4.1923,4.0187,4.1983,4.3539,4.4077,4.4107,4.4676,4.6022,4.71,4.7878,4.8267,4.9284,4.9972,5.0242,5.075,5.1079,5.1229,5.1229,5.1229,5.1229,5.1229,5.1229,5.1259,5.2576,5.3174,5.3264,5.461,5.5179,5.5179,5.5179,5.5179,5.5179,5.5179,5.5179,5.5179,5.5179,5.5179,5.5179,5.5179,5.5179,5.5179,5.5179,5.5179,5.5179,5.5179,5.5179,5.5179,5.5179,5.5179,5.5179,5.5179,5.5179,5.5179,5.5179,5.5598,5.6137,5.6765,5.7453,5.8171,5.8949,5.9757,6.0296,6.0296,6.0386,6.0446,6.0296,5.9847,5.9697,6.0206,5.9817,5.9458,5.9308,5.9308,5.9249,5.9129,5.9099,5.9099,5.9099,5.9608,5.9937,6.0086,6.1253,6.1972,6.2091,6.275,6.3079,6.3079,6.3079,6.3079,6.3079,6.3079,6.3079,1.5188,1.4543,1.4363,1.4722,1.5049,0.0,0.0,1.8489,2.0767,2.2742,2.4986,2.6811,2.747,2.8128,2.8697,2.9026,2.9355,3.0253,3.2228,3.6776,3.9888,3.9918,4.1354,4.2611,4.3269,4.3329,4.4018,4.5693,4.704,4.7938,4.8267,4.9224,4.9912,5.0242,5.087,5.1229,5.1229,5.1229,5.1229,5.1229,5.1229,5.1229,5.1259,5.2576,5.3174,5.3264,5.461,5.5179,5.5179,5.5179,5.5179,5.5179,5.5179,5.5179,5.5179,5.5179,5.5179,5.5179,5.5179,5.5179,5.5179,5.5179,5.5179,5.5179,5.5179,5.5179,5.5179,5.5179,5.5179,5.5179,5.5179,5.5179,5.5269,5.5598,5.5927,5.6436,5.7393,5.7872,5.8321,5.8979,5.9368,5.9608,5.9608,5.9877,5.9967,5.9638,5.9308,5.9219,5.9548,5.9308,5.9099,5.9099,5.9099,5.9099,5.9099,5.9099,5.9249,5.9578,5.9907,6.0386,6.1044,6.1732,6.2241,6.257,6.2899,6.3079,6.3079,6.3079,6.3079,6.3079,6.3079,6.3079,1.6849,1.5949,1.55,1.5381,1.5261,1.5441,0.0,0.0,0.0,2.1395,2.4088,2.5764,2.3999,2.3999,2.4328,2.4448,2.4567,2.5166,2.6602,3.1599,3.5938,3.8063,3.923,4.0127,4.0786,4.1773,4.324,4.5334,4.6741,4.7668,4.8087,4.8835,4.9494,5.0032,5.081,5.1229,5.1229,5.1229,5.1229,5.1229,5.1229,5.1229,5.1259,5.2576,5.3174,5.3264,5.461,5.5179,5.5179,5.5179,5.5179,5.5179,5.5179,5.5179,5.5179,5.5179,5.5179,5.5179,5.5179,5.5179,5.5179,5.5179,5.5179,5.5179,5.5179,5.5179,5.5179,5.5179,5.5179,5.5179,5.5179,5.5179,5.5359,5.6017,5.6256,5.6675,5.7872,5.8231,5.8471,5.9009,5.9099,5.9099,5.9099,5.9548,5.9727,5.9189,5.9099,5.9099,5.9099,5.9099,5.9099,5.9099,5.9099,5.9099,5.9099,5.9099,5.9398,6.0057,6.0206,6.0835,6.2061,6.2211,6.254,6.3079,6.3079,6.3079,6.3079,6.3079,6.3079,6.3079,6.3079,6.3079,1.8973,1.8313,1.8104,1.7535,1.6906,1.6517,1.6667,0.0,1.6637,1.7264,0.0,1.8489,1.9989,0.0,0.0,2.0258,2.0887,2.1934,2.3789,2.5734,2.7919,3.0492,3.2916,3.4651,3.531,3.9619,4.3419,4.6022,4.7429,4.7967,4.7429,4.8596,4.9284,4.9374,5.0571,5.1229,5.1229,5.1229,5.1229,5.1229,5.1229,5.1229,5.1259,5.2576,5.3174,5.3264,5.461,5.5179,5.5179,5.5179,5.5179,5.5179,5.5179,5.5179,5.5179,5.5179,5.5179,5.5179,5.5179,5.5179,5.5179,5.5179,5.5179,5.5179,5.5179,5.5179,5.5179,5.5179,5.5179,5.5179,5.5179,5.5179,5.5359,5.6017,5.6585,5.7184,5.7962,5.859,5.9009,5.9099,5.9099,5.9099,5.9099,5.9159,5.9189,5.9129,5.9099,5.9099,5.9099,5.9099,5.9099,5.9099,5.9099,5.9099,5.9099,5.9099,5.9398,6.0057,6.0655,6.1313,6.2061,6.266,6.2989,6.3079,6.3079,6.3079,6.3079,6.3079,6.3079,6.3079,6.3079,6.3079,2.1979,2.2178,2.2516,2.0978,2.0752,2.0539,1.9316,1.7623,1.6308,1.6189,0.0,0.0,0.0,0.0,0.0,0.0,1.8792,1.939,2.0587,2.1246,2.3729,2.9445,3.1091,3.2796,3.54,3.7315,3.9469,4.2132,4.3898,4.4736,4.4436,4.7519,4.9254,4.9254,5.0541,5.1229,5.1229,5.1229,5.1229,5.1229,5.1229,5.1409,5.1828,5.2755,5.3384,5.3832,5.479,5.5179,5.5179,5.5179,5.5179,5.5179,5.5179,5.5179,5.5179,5.5179,5.5179,5.5179,5.5179,5.5179,5.5179,5.5179,5.5179,5.5179,5.5179,5.572,5.628,5.628,5.628,5.628,5.628,5.6022,5.6101,5.7516,5.7807,5.8053,5.9497,5.9365,5.9099,5.9099,5.9099,5.9099,5.9099,5.9099,5.9099,5.9099,5.9099,5.9099,5.9099,5.9099,5.9099,5.9099,5.9099,5.9099,5.9099,5.9458,5.9967,6.0655,6.1672,6.2391,6.266,6.2929,6.3079,6.3079,6.3079,6.3079,6.3079,6.3079,6.3079,6.3079,6.3079,6.3079,2.6567,2.686,2.6942,2.4223,2.3681,2.3212,2.0948,1.8758,1.7055,1.6458,1.6517,0.0,0.0,0.0,1.7176,1.7176,0.0,1.7296,1.7595,1.7924,2.0557,2.7051,2.8607,3.0462,3.3724,3.4592,3.5908,3.8182,4.0666,4.2239,4.2419,4.6591,4.9075,4.9254,5.0541,5.1229,5.1229,5.1229,5.1229,5.1229,5.1229,5.1558,5.2217,5.2875,5.3563,5.4251,5.491,5.5179,5.5179,5.5179,5.5381,5.5651,5.5381,5.5381,5.572,5.572,5.572,5.572,5.6085,5.6017,5.572,5.572,5.5451,5.528,5.5551,5.628,5.7086,5.7434,5.7527,5.759,5.7746,5.7545,5.7672,5.9492,5.9487,5.9532,6.0763,6.0536,6.0075,5.9683,5.9864,6.0075,5.9683,5.9285,5.9099,5.9099,5.9099,5.9099,5.9099,5.9099,5.9099,5.9099,5.9099,5.9099,5.9099,5.9697,6.0446,6.1313,6.245,6.3079,6.3079,6.3079,6.3079,6.3079,6.3079,6.3079,6.3079,6.3079,6.3079,6.3079,6.3079,6.3079,3.3338,3.2318,3.0822,2.669,2.4645,2.2933,2.0318,1.9151,1.8463,1.7772,1.7145,1.6906,1.7533,1.6667,1.5858,1.5858,1.5858,0.0,0.0,1.598,1.7832,2.0707,2.3819,2.6303,2.776,3.133,3.4143,3.5519,3.923,4.1683,4.2419,4.6142,4.8596,4.9254,5.0541,5.1229,5.1229,5.1229,5.1229,5.1229,5.1229,5.1558,5.2217,5.2875,5.3563,5.4251,5.491,5.5179,5.5179,5.5179,5.5918,5.68,5.5651,5.5918,5.6991,5.6991,5.6991,5.7086,5.8268,5.79,5.6991,5.6991,5.6183,5.5481,5.6638,5.6991,5.7245,5.8451,5.8722,5.8882,5.9612,5.9804,6.0096,6.1596,6.1916,6.1758,6.1138,6.1995,6.2487,6.1193,6.1995,6.2487,6.1193,5.997,5.9099,5.9099,5.9099,5.9099,5.9099,5.9099,5.9099,5.9099,5.9099,5.9099,5.9099,5.9697,6.0655,6.1972,6.269,6.3079,6.3079,6.3079,6.3079,6.3079,6.3079,6.3079,6.3079,6.3079,6.3079,6.3079,6.3079,6.3079,3.6625,3.7036,3.6722,3.334,3.1173,2.9028,2.5697,2.2383,1.972,1.8612,1.816,1.7951,1.7742,1.6965,1.6398,1.6398,1.568,1.5052,0.0,1.5171,1.5949,1.7296,2.0348,2.34,2.6004,2.6662,2.8068,3.0731,3.3365,3.516,3.5818,4.1683,4.5514,4.6591,4.9194,5.078,5.1229,5.1229,5.1229,5.1229,5.1229,5.1798,5.2845,5.3084,5.3803,5.488,5.5089,5.5179,5.5179,5.5179,5.5918,5.6991,5.6541,5.7181,5.8085,5.7245,5.6991,5.715,5.836,5.8542,5.8177,5.8177,5.79,5.7621,5.8085,5.8722,5.9434,5.987,6.0315,6.0794,6.1055,6.1181,6.162,6.2932,6.2959,6.278,6.3479,6.3259,6.2908,6.239,6.2682,6.2908,6.239,6.1224,6.0045,5.9207,5.9099,5.9099,5.9099,5.9099,5.9099,5.9099,5.9099,5.9279,5.9727,6.0775,6.1792,6.269,6.2959,6.3079,6.3079,6.3079,6.3079,6.3079,6.3079,6.3079,6.3079,6.3079,6.3079,6.3079,6.3079,6.3079,4.1328,4.1782,4.1469,3.8302,3.6206,3.4046,3.0685,2.718,2.451,2.3951,2.301,2.2049,2.1388,1.995,1.8526,1.7517,1.6096,1.5052,0.0,1.4782,1.5049,1.5739,1.8702,2.1455,2.331,2.3789,2.4747,2.6692,2.9325,3.124,3.2108,3.905,4.3479,4.4586,4.8267,5.0451,5.087,5.1109,5.1229,5.1229,5.1229,5.1917,5.3174,5.3174,5.3922,5.5179,5.562,5.5819,5.5819,5.5819,5.68,5.8145,5.7339,5.7993,5.9346,5.851,5.851,5.9049,5.9784,5.9784,5.9434,5.9434,5.917,5.8902,5.9346,5.9957,6.0736,6.1451,6.1933,6.2432,6.3015,6.321,6.3612,6.4706,6.4662,6.4414,6.4778,6.4597,6.423,6.3732,6.4045,6.423,6.3732,6.294,6.1765,6.0045,5.9392,5.9099,5.9099,5.9099,5.9099,5.9099,5.9099,5.9458,6.0386,6.1463,6.2391,6.3049,6.3079,6.3079,6.3079,6.3079,6.2959,6.272,6.2959,6.2959,6.272,6.2959,6.3079,6.3079,6.3079,6.3079]},{"header":{"parameterUnit":"m.s-1","parameterCategory":1,"la1":30.6,"la2":29.2853,"lo1":-89.7004,"lo2":-87.6739,"dx":0.0162,"dy":0.0183,"nx":112,"ny":82,"refTime":"2023-01-01T18:00:00:Z","depth":0,"parameterNumber":3,"parameterNumberName":"V-component_of_WINDS"},"data":[0.0,0.0,0.0,0.0,0.0,0.0,0.0,0.0,0.0,0.0,0.0,0.0,0.0,0.0,0.0,0.0,0.0,0.0,0.0,0.0,0.0,0.0,0.0,0.0,0.0,0.0,0.0,0.0,0.0,0.0,0.0,0.0,0.0,0.0,0.0,0.0,0.0,0.0,0.0,0.0,0.0,0.0,0.0,0.0,0.0,0.0,0.0,0.0,0.0,0.0,0.0,0.0,0.0,0.0,0.0,0.0,0.0,0.0,0.0,0.0,0.0,0.0,0.0,0.0,0.0,0.0,0.0,0.0,0.0,0.0,0.0,0.0,0.0,0.0,0.0,0.0,0.0,0.0,0.0,0.0,0.0,0.0,0.0,0.0,0.0,0.0,0.0,0.0,0.0,0.0,-1.9869,-2.4672,-2.7919,-2.9415,-2.8667,-2.8697,-2.6153,-2.0079,0.0,0.0,0.0,0.0,0.0,0.0,0.0,0.0,0.0,0.0,0.0,0.0,0.0,0.0,0.0,0.0,0.0,0.0,0.0,0.0,0.0,0.0,0.0,0.0,0.0,0.0,0.0,0.0,0.0,0.0,0.0,0.0,0.0,0.0,0.0,0.0,0.0,0.0,0.0,0.0,0.0,0.0,0.0,0.0,0.0,0.0,0.0,0.0,0.0,0.0,0.0,0.0,0.0,0.0,0.0,0.0,0.0,0.0,0.0,0.0,0.0,0.0,0.0,0.0,0.0,0.0,0.0,0.0,0.0,0.0,0.0,0.0,0.0,0.0,0.0,0.0,0.0,0.0,0.0,0.0,0.0,0.0,0.0,0.0,0.0,0.0,0.0,0.0,0.0,0.0,0.0,0.0,0.0,0.0,0.0,0.0,0.0,0.0,0.0,0.0,0.0,0.0,0.0,0.0,-2.1605,-2.738,-2.9415,-2.9894,-2.8697,-2.9116,-2.6632,-2.0109,0.0,0.0,0.0,0.0,0.0,0.0,0.0,0.0,0.0,0.0,0.0,0.0,0.0,0.0,0.0,0.0,0.0,0.0,0.0,0.0,0.0,0.0,0.0,0.0,0.0,0.0,0.0,0.0,0.0,0.0,0.0,0.0,0.0,0.0,0.0,0.0,0.0,0.0,0.0,0.0,0.0,0.0,0.0,0.0,0.0,0.0,0.0,0.0,0.0,0.0,0.0,0.0,0.0,0.0,0.0,0.0,0.0,0.0,0.0,0.0,0.0,0.0,0.0,0.0,0.0,0.0,0.0,0.0,0.0,0.0,0.0,0.0,0.0,0.0,0.0,0.0,0.0,0.0,0.0,0.0,0.0,0.0,0.0,0.0,0.0,0.0,0.0,0.0,0.0,0.0,0.0,0.0,0.0,0.0,0.0,0.0,0.0,0.0,0.0,0.0,0.0,0.0,0.0,-2.2233,-2.6482,-2.8876,-3.0283,-3.0402,-2.8757,-2.9205,-2.6752,-2.0109,-1.969,0.0,0.0,0.0,0.0,0.0,0.0,0.0,0.0,0.0,0.0,0.0,0.0,0.0,0.0,0.0,0.0,0.0,0.0,0.0,0.0,0.0,0.0,0.0,0.0,0.0,0.0,0.0,0.0,0.0,0.0,0.0,0.0,0.0,0.0,0.0,0.0,0.0,0.0,0.0,0.0,0.0,0.0,0.0,0.0,0.0,0.0,0.0,0.0,0.0,0.0,0.0,0.0,0.0,0.0,0.0,0.0,0.0,0.0,0.0,0.0,0.0,0.0,0.0,0.0,0.0,0.0,0.0,0.0,0.0,0.0,0.0,0.0,0.0,0.0,0.0,0.0,0.0,0.0,0.0,0.0,0.0,0.0,0.0,0.0,0.0,0.0,0.0,0.0,0.0,0.0,0.0,0.0,0.0,0.0,0.0,0.0,0.0,0.0,0.0,0.0,0.0,0.0,-2.5794,-2.9535,-2.9355,-3.0672,-3.0731,-2.8757,-2.9205,-2.6752,-2.0109,-1.969,0.0,0.0,0.0,0.0,0.0,0.0,0.0,0.0,0.0,0.0,0.0,0.0,0.0,0.0,0.0,0.0,0.0,0.0,0.0,0.0,0.0,0.0,0.0,0.0,0.0,0.0,0.0,0.0,0.0,0.0,0.0,0.0,0.0,0.0,0.0,0.0,0.0,0.0,0.0,0.0,0.0,0.0,0.0,0.0,0.0,0.0,0.0,0.0,0.0,0.0,0.0,0.0,0.0,0.0,0.0,0.0,0.0,0.0,0.0,0.0,0.0,0.0,0.0,0.0,0.0,0.0,0.0,0.0,0.0,0.0,0.0,0.0,0.0,0.0,0.0,0.0,0.0,0.0,0.0,0.0,0.0,0.0,0.0,0.0,0.0,0.0,0.0,0.0,0.0,0.0,0.0,0.0,0.0,0.0,0.0,0.0,0.0,0.0,0.0,0.0,0.0,0.0,-2.3909,-2.732,-2.8547,-3.0402,-3.0731,-2.8757,-2.9205,-2.6752,-2.0109,-1.969,0.0,0.0,0.0,0.0,0.0,0.0,0.0,0.0,0.0,0.0,0.0,0.0,0.0,0.0,0.0,0.0,0.0,0.0,0.0,0.0,0.0,0.0,0.0,0.0,0.0,0.0,0.0,0.0,0.0,0.0,0.0,0.0,0.0,0.0,0.0,0.0,0.0,0.0,0.0,0.0,0.0,0.0,0.0,0.0,0.0,0.0,0.0,0.0,0.0,0.0,0.0,0.0,0.0,0.0,0.0,0.0,0.0,0.0,0.0,0.0,0.0,0.0,0.0,0.0,0.0,0.0,0.0,0.0,0.0,0.0,0.0,0.0,0.0,0.0,0.0,0.0,0.0,0.0,0.0,0.0,0.0,0.0,0.0,0.0,0.0,0.0,0.0,0.0,0.0,0.0,0.0,0.0,0.0,0.0,0.0,0.0,0.0,0.0,0.0,0.0,0.0,0.0,-2.5794,-2.9564,-2.9235,-3.0612,-3.0911,-2.9355,-2.9804,-2.753,-2.1335,0.0,0.0,0.0,0.0,0.0,0.0,0.0,0.0,0.0,0.0,0.0,0.0,0.0,0.0,0.0,0.0,0.0,0.0,0.0,0.0,0.0,0.0,0.0,0.0,0.0,0.0,0.0,0.0,0.0,0.0,0.0,0.0,0.0,0.0,0.0,0.0,0.0,0.0,0.0,0.0,0.0,0.0,0.0,0.0,0.0,0.0,0.0,0.0,0.0,0.0,0.0,0.0,0.0,0.0,0.0,0.0,0.0,0.0,0.0,0.0,0.0,0.0,0.0,0.0,0.0,0.0,0.0,0.0,0.0,0.0,0.0,0.0,0.0,0.0,0.0,0.0,0.0,0.0,0.0,0.0,0.0,0.0,0.0,0.0,0.0,0.0,0.0,0.0,0.0,0.0,0.0,0.0,0.0,0.0,0.0,0.0,0.0,0.0,0.0,0.0,0.0,0.0,-2.1096,-2.7171,-3.118,-3.0313,-3.1001,-3.1091,-2.9983,-3.0253,-2.7979,-2.2054,0.0,0.0,0.0,0.0,0.0,0.0,0.0,0.0,0.0,0.0,0.0,0.0,0.0,0.0,0.0,0.0,0.0,0.0,0.0,0.0,0.0,0.0,0.0,0.0,0.0,0.0,0.0,0.0,0.0,0.0,0.0,0.0,0.0,0.0,0.0,0.0,0.0,0.0,0.0,0.0,0.0,0.0,0.0,0.0,0.0,0.0,0.0,0.0,0.0,0.0,0.0,0.0,0.0,0.0,0.0,0.0,0.0,0.0,0.0,0.0,0.0,0.0,0.0,0.0,0.0,0.0,0.0,0.0,0.0,0.0,0.0,0.0,0.0,0.0,0.0,0.0,0.0,0.0,0.0,0.0,0.0,0.0,0.0,0.0,0.0,0.0,0.0,0.0,0.0,0.0,0.0,0.0,0.0,0.0,0.0,0.0,0.0,0.0,0.0,0.0,0.0,0.0,-2.1724,-2.747,-3.1482,-3.1511,-3.1482,-3.127,-3.0582,-3.0522,-2.8008,0.0,0.0,0.0,0.0,0.0,0.0,0.0,0.0,0.0,0.0,0.0,0.0,0.0,0.0,0.0,0.0,0.0,0.0,0.0,0.0,0.0,0.0,0.0,0.0,0.0,0.0,0.0,0.0,0.0,0.0,0.0,0.0,0.0,0.0,0.0,0.0,0.0,0.0,0.0,0.0,0.0,0.0,0.0,0.0,0.0,0.0,0.0,0.0,0.0,0.0,0.0,0.0,0.0,0.0,0.0,0.0,0.0,0.0,0.0,0.0,0.0,0.0,0.0,0.0,0.0,0.0,0.0,0.0,0.0,0.0,0.0,0.0,0.0,0.0,0.0,0.0,0.0,0.0,0.0,0.0,0.0,0.0,0.0,0.0,0.0,0.0,0.0,0.0,0.0,0.0,0.0,0.0,0.0,0.0,0.0,0.0,0.0,0.0,0.0,0.0,0.0,0.0,0.0,-2.2981,-2.8427,-3.2407,-3.2856,-3.2078,-3.1629,-3.1898,-3.1928,-2.9594,-2.4118,0.0,0.0,0.0,0.0,0.0,0.0,0.0,0.0,0.0,0.0,0.0,0.0,0.0,0.0,0.0,0.0,0.0,0.0,0.0,0.0,0.0,0.0,0.0,0.0,0.0,0.0,0.0,0.0,0.0,0.0,0.0,0.0,0.0,0.0,0.0,0.0,0.0,0.0,0.0,0.0,0.0,0.0,0.0,0.0,0.0,0.0,0.0,0.0,0.0,0.0,0.0,0.0,0.0,0.0,0.0,0.0,0.0,0.0,0.0,0.0,0.0,0.0,0.0,0.0,0.0,0.0,0.0,0.0,0.0,0.0,0.0,0.0,0.0,0.0,0.0,0.0,0.0,0.0,0.0,0.0,0.0,0.0,0.0,0.0,0.0,0.0,0.0,0.0,0.0,0.0,0.0,0.0,0.0,0.0,0.0,0.0,0.0,0.0,0.0,0.0,0.0,0.0,-2.3939,-2.9205,-3.3155,-3.3814,-3.2706,-3.2078,-3.2467,-3.2766,-3.0881,-2.6093,0.0,0.0,0.0,0.0,0.0,0.0,0.0,0.0,0.0,0.0,0.0,0.0,0.0,0.0,0.0,0.0,0.0,0.0,0.0,0.0,0.0,0.0,0.0,0.0,0.0,0.0,0.0,0.0,0.0,0.0,0.0,0.0,0.0,0.0,0.0,0.0,0.0,0.0,0.0,0.0,0.0,0.0,0.0,0.0,0.0,0.0,0.0,0.0,0.0,0.0,0.0,0.0,0.0,0.0,0.0,0.0,0.0,0.0,0.0,0.0,0.0,0.0,0.0,0.0,0.0,0.0,0.0,0.0,0.0,0.0,0.0,0.0,0.0,0.0,0.0,0.0,0.0,0.0,0.0,0.0,0.0,0.0,0.0,0.0,0.0,0.0,0.0,0.0,0.0,0.0,0.0,0.0,0.0,0.0,0.0,0.0,0.0,0.0,0.0,0.0,0.0,0.0,-2.4672,-2.9953,-3.3844,-3.4502,-3.3395,-3.2587,-3.2587,-3.3215,-3.1928,-2.8008,0.0,0.0,0.0,0.0,0.0,0.0,0.0,0.0,0.0,0.0,0.0,0.0,0.0,0.0,0.0,0.0,0.0,0.0,0.0,0.0,0.0,0.0,0.0,0.0,0.0,0.0,0.0,0.0,0.0,0.0,0.0,0.0,0.0,0.0,0.0,0.0,0.0,0.0,0.0,0.0,0.0,0.0,0.0,0.0,0.0,0.0,0.0,0.0,0.0,0.0,0.0,0.0,0.0,0.0,0.0,0.0,0.0,0.0,0.0,0.0,-2.1559,-1.8237,0.0,0.0,0.0,0.0,0.0,0.0,0.0,0.0,0.0,0.0,0.0,0.0,0.0,0.0,0.0,0.0,0.0,0.0,0.0,0.0,0.0,0.0,0.0,0.0,0.0,0.0,0.0,0.0,0.0,0.0,0.0,0.0,0.0,0.0,0.0,0.0,0.0,0.0,0.0,0.0,-2.6004,-3.0911,-3.4532,-3.522,-3.4083,-3.3275,-3.3275,-3.3873,-3.2796,-2.9355,-2.9086,0.0,0.0,0.0,0.0,0.0,0.0,0.0,0.0,0.0,0.0,0.0,0.0,0.0,0.0,0.0,0.0,0.0,0.0,0.0,0.0,0.0,0.0,0.0,0.0,0.0,0.0,0.0,0.0,0.0,0.0,0.0,0.0,0.0,0.0,0.0,0.0,0.0,0.0,0.0,0.0,0.0,0.0,0.0,0.0,0.0,0.0,0.0,0.0,0.0,0.0,0.0,0.0,0.0,0.0,0.0,0.0,0.0,0.0,0.0,-2.3805,-2.1983,0.0,0.0,0.0,0.0,0.0,0.0,0.0,0.0,0.0,0.0,0.0,0.0,0.0,0.0,0.0,0.0,0.0,0.0,0.0,0.0,0.0,0.0,0.0,0.0,0.0,0.0,0.0,0.0,0.0,0.0,0.0,0.0,0.0,0.0,0.0,0.0,0.0,0.0,0.0,0.0,-2.6452,-3.121,-3.4622,-3.4981,-3.4382,-3.3963,-3.3963,-3.4592,-3.3963,-3.1599,-3.0851,0.0,0.0,0.0,0.0,0.0,0.0,0.0,0.0,0.0,0.0,0.0,0.0,0.0,0.0,0.0,0.0,0.0,0.0,0.0,0.0,0.0,0.0,0.0,0.0,0.0,0.0,0.0,0.0,0.0,0.0,0.0,0.0,0.0,0.0,0.0,0.0,0.0,0.0,0.0,0.0,0.0,0.0,0.0,0.0,0.0,0.0,0.0,0.0,0.0,0.0,0.0,0.0,0.0,-2.5415,-2.5777,-2.6442,-2.5922,-2.6123,-2.6857,-2.6164,-2.6335,-2.6748,-2.2636,0.0,0.0,0.0,0.0,0.0,0.0,0.0,0.0,0.0,0.0,0.0,0.0,0.0,0.0,0.0,0.0,0.0,0.0,0.0,0.0,0.0,0.0,-2.3071,-2.4896,-2.5315,-2.5196,-2.4687,0.0,0.0,0.0,0.0,0.0,0.0,0.0,0.0,0.0,0.0,0.0,-2.6841,-3.145,-3.4711,-3.4831,-3.4831,-3.4771,-3.4651,-3.537,-3.528,-3.3933,-3.2407,-3.0821,0.0,0.0,0.0,0.0,0.0,0.0,0.0,0.0,0.0,0.0,0.0,0.0,0.0,0.0,0.0,0.0,0.0,0.0,0.0,0.0,0.0,0.0,0.0,0.0,0.0,0.0,0.0,0.0,0.0,0.0,0.0,0.0,-1.7955,-1.9814,0.0,0.0,0.0,0.0,0.0,0.0,0.0,0.0,0.0,0.0,0.0,0.0,0.0,-2.4716,-2.5961,-2.6448,-2.7348,-2.8717,-2.8266,-2.8432,-2.9117,-2.8441,-2.8531,-2.9102,-2.7861,0.0,-2.7242,-2.6149,0.0,0.0,0.0,0.0,0.0,0.0,0.0,0.0,0.0,0.0,0.0,0.0,0.0,0.0,0.0,0.0,0.0,0.0,0.0,0.0,0.0,0.0,-3.0462,-3.1869,-3.0073,-2.8816,-3.148,-2.5944,-2.1126,-2.3357,-2.1934,-2.0019,0.0,0.0,0.0,0.0,0.0,0.0,-2.8248,-3.2437,-3.5579,-3.6148,-3.6237,-3.5998,-3.5429,-3.6477,-3.6596,-3.531,-3.5519,-3.4322,-3.1213,-3.1779,0.0,0.0,0.0,0.0,0.0,0.0,0.0,0.0,0.0,0.0,0.0,0.0,0.0,0.0,0.0,0.0,0.0,0.0,0.0,0.0,0.0,0.0,0.0,0.0,0.0,0.0,0.0,0.0,0.0,-1.6744,-1.8876,-2.1082,-2.0763,-2.0012,0.0,0.0,0.0,0.0,0.0,0.0,0.0,0.0,0.0,-2.4632,-2.5581,-2.6435,-2.7252,-2.8107,-2.9012,-2.9961,-3.0165,-3.0402,-3.0672,-3.0372,-3.0402,-3.0642,-3.0043,-2.9786,-2.9607,-2.784,-2.7349,-2.7364,0.0,0.0,0.0,0.0,-2.1159,-2.2073,-2.2073,-2.3739,-2.5734,-2.5076,0.0,0.0,0.0,0.0,0.0,0.0,0.0,-2.5734,-2.8158,-3.0163,-3.2048,-3.4143,-3.3514,-3.2886,-3.4322,-3.0791,-2.735,-2.741,-2.5585,-2.346,-2.1665,-2.3071,0.0,0.0,0.0,-2.9924,-3.0223,-3.3335,-3.5609,-3.5908,-3.6567,-3.7045,-3.7105,-3.7644,-3.7734,-3.7165,-3.6716,-3.5818,-3.4382,-3.4233,-3.1898,0.0,0.0,0.0,0.0,0.0,0.0,0.0,0.0,0.0,0.0,0.0,0.0,0.0,0.0,0.0,0.0,0.0,0.0,0.0,0.0,0.0,0.0,0.0,0.0,0.0,0.0,0.0,0.0,-1.8874,-2.0789,-2.3285,-2.2885,-2.2371,0.0,0.0,0.0,0.0,0.0,0.0,-2.5303,-2.6527,-2.7115,-2.7055,-2.7703,-2.8312,-2.8858,-2.9672,-3.0423,-3.1041,-3.1147,-3.127,-3.127,-3.1091,-3.1031,-3.1031,-3.121,-3.127,-3.115,-2.9505,-2.9146,-2.9475,-2.8128,-2.6991,-2.6004,-2.4986,-2.5046,-2.5615,-2.5615,-2.738,-2.9475,-2.8816,-2.8816,-2.8906,-2.7889,0.0,0.0,0.0,0.0,-2.7679,-3.0133,-3.1539,-3.2826,-3.4981,-3.5519,-3.5549,-3.5729,-3.4173,-3.2437,-3.13,-2.9475,-2.744,-2.5315,-2.6692,0.0,-2.5884,-2.9295,-3.1988,-3.1809,-3.4262,-3.6058,-3.6237,-3.7255,-3.8182,-3.8841,-3.905,-3.902,-3.8691,-3.7764,-3.7165,-3.6985,-3.6178,-3.4352,-3.139,0.0,0.0,0.0,0.0,0.0,0.0,0.0,0.0,0.0,0.0,0.0,0.0,0.0,0.0,0.0,0.0,0.0,0.0,0.0,0.0,0.0,0.0,0.0,0.0,0.0,0.0,0.0,0.0,0.0,-2.7519,-2.8936,0.0,0.0,0.0,0.0,-2.6455,-2.6014,-2.6103,-2.7041,-2.7734,-2.8553,-2.9402,-3.0008,-3.1,-3.2331,-3.1732,-3.1762,-3.2485,-3.1157,-3.0552,-3.0522,-2.9953,-2.9684,-2.9714,-3.0313,-3.0552,-3.0642,-3.1779,-3.2287,-3.2198,-3.0821,-3.0253,-2.9983,-2.8068,-2.8966,-3.1063,-3.1063,-3.2886,-3.4981,-3.4292,-3.2407,-3.0043,-2.8158,-2.7949,0.0,0.0,-2.9804,-3.1213,-3.1392,-3.2886,-3.4532,-3.531,-3.5519,-3.5669,-3.6297,-3.4861,-3.3784,-3.4981,-3.3604,-3.1988,-3.1153,0.0,-3.136,-2.8786,-3.124,-3.3185,-3.2557,-3.531,-3.7554,-3.8182,-3.8901,-3.9589,-4.0247,-4.0876,-4.0696,-3.9439,-3.932,-3.899,-3.8332,-3.7105,-3.6357,-3.6148,-3.3036,0.0,0.0,0.0,0.0,0.0,0.0,0.0,0.0,0.0,0.0,0.0,0.0,0.0,0.0,0.0,0.0,0.0,0.0,0.0,0.0,0.0,0.0,0.0,0.0,0.0,0.0,0.0,0.0,-2.7473,-2.8466,0.0,-2.9102,-2.7887,-2.7083,-2.7067,-2.8232,-2.9059,-2.936,-3.0443,-3.1204,-3.1481,-3.089,-3.0724,-3.1243,-3.0964,-3.1204,-3.191,-3.1805,-3.2018,-3.2407,-3.2198,-3.2108,-3.2108,-3.2347,-3.2437,-3.2497,-3.3395,-3.3036,-3.1839,-3.136,-3.115,-3.118,-3.133,-3.1988,-3.2916,-3.3784,-3.4711,-3.5519,-3.5699,-3.513,-3.4292,-3.3993,-3.3784,-3.3664,-3.3664,-3.4173,-3.4711,-3.4711,-3.5549,-3.6537,-3.7195,-3.7375,-3.7434,-3.7674,-3.7135,-3.6656,-3.6716,-3.513,-3.3694,-3.3455,-3.4681,-3.4921,-3.2706,-3.4472,-3.5938,-3.5699,-3.7045,-3.8302,-3.899,-4.0038,-4.0935,-4.1594,-4.1863,-4.1803,-4.1354,-4.0516,-3.9738,-3.908,-3.8601,-3.7973,-3.7105,-3.6327,-3.3514,0.0,0.0,0.0,0.0,0.0,0.0,0.0,0.0,0.0,0.0,0.0,0.0,0.0,0.0,0.0,0.0,0.0,0.0,0.0,0.0,0.0,0.0,0.0,0.0,0.0,-2.3744,-2.6367,-2.8182,-2.897,-2.9633,-3.0521,-2.9416,-2.8747,-2.8996,-3.0207,-3.0799,-3.0584,-3.1413,-3.1971,-3.2216,-3.1343,-3.1061,-3.1509,-3.1509,-3.1749,-3.2198,-3.2647,-3.3066,-3.3484,-3.3484,-3.3365,-3.3185,-3.3395,-3.3365,-3.3215,-3.3873,-3.3365,-3.2228,-3.2706,-3.2886,-3.2976,-3.3844,-3.4322,-3.4651,-3.5759,-3.6148,-3.6207,-3.6656,-3.6806,-3.6866,-3.7285,-3.7135,-3.6806,-3.6806,-3.6806,-3.6806,-3.6806,-3.7255,-3.7913,-3.8571,-3.8901,-3.914,-3.9349,-3.905,-3.8751,-3.8751,-3.6956,-3.534,-3.4891,-3.5908,-3.6178,-3.4412,-3.5429,-3.6327,-3.6118,-3.7434,-3.8571,-3.902,-4.0666,-4.1983,-4.2641,-4.2073,-4.1893,-4.2342,-4.0905,-4.0068,-4.0068,-3.923,-3.8332,-3.7434,-3.6746,-3.4472,-3.0552,0.0,0.0,0.0,0.0,0.0,0.0,0.0,0.0,0.0,0.0,0.0,0.0,0.0,0.0,0.0,0.0,0.0,0.0,0.0,0.0,0.0,0.0,0.0,-2.2896,-2.6214,-2.9004,-3.0143,-3.1011,-3.2038,-3.3332,-3.2243,-3.1766,-3.2516,-3.1879,-3.121,-3.0582,-3.0522,-3.0851,-3.1482,-3.1511,-3.2168,-3.3455,-3.3484,-3.3514,-3.3514,-3.3514,-3.3544,-3.3544,-3.3544,-3.3215,-3.2647,-3.3275,-3.3215,-3.2677,-3.3335,-3.3604,-3.3754,-3.4981,-3.5459,-3.5489,-3.5519,-3.5968,-3.6656,-3.7225,-3.7434,-3.7464,-3.7464,-3.7494,-3.7494,-3.7494,-3.7524,-3.7524,-3.7524,-3.7524,-3.7524,-3.7524,-3.8003,-3.8661,-3.932,-3.9978,-4.0606,-4.1235,-4.0367,-3.9858,-4.1145,-3.929,-3.7135,-3.5908,-3.5699,-3.525,-3.3963,-3.4292,0.0,-3.3844,-3.6537,-3.8542,-3.8571,-4.0816,-4.2611,-4.3329,-4.1564,-4.0965,-4.2312,-4.0606,-4.0098,-4.1354,-3.8931,-3.7554,-3.7524,-3.4322,-3.3933,-3.6507,0.0,0.0,0.0,0.0,0.0,0.0,0.0,0.0,0.0,0.0,0.0,0.0,0.0,0.0,0.0,0.0,0.0,0.0,0.0,0.0,0.0,-2.4079,-2.6331,-2.7303,-2.8091,-2.9409,-3.1622,-3.1657,-3.1837,-3.2702,-3.1564,-3.0848,-3.1041,-3.0904,-3.0941,-3.124,-3.124,-3.1569,-3.2228,-3.2258,-3.2407,-3.2766,-3.3275,-3.3724,-3.4203,-3.4203,-3.4472,-3.4951,-3.4951,-3.4861,-3.4681,-3.4861,-3.513,-3.54,-3.5579,-3.6207,-3.6836,-3.4831,-3.4352,-3.4891,-3.5848,-3.7225,-3.8512,-3.7704,-3.8063,-3.8871,-3.8871,-3.92,-3.9589,-3.9589,-3.9918,-4.0277,-4.0277,-4.0277,-4.0277,-4.0277,-4.0427,-4.0606,-4.0786,-4.0965,-4.1175,-4.1354,-4.1085,-4.0935,-4.1324,-4.0786,-4.0187,-3.9828,-3.9768,-3.9798,-3.9918,-3.9679,-3.9589,-3.9888,-4.0726,-4.1624,-4.2581,-4.1624,-4.1983,-4.4526,-4.2073,-4.1175,-4.294,-4.2551,-4.2222,-4.2102,-4.1384,-4.0786,-4.0307,-3.7494,-3.6417,0.0,0.0,0.0,0.0,0.0,0.0,0.0,0.0,0.0,0.0,0.0,0.0,0.0,0.0,0.0,0.0,0.0,0.0,0.0,0.0,0.0,0.0,-2.6326,-2.8922,-3.0394,-3.0388,-3.0911,-3.2706,-3.2587,-3.2407,-3.2497,-3.1809,-3.136,-3.136,-3.136,-3.1629,-3.2317,-3.2347,-3.2527,-3.2916,-3.3185,-3.3335,-3.3335,-3.3993,-3.4532,-3.4921,-3.519,-3.5669,-3.6297,-3.6297,-3.6447,-3.6716,-3.6716,-3.6926,-3.7315,-3.7584,-3.8153,-3.8601,0.0,0.0,0.0,0.0,-3.8841,-3.9768,-3.926,-3.9589,-4.0247,-4.0247,-4.0487,-4.0816,-4.0816,-4.0696,-4.0546,-4.0546,-4.0157,-3.9858,-4.0427,-4.0546,-4.0756,-4.1594,-4.1803,-4.1863,-4.2132,-4.1773,-4.1534,-4.2102,-4.1773,0.0,-4.2462,-4.1474,-4.0606,-4.0696,-4.0367,-4.0367,-4.1055,-4.1863,-4.2551,-4.303,-4.2462,-4.2701,-4.4317,-4.1983,0.0,0.0,0.0,-4.1953,-4.1564,-4.1534,0.0,0.0,0.0,-3.7554,-3.8661,-3.6866,0.0,0.0,-3.2287,-3.0971,0.0,0.0,0.0,0.0,0.0,0.0,0.0,0.0,0.0,0.0,0.0,0.0,0.0,0.0,0.0,0.0,-2.8218,-3.0582,-3.2467,-3.2736,-3.2946,-3.3544,-3.3544,-3.3305,-3.2796,-3.2677,-3.2617,-3.2617,-3.2617,-3.2916,-3.3574,-3.3544,0.0,0.0,0.0,-3.4532,-3.4711,-3.537,-3.5789,-3.5968,-3.6537,-3.7105,-3.7644,-3.7644,-3.7943,-3.8512,-3.8512,-3.8542,-3.8661,-3.929,-3.9619,-3.9679,-3.8931,-3.899,-3.9589,-4.0098,-4.0397,-4.0576,-4.0995,0.0,0.0,-4.1384,-4.1444,-4.1504,-4.1504,-4.0726,-3.9858,-3.9858,-3.899,-3.8362,-3.9559,-3.9858,-4.0307,-4.2043,-4.2462,-4.2641,-4.321,-4.2432,-4.1953,-4.312,-4.2462,-4.2252,-4.4018,-4.1893,-3.9798,-3.9349,-3.923,-3.9409,-4.0098,-4.1654,-4.2521,-4.2102,-4.3269,0.0,-4.3808,-4.1833,-4.1474,-4.3419,-4.1983,-4.1055,-4.1055,-4.1145,-4.0337,-3.8571,-3.7973,-3.8841,-4.1175,-4.0606,-4.1504,-4.3629,-3.7464,-3.6178,0.0,0.0,0.0,0.0,0.0,0.0,0.0,0.0,0.0,0.0,0.0,0.0,0.0,0.0,0.0,-2.8667,-3.0582,-3.2437,-3.3903,-3.4083,-3.4143,-3.4262,-3.3814,-3.3664,-3.4053,-3.3604,-3.3305,-3.3305,-3.3305,-3.3604,-3.4262,-3.3784,-3.3754,-3.4262,-3.4412,-3.5011,-3.6088,-3.6716,-3.7584,-3.8661,-3.8781,0.0,-3.902,-3.902,-3.911,-3.923,-3.923,-3.9529,-4.0008,-4.0157,-4.0846,-4.1683,-4.0487,-4.0098,-4.0157,-3.9768,-4.0277,-4.1055,-4.0127,-4.0487,-4.1384,-4.1384,-4.1743,-4.2162,-4.2162,-4.2372,0.0,-4.2581,-4.2402,-4.2252,-4.2521,-4.2581,-4.2671,-4.306,-4.315,-4.318,-4.3299,-4.315,-4.303,-4.3269,-4.3569,-4.3868,-4.4257,-4.3778,-4.3688,-4.4646,-4.4317,-4.4197,-4.4885,-4.4825,-4.5095,-4.6052,-4.4107,-4.3778,-4.6322,-4.3748,-4.2821,-4.4796,-4.5095,-4.5185,-4.5185,-4.5693,-4.5783,-4.5394,-4.5274,-4.5454,-4.5963,-4.5843,-4.6052,-4.6441,-4.306,-4.1803,0.0,0.0,0.0,0.0,0.0,0.0,0.0,0.0,0.0,0.0,0.0,-2.4807,-2.5495,0.0,-2.8906,-2.9894,-3.142,-3.2976,-3.4292,-3.507,-3.5489,-3.5489,-3.519,-3.513,-3.5459,-3.4891,-3.4502,-3.4502,-3.4173,-3.4292,-3.4951,-3.4681,-3.4651,-3.4981,-3.5609,-3.6267,-3.6926,-3.7913,-3.8751,-3.9409,-3.9738,-4.0098,-4.0397,-4.0397,-4.0756,-4.1354,-4.1025,-4.1265,-4.1863,-4.1863,-4.2252,-4.2791,-4.2132,-4.1863,-4.1833,-4.1504,-4.1803,-4.2252,-4.1594,-4.1803,-4.2372,-4.2372,-4.2581,-4.2851,-4.2851,-4.2611,-4.2372,-4.2372,-4.1893,-4.1534,-4.2192,-4.2372,-4.2521,-4.318,-4.3329,-4.3329,-4.3329,-4.3329,-4.3419,-4.3778,-4.4077,-4.4526,-4.5214,-4.5304,-4.5544,-4.6232,-4.6022,-4.6052,-4.6741,-4.6531,-4.6441,-4.677,-4.5334,-4.4885,-4.6202,-4.4766,-4.4407,-4.5723,-4.6142,-4.6471,-4.68,-4.7459,-4.7788,-4.7788,-4.8117,-4.8297,-4.8297,-4.8297,-4.8297,-4.8267,-4.695,-4.5963,0.0,0.0,0.0,0.0,0.0,0.0,0.0,-2.3759,-2.4747,-2.5944,-2.6602,-2.7111,-2.7649,-2.8727,-2.9924,-3.1091,-3.2287,-3.3514,-3.4711,-3.5908,-3.6716,-3.6836,-3.6746,-3.6656,-3.6656,-3.6178,-3.5878,-3.5878,-3.537,-3.534,-3.6028,-3.6058,-3.6118,-3.6267,-3.7255,-3.7913,-3.8182,-3.926,-3.9918,-4.0187,-4.0726,-4.1235,-4.1773,-4.1773,-4.2342,-4.3299,-4.2791,-4.2851,-4.3329,-4.3329,-4.3419,-4.3509,-4.3509,-4.3599,-4.3688,-4.3419,-4.3329,-4.3329,-4.3329,-4.3329,-4.3329,-4.3329,-4.3329,-4.3329,-4.3329,-4.2671,-4.1953,-4.1953,-4.1294,-4.0816,-4.1863,-4.2132,-4.2402,-4.3449,-4.3718,-4.3748,-4.3868,-4.3928,-4.4107,-4.4766,-4.5005,-4.5424,-4.6501,-4.68,-4.68,-4.6561,-4.6501,-4.6711,-4.7249,-4.7309,-4.71,-4.6561,-4.6501,-4.6352,-4.5903,-4.5873,-4.6172,-4.686,-4.701,-4.7309,-4.7848,-4.8506,-4.8865,-4.8865,-4.9374,-4.9703,-4.9823,-4.9823,-4.9912,-5.0032,-5.0032,-4.9254,-2.0348,-1.8194,-1.7443,-1.9241,-2.2024,-2.4283,0.0,-2.759,-3.0103,-2.8577,-3.0103,-3.1779,-3.1839,-3.2437,-3.3185,-3.3903,-3.4681,-3.5429,-3.6148,-3.6866,-3.7524,-3.8093,-3.7674,-3.7315,-3.7315,-3.7255,-3.7195,-3.7195,-3.7135,-3.7375,-3.8033,-3.8063,-3.8362,-3.896,-3.911,-3.9768,-4.0935,-4.1085,-4.1743,-4.288,-4.297,-4.303,-4.312,-4.312,-4.321,-4.3329,-4.3269,-4.3269,-4.3329,-4.3329,-4.3688,-4.4197,-4.4197,-4.4556,-4.4945,-4.3778,-4.3329,-4.3329,-4.3329,-4.3329,-4.3329,-4.3329,-4.3329,-4.3329,-4.3329,-4.3629,-4.3988,-4.3988,-4.4317,-4.4676,-4.4825,-4.4855,-4.4885,-4.5035,-4.5065,-4.5244,-4.5843,-4.5992,-4.6172,-4.683,-4.7429,-4.7878,-4.8027,-4.8566,-4.8536,-4.7369,-4.7189,-4.7219,-4.7309,-4.7309,-4.7279,-4.7219,-4.7189,-4.7399,-4.7908,-4.7938,-4.8237,-4.8895,-4.9494,-4.9823,-4.9912,-5.0541,-5.09,-5.09,-5.096,-5.1289,-5.1887,-5.1887,-5.2187,-5.2725,-5.2725,-5.1738,-2.358,-2.3101,-2.3251,-2.4059,-2.6183,-2.8158,-2.8495,-3.0078,-3.1509,-3.145,-3.2317,-3.3095,-3.3095,-3.3006,-3.3275,-3.4292,-3.4711,-3.528,-3.6327,-3.7345,-3.8093,-3.8362,-3.7823,-3.7404,-3.7404,-3.7764,-3.7674,-3.6926,-3.7554,-3.8093,-3.8392,-3.8781,-3.929,-3.9978,-4.0367,-4.0995,-4.1953,-4.2312,-4.2791,-4.3329,-4.3329,-4.3329,-4.3329,-4.3329,-4.3539,-4.3928,-4.4317,-4.4466,-4.4466,-4.4466,-4.4646,-4.4885,-4.4885,-4.5035,-4.5214,-4.4676,-4.4466,-4.4466,-4.4466,-4.4466,-4.4466,-4.4466,-4.4466,-4.4466,-4.4466,-4.4676,-4.4885,-4.4885,-4.5095,-4.5304,-4.5304,-4.5304,-4.5394,-4.5813,-4.5903,-4.6082,-4.6741,-4.689,-4.71,-4.7758,-4.8087,-4.8416,-4.8775,-4.9075,-4.9075,-4.8536,-4.8446,-4.8446,-4.8446,-4.8446,-4.8596,-4.8985,-4.9015,-4.9284,-4.9942,-5.0002,-5.0272,-5.093,-5.1229,-5.1558,-5.1947,-5.2217,-5.2366,-5.2366,-5.2366,-5.2486,-5.2785,-5.2785,-5.2905,-5.3174,-5.3174,-5.2965,-2.5555,-2.6033,-2.6692,-2.7619,-2.9056,-3.0522,-3.1569,-3.1958,-3.2347,-3.3305,-3.3634,-3.3754,-3.3754,-3.3544,-3.3664,-3.4592,-3.507,-3.5639,-3.6596,-3.7853,-3.8542,-3.8153,-3.7704,-3.7195,-3.6656,-3.7674,-3.8153,-3.7614,-3.8601,-3.929,-3.9469,-3.9948,-4.0546,-4.1175,-4.1683,-4.2162,-4.2611,-4.309,-4.3329,-4.3329,-4.3509,-4.3599,-4.3599,-4.3778,-4.4137,-4.4616,-4.5095,-4.5304,-4.5304,-4.5304,-4.5394,-4.5574,-4.5574,-4.5693,-4.5843,-4.5843,-4.5603,-4.5304,-4.5304,-4.5304,-4.5304,-4.5304,-4.5304,-4.5304,-4.5304,-4.5424,-4.5574,-4.5574,-4.5693,-4.5843,-4.5843,-4.5992,-4.6232,-4.6741,-4.701,-4.7309,-4.7967,-4.8117,-4.8297,-4.8955,-4.9105,-4.9254,-4.9733,-4.9793,-4.9793,-4.9793,-4.9793,-4.9673,-4.9314,-4.9434,-4.9733,-5.0182,-5.0391,-5.078,-5.1439,-5.1498,-5.1768,-5.2426,-5.2486,-5.2665,-5.3144,-5.3174,-5.3174,-5.3174,-5.3174,-5.3264,-5.3473,-5.3473,-5.3563,-5.3743,-5.3743,-5.4012,-2.5435,-2.4687,-2.4507,-2.7769,-2.9086,-3.0103,-3.2048,-3.2976,-3.3455,-3.3484,-3.3993,-3.4442,-3.4442,-3.4981,-3.5429,-3.5459,-3.6507,-3.7345,-3.7375,-3.8542,-3.8901,-3.7584,-3.7434,-3.6656,-3.4741,-3.6896,-3.8901,-4.0187,-4.0905,-4.1564,-4.2192,-4.2252,-4.2581,-4.321,-4.3269,-4.3269,-4.3299,-4.3329,-4.3329,-4.3329,-4.3988,-4.4287,-4.4317,-4.4945,-4.5244,-4.5274,-4.5274,-4.5304,-4.5304,-4.5304,-4.5693,-4.6292,-4.6292,-4.6681,-4.7249,-4.7249,-4.6411,-4.5304,-4.5304,-4.5304,-4.5304,-4.5304,-4.5304,-4.5304,-4.5304,-4.5753,-4.6292,-4.6292,-4.6741,-4.7249,-4.7249,-4.7728,-4.8207,-4.8207,-4.8716,-4.9344,-5.0002,-5.0152,-5.0331,-5.099,-5.1139,-5.1139,-5.1169,-5.1169,-5.1169,-5.1169,-5.1169,-5.069,-4.9434,-4.9823,-5.0212,-5.0242,-5.081,-5.1439,-5.2127,-5.2187,-5.2456,-5.3114,-5.3144,-5.3144,-5.3174,-5.3174,-5.3174,-5.3174,-5.3174,-5.3503,-5.4192,-5.4192,-5.4491,-5.5119,-5.5119,-5.5149,-2.5674,-2.6572,-2.7949,-2.9475,-3.0702,-3.1809,-3.2916,-3.3664,-3.4143,-3.4143,-3.3963,-3.3814,-3.3814,-3.3305,-3.3155,-3.4023,-3.4532,-3.5429,-3.7165,-3.7075,-3.7315,-3.8601,-3.7584,-3.7225,-3.8302,-3.8392,-3.8392,-3.8422,-4.0666,-4.2132,-4.2419,-4.2761,-4.312,-4.3329,-4.3329,-4.3329,-4.3329,-4.3778,-4.3988,-4.3988,-4.4646,-4.4975,-4.4975,-4.5663,-4.5963,-4.5992,-4.6441,-4.6621,-4.6621,-4.6621,-4.677,-4.698,-4.698,-4.71,-4.7309,-4.7309,-4.701,-4.6621,-4.6621,-4.6621,-4.6621,-4.6621,-4.6621,-4.6621,-4.6621,-4.68,-4.698,-4.698,-4.713,-4.7399,-4.7848,-4.8117,-4.8506,-4.9374,-4.9763,-5.0092,-5.075,-5.09,-5.096,-5.1169,-5.1229,-5.1229,-5.1229,-5.1229,-5.1379,-5.1798,-5.1858,-5.1708,-5.1259,-5.1798,-5.2366,-5.2815,-5.3084,-5.3473,-5.4132,-5.4192,-5.4281,-5.4491,-5.4521,-5.4521,-5.4521,-5.4521,-5.4521,-5.4521,-5.4521,-5.464,-5.485,-5.485,-5.497,-5.5179,-5.5179,-5.5179,-2.6901,-2.8427,-3.0133,-3.1001,-3.2228,-3.3335,-3.3754,-3.4352,-3.4831,-3.4831,-3.4502,-3.4053,-3.3574,-3.2796,-3.2587,-3.3664,-3.4262,-3.531,-3.7464,-3.7464,-3.7704,-3.8901,-3.7943,-3.7823,-3.9529,-3.9349,-3.8931,-3.8512,-4.0666,-4.2013,-4.2013,-4.2402,-4.2851,-4.3329,-4.3329,-4.3449,-4.3688,-4.4107,-4.4556,-4.5035,-4.5454,-4.5783,-4.6022,-4.6471,-4.6411,-4.5992,-4.692,-4.704,-4.6621,-4.71,-4.7309,-4.7309,-4.7309,-4.7309,-4.7309,-4.7309,-4.7309,-4.7309,-4.7309,-4.7309,-4.7309,-4.7309,-4.7309,-4.7309,-4.7309,-4.7309,-4.7369,-4.7578,-4.7668,-4.7818,-4.8476,-4.8805,-4.9194,-5.0032,-5.0421,-5.072,-5.1139,-5.1229,-5.1229,-5.1229,-5.1229,-5.1229,-5.1229,-5.1409,-5.1798,-5.2456,-5.2755,-5.2845,-5.2576,-5.3144,-5.3713,-5.4162,-5.4431,-5.473,-5.5149,-5.5179,-5.5179,-5.5179,-5.5179,-5.5179,-5.5179,-5.5179,-5.5179,-5.5179,-5.5179,-5.5179,-5.5179,-5.5179,-5.5179,-5.5179,-5.5179,-5.5179,-2.8846,-3.0043,-3.0941,-3.2287,-3.3544,-3.4472,-3.4532,-3.504,-3.5489,-3.537,-3.531,-3.4831,-3.3455,-3.3125,-3.3365,-3.4203,-3.537,-3.6686,-3.8093,-3.9409,-3.9738,-3.8542,-3.8452,-3.8512,-3.8571,-3.9768,-4.0516,-4.0457,-4.1085,-4.1474,-4.1474,-4.1474,-4.2043,-4.3299,-4.3359,-4.3688,-4.4317,-4.4377,-4.5065,-4.6381,-4.6381,-4.6711,-4.7309,-4.7309,-4.6621,-4.5454,-4.6741,-4.6591,-4.5484,-4.677,-4.7309,-4.7309,-4.7309,-4.7309,-4.7309,-4.7309,-4.7309,-4.7309,-4.7309,-4.7309,-4.7309,-4.7309,-4.7309,-4.7309,-4.7309,-4.7339,-4.7489,-4.8117,-4.8297,-4.8476,-4.9134,-4.9763,-5.0242,-5.0272,-5.078,-5.1229,-5.1229,-5.1229,-5.1229,-5.1229,-5.1259,-5.1259,-5.1259,-5.1858,-5.2516,-5.3144,-5.3832,-5.4012,-5.3324,-5.3832,-5.4251,-5.4251,-5.482,-5.5179,-5.5179,-5.5179,-5.5179,-5.5179,-5.5179,-5.5179,-5.5179,-5.5179,-5.5179,-5.5179,-5.5179,-5.5179,-5.5179,-5.5179,-5.5179,-5.5179,-5.5179,-5.5179,-2.8786,-3.0402,-3.2317,-3.3634,-3.4233,-3.4622,-3.513,-3.537,-3.507,-3.3574,-3.2467,-3.124,-2.9415,-2.8278,-2.8637,-3.1779,-3.2138,-3.3185,-3.6507,-3.7255,-3.7704,-3.8332,-3.929,-4.0277,-4.1265,-4.2102,-4.2192,-4.1205,-4.2192,-4.2851,-4.2851,-4.2851,-4.3,-4.3329,-4.3808,-4.4137,-4.4317,-4.5304,-4.6232,-4.707,-4.707,-4.713,-4.7309,-4.7309,-4.713,-4.68,-4.716,-4.713,-4.683,-4.716,-4.7309,-4.7309,-4.7309,-4.7309,-4.7309,-4.7309,-4.7309,-4.7309,-4.7309,-4.7309,-4.7309,-4.7309,-4.7309,-4.7309,-4.7309,-4.7638,-4.8057,-4.8237,-4.8626,-4.9164,-4.9823,-5.0122,-5.0361,-5.084,-5.1109,-5.1229,-5.1229,-5.1229,-5.1229,-5.1229,-5.1618,-5.1947,-5.1947,-5.2935,-5.3743,-5.3922,-5.4521,-5.47,-5.4042,-5.4521,-5.494,-5.494,-5.5089,-5.5179,-5.5179,-5.5179,-5.5179,-5.5179,-5.5179,-5.5179,-5.5179,-5.5179,-5.5179,-5.5179,-5.5179,-5.5179,-5.5179,-5.5179,-5.5179,-5.5179,-5.5179,-5.5179,-3.0253,-3.1809,-3.3544,-3.4292,-3.4711,-3.4801,-3.4292,-3.4203,-3.3634,-3.1629,-3.0612,-2.9594,-2.7889,-2.6961,-2.7679,-3.136,-3.1869,-3.3006,-3.6417,-3.7404,-3.8033,-3.8751,-3.9768,-4.1025,-4.2641,-4.312,-4.303,-4.2282,-4.2402,-4.2491,-4.2491,-4.2491,-4.288,-4.3748,-4.4107,-4.4586,-4.5185,-4.6232,-4.695,-4.7309,-4.7309,-4.7309,-4.7309,-4.7309,-4.698,-4.6471,-4.704,-4.698,-4.6471,-4.707,-4.7309,-4.7309,-4.7309,-4.7309,-4.7309,-4.7309,-4.7309,-4.7309,-4.7309,-4.7309,-4.7309,-4.7309,-4.7489,-4.7728,-4.7728,-4.8207,-4.8775,-4.9075,-4.9404,-4.9853,-5.0481,-5.0661,-5.075,-5.1139,-5.1229,-5.1229,-5.1229,-5.1229,-5.1319,-5.1588,-5.1947,-5.2396,-5.2995,-5.3713,-5.4311,-5.461,-5.497,-5.5059,-5.47,-5.497,-5.5179,-5.5179,-5.5179,-5.5179,-5.5179,-5.5179,-5.5179,-5.5179,-5.5179,-5.5179,-5.5179,-5.5179,-5.5179,-5.5179,-5.5179,-5.5179,-5.5179,-5.5179,-5.5179,-5.5179,-5.5179,-5.5179,-3.2078,-3.3395,-3.4502,-3.4592,-3.507,-3.504,-3.3305,-3.2706,-3.1958,-2.9983,-2.9355,-2.8869,-2.7801,-2.754,-2.8539,-3.1835,-3.2856,-3.4023,-3.6297,-3.8093,-3.914,-3.914,-3.9888,-4.1175,-4.315,-4.318,-4.315,-4.3329,-4.2282,-4.1654,-4.1654,-4.1713,-4.2641,-4.4526,-4.4586,-4.5185,-4.6441,-4.701,-4.7309,-4.7309,-4.7309,-4.7309,-4.7309,-4.7309,-4.6681,-4.5633,-4.68,-4.6651,-4.5663,-4.683,-4.7309,-4.7309,-4.7309,-4.7309,-4.7309,-4.7309,-4.7309,-4.7309,-4.7309,-4.7369,-4.7429,-4.7339,-4.7758,-4.8297,-4.8297,-4.8805,-4.9523,-5.0062,-5.0301,-5.0511,-5.1079,-5.1229,-5.1229,-5.1229,-5.1229,-5.1229,-5.1229,-5.1289,-5.1498,-5.2097,-5.2336,-5.2845,-5.4012,-5.4281,-5.4521,-5.5089,-5.5179,-5.5179,-5.5179,-5.5179,-5.5179,-5.5179,-5.5179,-5.5179,-5.5179,-5.5179,-5.5179,-5.5179,-5.5179,-5.5179,-5.5179,-5.5179,-5.5179,-5.5179,-5.5179,-5.5179,-5.5179,-5.5179,-5.5179,-5.5179,-5.5179,-5.5179,-3.1721,-3.3066,-3.4622,-3.519,-3.54,-3.54,-3.507,-3.3694,-3.1958,-2.9983,-2.8278,-2.7267,-2.769,-2.7204,-2.7901,-3.1297,-3.1845,-3.2048,-3.2437,-3.5549,-3.7764,-3.7764,-3.932,-4.1175,-4.315,-4.2372,-4.2162,-4.324,-4.312,-4.3,-4.3,-4.3509,-4.4466,-4.5933,-4.5963,-4.6352,-4.713,-4.7249,-4.7309,-4.7309,-4.7309,-4.7309,-4.7309,-4.7309,-4.7189,-4.698,-4.7189,-4.7189,-4.698,-4.7219,-4.7309,-4.7309,-4.7309,-4.7309,-4.7309,-4.7309,-4.7309,-4.7309,-4.7309,-4.7668,-4.8027,-4.7489,-4.7758,-4.8297,-4.8297,-4.9134,-5.0092,-5.0212,-5.0631,-5.1079,-5.1199,-5.1229,-5.1229,-5.1229,-5.1229,-5.1229,-5.1229,-5.1648,-5.2067,-5.2187,-5.3084,-5.3952,-5.4162,-5.467,-5.5059,-5.5179,-5.5179,-5.5179,-5.5179,-5.5179,-5.5179,-5.5179,-5.5179,-5.5179,-5.5179,-5.5179,-5.5179,-5.5179,-5.5179,-5.5179,-5.5179,-5.5179,-5.5179,-5.5179,-5.5179,-5.5179,-5.5179,-5.5179,-5.5179,-5.5179,-5.5179,-5.5179,-3.1809,-3.3245,-3.51,-3.5429,-3.5519,-3.4951,-3.2886,-3.142,-2.9624,-2.6602,-2.4956,-2.416,-2.4518,-2.4606,-2.5785,-2.9459,-3.0865,-3.2018,-3.3425,-3.6088,-3.7913,-3.7913,-3.9379,-4.0786,-4.1713,-4.1534,-4.1654,-4.2282,-4.2312,-4.2761,-4.3778,-4.4796,-4.5663,-4.6292,-4.6651,-4.698,-4.7309,-4.7309,-4.7309,-4.7309,-4.7309,-4.7309,-4.7309,-4.7309,-4.7309,-4.7309,-4.7309,-4.689,-4.6322,-4.701,-4.689,-4.6322,-4.704,-4.7309,-4.7309,-4.7309,-4.7519,-4.7818,-4.7818,-4.8237,-4.8745,-4.8446,-4.8775,-4.9314,-4.9314,-4.9972,-5.075,-5.075,-5.096,-5.1229,-5.1229,-5.1229,-5.1229,-5.1229,-5.1229,-5.1319,-5.1648,-5.1977,-5.2426,-5.3114,-5.3773,-5.4311,-5.467,-5.497,-5.5179,-5.5179,-5.5179,-5.5179,-5.5179,-5.5179,-5.5179,-5.5179,-5.5179,-5.5179,-5.5179,-5.5179,-5.5179,-5.5179,-5.5179,-5.5179,-5.5179,-5.5179,-5.5179,-5.5179,-5.5179,-5.5179,-5.5179,-5.5179,-5.5179,-5.5209,-5.5538,-5.5718,-3.1928,-3.3484,-3.528,-3.528,-3.54,-3.4532,-3.0851,-2.9265,-2.756,-2.3849,-2.2353,-2.1854,-2.2475,-2.2987,-2.4507,-2.8052,-2.9763,-3.1629,-3.4292,-3.6088,-3.7434,-3.8302,-3.9469,-4.0367,-4.0786,-4.1175,-4.1504,-4.1773,-4.2073,-4.288,-4.4436,-4.5663,-4.6381,-4.6531,-4.704,-4.7309,-4.7309,-4.7309,-4.7309,-4.7309,-4.7309,-4.7309,-4.7309,-4.7309,-4.7309,-4.7309,-4.7309,-4.6531,-4.5394,-4.6741,-4.6501,-4.5424,-4.677,-4.7309,-4.7309,-4.7309,-4.7728,-4.8297,-4.8297,-4.8805,-4.9464,-4.9464,-4.9823,-5.0242,-5.0242,-5.069,-5.1229,-5.1229,-5.1229,-5.1229,-5.1229,-5.1229,-5.1229,-5.1229,-5.1229,-5.1409,-5.2067,-5.2306,-5.2755,-5.3982,-5.4311,-5.4581,-5.5089,-5.5179,-5.5179,-5.5179,-5.5179,-5.5179,-5.5179,-5.5179,-5.5179,-5.5179,-5.5179,-5.5179,-5.5179,-5.5179,-5.5179,-5.5179,-5.5179,-5.5179,-5.5179,-5.5179,-5.5179,-5.5179,-5.5179,-5.5179,-5.5179,-5.5179,-5.5269,-5.5418,-5.5927,-5.6256,-3.2138,-3.3484,-3.4562,-3.4562,-3.504,-3.4771,-3.1988,-2.9924,-2.7799,-2.5016,-2.2981,-2.2445,-2.4988,-2.5374,-2.6059,-2.8341,-2.8271,-2.8876,-3.1509,-3.2557,-3.4382,-3.7973,-3.905,-4.0217,-4.2013,-4.1683,-4.1863,-4.306,-4.4257,-4.5005,-4.5185,-4.5903,-4.6591,-4.7189,-4.7279,-4.7309,-4.7309,-4.7309,-4.7309,-4.7309,-4.7309,-4.7309,-4.7309,-4.7309,-4.7309,-4.7309,-4.7309,-4.6531,-4.5394,-4.6741,-4.6501,-4.5424,-4.677,-4.7309,-4.7309,-4.7309,-4.7728,-4.8297,-4.8297,-4.9105,-5.0152,-5.0152,-5.0182,-5.0242,-5.0242,-5.069,-5.1229,-5.1229,-5.1229,-5.1229,-5.1229,-5.1229,-5.1229,-5.1229,-5.1229,-5.1409,-5.2067,-5.2665,-5.3324,-5.4072,-5.47,-5.5119,-5.5179,-5.5179,-5.5179,-5.5179,-5.5179,-5.5179,-5.5179,-5.5179,-5.5179,-5.5179,-5.5179,-5.5179,-5.5179,-5.5179,-5.5179,-5.5179,-5.5179,-5.5179,-5.5179,-5.5179,-5.5179,-5.5179,-5.5179,-5.5179,-5.5179,-5.5179,-5.5508,-5.6077,-5.6137,-5.6466,-3.0821,-3.2886,-3.51,-3.51,-3.531,-3.4502,-3.0642,-2.8846,-2.6782,-2.2532,-2.0707,-2.0249,-2.1338,-2.2143,-2.3275,-2.5316,-2.6753,-2.8757,-3.2228,-3.3993,-3.5938,-3.8691,-4.0307,-4.1025,-4.0636,-4.1055,-4.1594,-4.2132,-4.3389,-4.4496,-4.5244,-4.6322,-4.704,-4.7309,-4.7309,-4.7309,-4.7309,-4.7309,-4.7309,-4.7309,-4.7309,-4.7309,-4.7309,-4.7309,-4.7309,-4.7309,-4.7309,-4.6082,-4.4287,-4.6411,-4.6052,-4.4347,-4.6471,-4.7309,-4.7369,-4.7758,-4.8327,-4.8925,-4.9314,-5.0062,-5.084,-5.084,-5.084,-5.084,-5.084,-5.102,-5.1229,-5.1229,-5.1229,-5.1229,-5.1229,-5.1229,-5.1229,-5.1229,-5.1528,-5.2007,-5.2665,-5.3324,-5.4012,-5.467,-5.4999,-5.5179,-5.5179,-5.5179,-5.5179,-5.5179,-5.5179,-5.5179,-5.5179,-5.5179,-5.5179,-5.5179,-5.5179,-5.5179,-5.5179,-5.5179,-5.5179,-5.5179,-5.5179,-5.5179,-5.5179,-5.5179,-5.5179,-5.5179,-5.5179,-5.5388,-5.5777,-5.5777,-5.6107,-5.6735,-5.7154,-5.7483,-2.9953,-3.2467,-3.519,-3.519,-3.4771,-3.3275,-2.9205,-2.732,-2.5076,-2.0348,-1.9031,-1.8702,-1.8702,-1.963,-2.1126,-2.3251,-2.5495,-2.8308,-3.2078,-3.4173,-3.6178,-3.8542,-4.0576,-4.1384,-4.0397,-4.1294,-4.1953,-4.1953,-4.321,-4.4347,-4.5244,-4.6561,-4.7309,-4.7309,-4.7309,-4.7309,-4.7309,-4.7309,-4.7309,-4.7309,-4.7309,-4.71,-4.6711,-4.713,-4.71,-4.6741,-4.713,-4.6022,-4.4077,-4.6381,-4.5992,-4.4167,-4.6441,-4.7309,-4.7369,-4.8027,-4.8686,-4.9374,-5.0002,-5.0661,-5.1229,-5.1229,-5.1229,-5.1229,-5.1229,-5.1229,-5.1229,-5.1229,-5.1229,-5.1229,-5.1229,-5.1229,-5.1259,-5.1468,-5.1858,-5.2426,-5.3294,-5.3862,-5.4401,-5.5059,-5.5179,-5.5179,-5.5179,-5.5179,-5.5179,-5.5179,-5.5179,-5.5179,-5.5179,-5.5179,-5.5179,-5.5179,-5.5179,-5.5179,-5.5179,-5.5179,-5.5179,-5.5179,-5.5179,-5.5179,-5.5179,-5.5179,-5.5269,-5.5478,-5.5478,-5.5807,-5.6436,-5.6436,-5.6765,-5.7423,-5.7902,-5.8231,-2.9953,-3.2437,-3.4472,-3.4472,-3.3006,-3.0881,-2.8188,-2.5525,-2.2712,-1.939,-1.8702,-1.8702,-1.8702,-1.9241,-2.0557,-2.3161,-2.4747,-2.6782,-3.0073,-3.1689,-3.3784,-3.7045,-3.92,-4.0935,-4.2192,-4.294,-4.3299,-4.3299,-4.4526,-4.5274,-4.5304,-4.6561,-4.7309,-4.7309,-4.7309,-4.7309,-4.7309,-4.7309,-4.7309,-4.7309,-4.7309,-4.6591,-4.5364,-4.6711,-4.6591,-4.5394,-4.6711,-4.6531,-4.5364,-4.6741,-4.6501,-4.5394,-4.677,-4.7309,-4.7369,-4.8027,-4.8686,-4.9374,-5.0002,-5.0661,-5.1229,-5.1229,-5.1229,-5.1229,-5.1229,-5.1229,-5.1229,-5.1229,-5.1229,-5.1229,-5.1229,-5.1229,-5.1379,-5.2037,-5.2187,-5.2576,-5.3922,-5.4221,-5.4401,-5.5059,-5.5179,-5.5179,-5.5179,-5.5179,-5.5179,-5.5179,-5.5179,-5.5179,-5.5179,-5.5179,-5.5179,-5.5179,-5.5179,-5.5179,-5.5179,-5.5179,-5.5179,-5.5179,-5.5179,-5.5179,-5.5179,-5.5179,-5.5508,-5.6137,-5.6166,-5.6466,-5.7094,-5.7094,-5.7423,-5.8112,-5.8112,-5.8471,-2.6871,-2.8427,-2.9864,-3.0342,-2.9624,-2.8128,-2.5465,-2.4208,-2.2532,-1.8792,-1.8044,-1.8044,-1.8044,-1.8942,-2.0707,-2.3789,-2.5405,-2.7919,-3.2557,-3.3993,-3.5609,-3.8452,-4.0127,-4.1594,-4.291,-4.2402,-4.2372,-4.3269,-4.3718,-4.4347,-4.5244,-4.6561,-4.7309,-4.7309,-4.7309,-4.7309,-4.7309,-4.7309,-4.7309,-4.7309,-4.7309,-4.6591,-4.5334,-4.6681,-4.6561,-4.5364,-4.6711,-4.6531,-4.5394,-4.6741,-4.6501,-4.5424,-4.677,-4.7578,-4.8057,-4.8716,-4.9374,-5.0032,-5.069,-5.105,-5.1229,-5.1229,-5.1229,-5.1229,-5.1229,-5.1229,-5.1229,-5.1229,-5.1229,-5.1229,-5.1229,-5.1229,-5.1379,-5.2037,-5.2546,-5.3114,-5.4012,-5.4551,-5.494,-5.5149,-5.5179,-5.5179,-5.5179,-5.5179,-5.5179,-5.5179,-5.5179,-5.5179,-5.5179,-5.5179,-5.5179,-5.5179,-5.5179,-5.5179,-5.5179,-5.5179,-5.5179,-5.5179,-5.5179,-5.5179,-5.5179,-5.5628,-5.5957,-5.6166,-5.6585,-5.7124,-5.7812,-5.7812,-5.8141,-5.88,-5.88,-5.8919,-2.4328,-2.6183,-2.773,-2.8098,-2.7141,-2.5644,-2.3969,-2.2832,-2.1276,-1.831,-1.828,-1.8578,-1.7832,-1.9211,-2.1126,-2.3191,-2.5674,-2.8487,-3.1809,-3.3694,-3.5818,-3.8691,-4.0217,-4.1713,-4.3539,-4.2731,-4.2462,-4.3269,-4.3569,-4.4167,-4.5244,-4.6352,-4.704,-4.7309,-4.7309,-4.7309,-4.7309,-4.7309,-4.7309,-4.7309,-4.7309,-4.6591,-4.5334,-4.6681,-4.6561,-4.5364,-4.6711,-4.683,0.0,-4.695,-4.68,-4.6172,-4.7249,-4.7938,-4.8386,-4.9314,-4.9883,-5.0331,-5.099,-5.1229,-5.1229,-5.1229,-5.1229,-5.1229,-5.1229,-5.1229,-5.1229,-5.1229,-5.1229,-5.1229,-5.1229,-5.1409,-5.1768,-5.2426,-5.3084,-5.3743,-5.4431,-5.491,-5.5179,-5.5179,-5.5179,-5.5179,-5.5179,-5.5179,-5.5179,-5.5179,-5.5179,-5.5179,-5.5179,-5.5179,-5.5179,-5.5179,-5.5179,-5.5179,-5.5179,-5.5179,-5.5179,-5.5179,-5.5179,-5.5299,-5.5538,-5.5957,-5.6406,-5.6885,-5.7304,-5.7812,-5.8501,-5.8501,-5.871,-5.9099,-5.9099,-5.9099,0.0,-2.4986,-2.701,-2.71,-2.5196,-2.331,-2.331,-2.1425,0.0,-1.8223,-1.948,-2.0228,-1.8369,-2.0258,-2.2024,-2.1994,-2.5764,-2.8757,-2.8816,-3.1629,-3.4861,-3.7943,-3.9589,-4.1414,-4.3868,-4.3629,-4.3329,-4.3329,-4.3958,-4.4586,-4.5244,-4.5963,-4.6621,-4.7279,-4.7309,-4.7309,-4.7309,-4.7309,-4.7249,-4.716,-4.7249,-4.6561,-4.5214,-4.6651,-4.6561,-4.5364,-4.6711,-4.7309,-4.7309,-4.7309,-4.7339,-4.7429,-4.8057,-4.8356,-4.8566,-4.9793,-5.0272,-5.0391,-5.102,-5.1229,-5.1229,-5.1229,-5.1229,-5.1229,-5.1229,-5.1229,-5.1229,-5.1229,-5.1229,-5.1229,-5.1289,-5.1738,-5.2366,-5.3084,-5.3743,-5.4401,-5.5059,-5.5179,-5.5179,-5.5179,-5.5179,-5.5179,-5.5179,-5.5179,-5.5179,-5.5179,-5.5179,-5.5179,-5.5179,-5.5179,-5.5179,-5.5179,-5.5179,-5.5179,-5.5179,-5.5179,-5.5179,-5.5179,-5.5239,-5.5538,-5.6137,-5.6256,-5.6885,-5.8112,-5.8171,-5.8501,-5.9099,-5.9099,-5.9099,-5.9099,-5.9099,-5.9099,-1.8071,0.0,-2.1036,-2.2084,-2.1455,-2.0617,0.0,-2.0139,-1.9899,-2.0617,-2.1126,-2.1485,-2.1515,-2.367,-2.5285,-2.4777,-2.7709,-3.0253,-3.0761,-3.3694,-3.6237,-3.7494,-3.9709,-4.1384,-4.2013,-4.2821,-4.3329,-4.3329,-4.3958,-4.4586,-4.5244,-4.5963,-4.6621,-4.7279,-4.7309,-4.7309,-4.7309,-4.7309,-4.68,-4.5783,-4.68,-4.6082,-4.3868,-4.6232,-4.6561,-4.5364,-4.6711,-4.7309,-4.7309,-4.7309,-4.7608,-4.8057,-4.8237,-4.8895,-4.9823,-5.0122,-5.0541,-5.102,-5.1169,-5.1229,-5.1229,-5.1229,-5.1229,-5.1229,-5.1229,-5.1229,-5.1229,-5.1229,-5.1229,-5.1319,-5.1828,-5.2097,-5.2486,-5.3683,-5.4102,-5.4401,-5.5059,-5.5179,-5.5179,-5.5179,-5.5179,-5.5179,-5.5179,-5.5179,-5.5179,-5.5179,-5.5179,-5.5179,-5.5179,-5.5179,-5.5179,-5.5179,-5.5179,-5.5179,-5.5179,-5.5179,-5.5179,-5.5179,-5.5658,-5.6017,-5.6166,-5.7124,-5.7812,-5.8112,-5.862,-5.8949,-5.9099,-5.9099,-5.9099,-5.9099,-5.9099,-5.9099,-1.6547,-1.7682,-1.9091,-2.0767,-2.0408,-1.9929,-2.0895,-2.0348,-2.0079,-2.1425,-2.1934,-2.2263,-2.2622,-2.4328,-2.5674,-2.5615,-2.7619,-3.0043,-3.2527,-3.4951,-3.6836,-3.7734,-3.8871,-4.0038,-4.1265,-4.2551,-4.3329,-4.3329,-4.3658,-4.4287,-4.5244,-4.5633,-4.6292,-4.7279,-4.7309,-4.7309,-4.7309,-4.7309,-4.6621,-4.5304,-4.6651,-4.6232,-4.4317,-4.6381,-4.689,-4.6232,-4.6322,-4.6741,-4.7279,-4.698,-4.7429,-4.8356,-4.8955,-4.9613,-5.0272,-5.0571,-5.09,-5.1229,-5.1229,-5.1229,-5.1229,-5.1229,-5.1229,-5.1229,-5.1229,-5.1229,-5.1229,-5.1229,-5.1229,-5.1379,-5.2037,-5.2426,-5.2905,-5.3952,-5.4431,-5.476,-5.5119,-5.5179,-5.5179,-5.5179,-5.5179,-5.5179,-5.5179,-5.5179,-5.5179,-5.5179,-5.5179,-5.5179,-5.5179,-5.5179,-5.5179,-5.5179,-5.5179,-5.5179,-5.5179,-5.5179,-5.5329,-5.5628,-5.5987,-5.6436,-5.7034,-5.7752,-5.8261,-5.856,-5.8919,-5.9099,-5.9099,-5.9099,-5.9099,-5.9099,-5.9099,-5.9099,-1.6249,-1.7503,-1.9061,-2.1156,-2.0677,-2.0198,-2.2274,-2.1216,-2.0348,-2.2084,-2.2951,-2.3503,-2.355,-2.4986,-2.6093,-2.5944,-2.726,-2.9774,-3.3903,-3.5729,-3.7015,-3.8123,-3.8212,-3.902,-4.1175,-4.2551,-4.3329,-4.3329,-4.3329,-4.3868,-4.5065,-4.5244,-4.5873,-4.713,-4.7249,-4.7309,-4.7309,-4.7309,-4.6621,-4.5304,-4.6651,-4.6591,-4.5334,-4.6681,-4.7309,-4.7249,-4.6112,-4.6292,-4.7429,-4.686,-4.7399,-4.8686,-4.9793,-5.0301,-5.0451,-5.102,-5.1229,-5.1229,-5.1229,-5.1229,-5.1229,-5.1229,-5.1229,-5.1229,-5.1229,-5.1229,-5.1229,-5.1229,-5.1289,-5.1528,-5.2187,-5.2845,-5.3503,-5.4192,-5.479,-5.5179,-5.5179,-5.5179,-5.5179,-5.5179,-5.5179,-5.5179,-5.5179,-5.5179,-5.5179,-5.5179,-5.5179,-5.5239,-5.5329,-5.5239,-5.5239,-5.5329,-5.5239,-5.5179,-5.5179,-5.5269,-5.5628,-5.6286,-5.6316,-5.6885,-5.8231,-5.8261,-5.853,-5.9099,-5.9099,-5.9099,-5.9099,-5.9099,-5.9099,-5.9099,-5.9099,-5.9099,-1.571,-1.6877,-1.8493,-2.1066,-2.0677,-2.0198,-2.2274,-2.1575,-2.1545,-2.5106,-2.6363,-2.6991,-2.759,-3.0582,-3.1719,-2.7889,-2.9804,-3.2377,-3.4233,-3.6088,-3.7345,-3.7524,-3.9948,-4.1534,-4.1384,-4.2551,-4.3329,-4.3329,-4.3329,-4.3658,-4.4436,-4.4975,-4.5663,-4.6441,-4.701,-4.7309,-4.7309,-4.7309,-4.6621,-4.5304,-4.6651,-4.6591,-4.5334,-4.6681,-4.7309,-4.7309,-4.71,-4.7429,-4.8117,-4.8027,-4.8745,-4.9972,-5.0152,-5.0571,-5.1079,-5.1169,-5.1229,-5.1229,-5.1229,-5.1229,-5.1229,-5.1229,-5.1229,-5.1229,-5.1229,-5.1229,-5.1229,-5.1229,-5.1618,-5.2187,-5.2845,-5.3533,-5.4221,-5.488,-5.5119,-5.5179,-5.5179,-5.5179,-5.5179,-5.5179,-5.5179,-5.5179,-5.5179,-5.5179,-5.5179,-5.5179,-5.5179,-5.5388,-5.5957,-5.5538,-5.5418,-5.5957,-5.5538,-5.5179,-5.5179,-5.5718,-5.6286,-5.6915,-5.6944,-5.7543,-5.889,-5.8949,-5.9009,-5.9099,-5.9099,-5.9099,-5.9099,-5.9099,-5.9099,-5.9099,-5.9099,-5.9099,-1.5919,-1.6965,-1.8668,-2.2802,-2.2024,-2.1425,-2.5884,-2.3969,-2.2652,-2.7679,-2.6692,-2.5674,-2.8158,-2.9774,-3.0818,-3.0761,-3.3844,-3.6327,-3.6567,-3.7704,-3.8631,-3.899,-4.0367,-4.1324,-4.1384,-4.2551,-4.3329,-4.3329,-4.3329,-4.3629,-4.4287,-4.4586,-4.5244,-4.6292,-4.6621,-4.695,-4.7309,-4.7309,-4.6621,-4.5304,-4.6651,-4.6591,-4.5334,-4.6681,-4.7309,-4.7279,-4.692,-4.7369,-4.8297,-4.8297,-4.9045,-5.0272,-5.0631,-5.096,-5.1229,-5.1229,-5.1229,-5.1229,-5.1229,-5.1229,-5.1229,-5.1229,-5.1229,-5.1229,-5.1229,-5.1229,-5.1289,-5.1648,-5.1977,-5.2336,-5.3025,-5.3683,-5.4371,-5.5029,-5.5179,-5.5179,-5.5179,-5.5179,-5.5179,-5.5179,-5.5179,-5.5179,-5.5179,-5.5179,-5.5179,-5.5179,-5.5508,-5.5718,-5.5658,-5.5688,-5.5718,-5.5658,-5.5359,-5.5329,-5.5688,-5.5987,-5.6585,-5.7573,-5.7992,-5.8471,-5.9069,-5.9099,-5.9099,-5.9099,-5.9099,-5.9099,-5.9099,-5.9099,-5.9099,-5.9099,-5.9099,-5.9099,-1.6189,-1.7204,-1.8877,-2.3909,-2.2921,-2.2443,-2.8996,-2.6063,-2.361,-2.9535,-2.741,-2.5585,-2.9086,-2.9175,-2.9924,-3.3604,-3.6866,-3.899,-3.908,-3.9798,-4.0457,-4.0816,-4.1115,-4.1444,-4.1803,-4.2761,-4.3329,-4.3329,-4.3329,-4.3539,-4.4047,-4.4227,-4.4796,-4.5813,-4.6172,-4.6561,-4.707,-4.7219,-4.677,-4.5783,-4.68,-4.683,-4.6022,-4.707,-4.7608,-4.7728,-4.7249,-4.7668,-4.8745,-4.8745,-4.9434,-5.0511,-5.102,-5.1229,-5.1229,-5.1229,-5.1229,-5.1229,-5.1229,-5.1229,-5.1229,-5.1229,-5.1229,-5.1229,-5.1229,-5.1319,-5.1464,-5.1624,-5.1913,-5.2367,-5.3196,-5.3922,-5.4551,-5.5059,-5.5179,-5.5179,-5.5179,-5.5179,-5.5179,-5.5179,-5.5179,-5.5179,-5.5179,-5.5179,-5.5179,-5.5179,-5.5748,-5.6047,-5.5688,-5.5957,-5.6107,-5.5897,-5.5598,-5.5748,-5.6555,-5.6615,-5.7124,-5.8291,-5.883,-5.9099,-5.9099,-5.9099,-5.9099,-5.9099,-5.9099,-5.9099,-5.9099,-5.9099,-5.9099,-5.9099,-5.9099,-5.9099,-1.6189,-1.7204,-1.8668,-2.2742,-2.2203,-2.2443,-2.8996,-2.6422,-2.4298,-3.0223,-3.0642,-3.0582,-3.2736,-3.2617,-3.3066,-3.5818,-3.6985,-3.8392,-4.0816,-4.2252,-4.2851,-4.2282,-4.3299,-4.3808,-4.324,-4.3269,-4.3329,-4.3329,-4.3329,-4.3359,-4.3389,-4.3988,-4.4347,-4.4466,-4.5663,-4.6352,-4.6381,-4.701,-4.7249,-4.716,-4.7249,-4.7578,-4.8087,-4.8177,-4.8536,-4.9134,-4.9075,-4.9464,-5.0092,-5.0092,-5.0511,-5.1139,-5.1199,-5.1229,-5.1229,-5.1229,-5.1229,-5.1229,-5.1229,-5.1229,-5.1229,-5.1229,-5.1229,-5.1229,-5.1229,-5.1648,-5.1839,-5.0511,-5.1049,-5.2339,-5.3803,-5.464,-5.5119,-5.5179,-5.5179,-5.5179,-5.5179,-5.5179,-5.5179,-5.5179,-5.5179,-5.5179,-5.5179,-5.5179,-5.5179,-5.5179,-5.5748,-5.6346,-5.6885,-5.6496,-5.6615,-5.7782,-5.6825,-5.6615,-5.7872,-5.7992,-5.8291,-5.8979,-5.9069,-5.9099,-5.9099,-5.9099,-5.9099,-5.9099,-5.9099,-5.9099,-5.9099,-5.9099,-5.9099,-5.9099,-5.9099,-5.9099,-1.6906,-1.8134,-2.0079,-2.4866,-2.3999,-2.367,-3.0253,-2.8308,-2.6931,-3.3305,-3.145,-2.9175,-3.0761,-3.3215,-3.5579,-3.7375,-3.8901,-4.0367,-4.1803,-4.2761,-4.324,-4.3,-4.4137,-4.4825,-4.4586,-4.4556,-4.4377,-4.3958,-4.3958,-4.3778,-4.3359,-4.3569,-4.3898,-4.4317,-4.4796,-4.5663,-4.692,-4.7189,-4.7728,-4.8506,-4.8117,-4.8027,-4.8297,-4.8716,-4.9045,-4.9284,-4.9703,-5.0002,-5.0272,-5.069,-5.099,-5.1229,-5.1229,-5.1229,-5.1229,-5.1229,-5.1229,-5.1229,-5.1229,-5.1229,-5.1229,-5.1229,-5.1229,-5.1289,-5.1708,-5.1372,-5.0883,-5.1164,-5.0881,-5.0691,-5.1222,-5.2578,-5.386,-5.386,-5.386,-5.386,-5.386,-5.386,-5.3518,-5.2615,-5.3174,-5.3518,-5.2615,-5.2373,-5.2837,-5.4223,-5.4972,-5.5819,-5.696,-5.6338,-5.5917,-5.6005,-5.6297,-5.7143,-5.8573,-5.9099,-5.9279,-5.9129,-5.9099,-5.9099,-5.9099,-5.9099,-5.9099,-5.9099,-5.9099,-5.9099,-5.9099,-5.9099,-5.9099,-5.9099,-5.8026,-5.8136,-1.7099,-1.8431,-2.0567,-2.523,-2.4537,-2.4448,-3.127,-2.9594,-2.8338,-3.4562,-3.3425,-3.148,-3.1958,-3.4801,-3.7434,-3.8542,-3.9858,-4.1205,-4.2491,-4.324,-4.3658,-4.3658,-4.4616,-4.5304,-4.5304,-4.5304,-4.5095,-4.4646,-4.4616,-4.4436,-4.3988,-4.3958,-4.4167,-4.4616,-4.4825,-4.5693,-4.7279,-4.7519,-4.8177,-4.9254,-4.9015,-4.8895,-4.8925,-4.9374,-4.9703,-4.9912,-5.0361,-5.0541,-5.0571,-5.102,-5.1229,-5.1229,-5.1229,-5.1229,-5.1229,-5.1229,-5.1229,-5.1229,-5.1229,-5.0917,-5.0632,-5.0744,-5.0485,-5.0311,-5.0953,-5.0544,-5.0011,-5.0466,-4.9967,-4.9223,-4.8776,-5.0409,-5.2266,-5.2266,-5.2266,-5.2266,-5.2266,-5.2266,-5.1943,-5.0933,-5.159,-5.1943,-5.0933,-5.0878,-5.1488,-5.2901,-5.3916,-5.4791,-5.5808,-5.5386,-5.511,-5.5357,-5.639,-5.7507,-5.8571,-5.9096,-5.9066,-5.8415,-5.8386,-5.8634,-5.9099,-5.9099,-5.9099,-5.9099,-5.9099,-5.9099,-5.9099,-5.9099,-5.8852,-5.8276,-5.7187,-5.7078,-1.6603,-1.7935,-1.971,-2.3004,-2.329,-2.4597,-3.1809,-2.9894,-2.8128,-3.3425,-3.7105,-3.899,-3.7644,-3.7973,-3.8631,-3.932,-3.9439,-4.0367,-4.297,-4.3898,-4.4317,-4.4317,-4.4915,-4.5304,-4.5304,-4.5304,-4.5304,-4.5304,-4.5304,-4.5304,-4.5304,-4.5304,-4.5304,-4.5304,-4.5963,-4.6621,-4.7309,-4.7967,-4.8626,-4.9284,-4.9912,-5.0242,-5.0242,-5.0242,-5.0601,-5.1229,-5.1229,-5.1229,-5.1229,-5.1229,-5.1229,-5.1229,-5.1229,-5.1229,-5.1229,-5.1229,-5.1229,-5.1229,-5.1229,-5.0287,-4.9277,-4.9781,-4.9042,-4.8011,-4.8645,-4.9251,-4.9365,-4.7973,-4.7968,-4.8094,-4.6636,-4.8505,-5.0713,-5.0713,-5.0713,-5.0713,-5.0713,-5.0713,-5.0713,-5.0713,-5.0713,-5.0713,-5.0713,-5.1126,-5.1539,-5.1539,-5.2559,-5.333,-5.333,-5.3358,-5.4278,-5.6451,-5.7312,-5.7686,-5.7686,-5.7686,-5.7398,-5.6764,-5.6736,-5.744,-5.8991,-5.9099,-5.9099,-5.9099,-5.9099,-5.9099,-5.9099,-5.9099,-5.8276,-5.6707,-5.6593,-5.6103,-1.9531,-2.0567,-2.1554,-2.4371,-2.5053,-2.577,-2.8618,-2.9326,-3.0582,-3.4981,-3.7015,-3.7614,-3.6297,-3.8871,-4.0786,-3.9619,-4.0965,-4.2432,-4.321,-4.3898,-4.4496,-4.4945,-4.5603,-4.6202,-4.6651,-4.6711,-4.6531,-4.6052,-4.6022,-4.5813,-4.5334,-4.5304,-4.5304,-4.5304,-4.5484,-4.6142,-4.7309,-4.7489,-4.8386,-4.9942,-5.0152,-5.0242,-5.0242,-5.072,-5.102,-5.1229,-5.1229,-5.1229,-5.1229,-5.1229,-5.1229,-5.1105,-5.0191,-5.0383,-5.1105,-5.0191,-5.0383,-5.1229,-5.1229,-5.0581,-4.9753,-4.9925,-4.9352,-4.8673,-4.9251,-4.8789,-4.8139,-4.8136,-4.7613,-4.6874,-4.6421,-4.6968,-4.786,-4.8965,-4.9194,-4.9194,-4.9194,-4.9194,-4.8851,-4.786,-4.8416,-4.8851,-4.7743,-4.8117,-4.8968,-5.0522,-5.1335,-5.1977,-5.2379,-5.278,-5.3386,-5.4569,-5.4813,-5.558,-5.7126,-5.6884,-5.6381,-5.5737,-5.5709,-5.6708,-5.8991,-5.8026,-5.744,-5.744,-5.6394,-5.582,-5.582,-5.582,-5.556,-5.5094,-5.3882,-5.4063,-1.9872,-2.1083,-2.254,-2.6162,-2.6372,-2.6134,-2.7963,-2.9899,-3.2494,-3.6768,-3.8362,-3.8841,-3.8332,-4.0696,-4.2372,-4.1175,-4.2312,-4.3329,-4.3329,-4.3688,-4.4167,-4.4825,-4.5514,-4.6172,-4.686,-4.716,-4.713,-4.6741,-4.6711,-4.6531,-4.6112,-4.6082,-4.6082,-4.6082,-4.6082,-4.6621,-4.7698,-4.7698,-4.8536,-5.0242,-5.0242,-5.0361,-5.0631,-5.105,-5.1229,-5.1229,-5.1229,-5.1229,-5.1229,-5.1229,-5.1229,-5.1105,-4.9679,-4.9679,-5.0287,-4.8837,-4.9009,-4.9832,-4.9832,-4.9307,-4.8708,-4.8958,-4.8355,-4.7575,-4.8133,-4.7775,-4.7069,-4.7548,-4.6968,-4.6301,-4.6301,-4.6301,-4.6541,-4.7416,-4.7652,-4.7652,-4.7652,-4.7652,-4.7298,-4.6421,-4.6968,-4.7375,-4.6698,-4.7079,-4.7977,-4.947,-5.0162,-5.0706,-5.1275,-5.1664,-5.2412,-5.3968,-5.4176,-5.4693,-5.5934,-5.5762,-5.5193,-5.4351,-5.4297,-5.5114,-5.7133,-5.628,-5.5791,-5.5791,-5.4859,-5.4386,-5.4386,-5.4386,-5.4029,-5.3429,-5.2695,-5.2747,-1.8887,-2.0483,-2.2911,-2.7654,-2.6955,-2.6031,-2.9515,-3.1519,-3.3885,-3.8495,-4.0382,-4.1444,-4.2282,-4.2862,-4.317,-4.325,-4.325,-4.317,-4.325,-4.3329,-4.3569,-4.4227,-4.4885,-4.5574,-4.6262,-4.692,-4.7309,-4.7309,-4.7309,-4.7309,-4.7309,-4.7309,-4.7309,-4.7309,-4.7309,-4.7578,-4.8177,-4.8207,-4.8835,-5.0062,-5.0122,-5.0388,-5.0922,-5.1105,-5.1229,-5.1229,-5.1105,-5.1011,-5.1011,-5.1011,-5.0917,-5.0698,-4.9455,-4.9063,-4.8865,-4.7485,-4.7432,-4.7901,-4.7956,-4.7433,-4.681,-4.7336,-4.6592,-4.5648,-4.615,-4.6301,-4.6301,-4.6301,-4.6301,-4.6301,-4.6301,-4.6301,-4.6301,-4.6301,-4.6301,-4.6301,-4.6301,-4.6301,-4.6301,-4.6301,-4.6301,-4.6476,-4.7029,-4.7556,-4.8134,-4.8761,-4.9314,-4.9841,-5.0343,-5.0519,-5.158,-5.4079,-5.4315,-5.4341,-5.4393,-5.4288,-5.3789,-5.2739,-5.2634,-5.2944,-5.3937,-5.4149,-5.4149,-5.4149,-5.4029,-5.391,-5.391,-5.391,-5.3214,-5.1819,-5.2345,-5.2104,-2.1739,-2.2736,-2.3229,-2.4915,-2.5145,-2.6585,-3.2877,-3.4279,-3.5204,-3.8967,-3.9786,-4.0516,-4.2731,-4.246,-4.2275,-4.317,-4.2548,-4.2275,-4.317,-4.3329,-4.3569,-4.4227,-4.4885,-4.5574,-4.6262,-4.692,-4.7309,-4.7309,-4.7309,-4.7309,-4.7309,-4.7309,-4.7309,-4.7309,-4.7309,-4.7369,-4.7519,-4.7519,-4.7908,-4.8716,-4.9224,-4.9304,-4.8952,-5.0461,-5.1229,-5.1105,-5.0095,-4.9679,-4.9679,-4.9679,-4.8964,-4.7909,-4.7605,-4.7503,-4.7457,-4.6517,-4.6866,-4.7984,-4.8452,-4.8055,-4.7363,-4.7468,-4.685,-4.615,-4.6276,-4.6301,-4.6301,-4.6301,-4.6301,-4.6301,-4.6301,-4.6301,-4.6301,-4.6301,-4.6301,-4.6301,-4.6301,-4.6301,-4.6301,-4.6301,-4.6301,-4.6476,-4.7029,-4.7556,-4.8259,-4.9264,-4.9891,-5.0293,-5.0393,-5.1197,-5.1959,-5.2565,-5.259,-5.2768,-5.3199,-5.2438,-5.1854,-5.1601,-5.1144,-5.0766,-5.0588,-5.1865,-5.2455,-5.2455,-5.1268,-5.0689,-5.0689,-5.0689,-5.0666,-5.0713,-5.0839,-5.1342,-1.992,-2.1693,-2.3371,-2.5824,-2.759,-2.9457,-3.251,-3.4391,-3.6034,-3.7868,-3.9584,-4.1173,-4.2254,-4.2029,-4.1753,-4.2386,-4.2029,-4.2029,-4.317,-4.3329,-4.3449,-4.3808,-4.4436,-4.5095,-4.5753,-4.6441,-4.695,-4.7279,-4.7309,-4.7309,-4.7309,-4.7309,-4.7309,-4.7309,-4.7309,-4.7309,-4.7309,-4.7309,-4.7638,-4.8297,-4.8626,-4.8617,-4.824,-4.9581,-5.0603,-5.1105,-4.9776,-4.9161,-4.9161,-4.8439,-4.7707,-4.6991,-4.637,-4.6245,-4.6329,-4.5291,-4.5649,-4.679,-4.7106,-4.7038,-4.6953,-4.6953,-4.662,-4.6301,-4.6301,-4.6301,-4.6301,-4.6301,-4.6301,-4.6301,-4.6301,-4.6301,-4.6301,-4.6301,-4.6301,-4.6301,-4.6301,-4.6301,-4.6301,-4.6301,-4.6301,-4.6552,-4.738,-4.8184,-4.9012,-4.9866,-5.0243,-5.0619,-5.1147,-5.1523,-5.18,-5.2076,-5.1875,-5.1825,-5.2126,-5.1599,-5.1172,-5.0896,-5.0569,-5.0167,-4.9615,-5.0436,-5.0916,-5.0916,-5.0078,-4.959,-4.959,-4.9866,-5.0142,-5.0444,-5.0971,-5.1548,-1.6997,-1.9936,-2.3627,-2.7871,-3.0317,-3.1578,-3.112,-3.3597,-3.6088,-3.6532,-3.9615,-4.209,-4.1417,-4.1337,-4.1337,-4.1587,-4.142,-4.1782,-4.309,-4.3329,-4.3329,-4.3329,-4.3737,-4.4311,-4.5244,-4.5734,-4.642,-4.7249,-4.7309,-4.7309,-4.7309,-4.7309,-4.7309,-4.7309,-4.7309,-4.7222,-4.6931,-4.6931,-4.711,-4.7436,-4.7344,-4.7497,-4.7921,-4.8141,-4.9173,-5.0383,-4.9063,-4.8439,-4.8339,-4.7197,-4.666,-4.6428,-4.5502,-4.5358,-4.5578,-4.4497,-4.4694,-4.5497,-4.5598,-4.5924,-4.6301,-4.6301,-4.6301,-4.6301,-4.6301,-4.6301,-4.6301,-4.6301,-4.6301,-4.6301,-4.6301,-4.6301,-4.6301,-4.6301,-4.6301,-4.6301,-4.6301,-4.6301,-4.6301,-4.6301,-4.6451,-4.6903,-4.7883,-4.8987,-4.9891,-5.0343,-5.0594,-5.1046,-5.1975,-5.1699,-5.1624,-5.2176,-5.1749,-5.1473,-5.1548,-5.1398,-5.1071,-5.0594,-5.0393,-5.0067,-4.9615,-4.959,-4.959,-4.959,-4.959,-4.959,-4.959,-5.0142,-5.0469,-5.0594,-5.1624,-5.2151,-1.7156,-2.0514,-2.4607,-2.8072,-2.8069,-2.8315,-3.1971,-3.3234,-3.4365,-3.669,-3.9562,-4.1417,-4.0318,-4.0145,-4.0404,-4.142,-4.0746,-4.0831,-4.2981,-4.3329,-4.3329,-4.3329,-4.3025,-4.3504,-4.5132,-4.4993,-4.5464,-4.7163,-4.7309,-4.7309,-4.7309,-4.7309,-4.7309,-4.7309,-4.7309,-4.6726,-4.5689,-4.5689,-4.5144,-4.4087,-4.3487,-4.433,-4.6512,-4.5375,-4.588,-4.7605,-4.6188,-4.5555,-4.5555,-4.5342,-4.4822,-4.4316,-4.5401,-4.5322,-4.48,-4.5187,-4.5372,-4.5547,-4.6024,-4.625,-4.6301,-4.6301,-4.6301,-4.6301,-4.6301,-4.6301,-4.6301,-4.6301,-4.6301,-4.6301,-4.6301,-4.6301,-4.6301,-4.6301,-4.6301,-4.6301,-4.6301,-4.6301,-4.6301,-4.6301,-4.7054,-4.7908,-4.856,-4.9565,-5.0343,-5.0419,-5.1247,-5.1925,-5.2076,-5.2051,-5.2201,-5.2754,-5.2327,-5.2176,-5.2678,-5.1825,-5.1247,-5.1172,-5.0243,-4.9665,-4.959,-4.959,-4.959,-4.959,-4.959,-4.959,-4.959,-5.0142,-5.067,-5.1172,-5.1825,-5.2352,-1.8125,-2.0413,-2.2975,-2.8499,-2.7921,-2.7143,-3.1587,-3.2123,-3.2426,-3.4863,-3.7411,-3.9098,-3.8952,-3.8917,-3.9094,-3.9596,-3.9244,-3.9683,-4.2029,-4.2386,-4.2548,-4.325,-4.2538,-4.2531,-4.3675,-4.3921,-4.456,-4.5669,-4.6723,-4.7019,-4.6255,-4.6255,-4.6255,-4.6255,-4.6255,-4.6344,-4.6462,-4.5779,-4.4748,-4.3504,-4.277,-4.3189,-4.4528,-4.3857,-4.4811,-4.6991,-4.5661,-4.5233,-4.5441,-4.4701,-4.428,-4.4267,-4.4903,-4.5145,-4.5146,-4.5397,-4.5673,-4.5974,-4.6225,-4.6301,-4.6301,-4.6301,-4.6301,-4.6301,-4.6301,-4.6301,-4.6301,-4.6301,-4.6301,-4.6301,-4.6301,-4.6301,-4.6301,-4.6301,-4.6301,-4.6301,-4.6301,-4.6301,-4.6401,-4.6702,-4.738,-4.8184,-4.9088,-4.9891,-5.0645,-5.1272,-5.1774,-5.2226,-5.2528,-5.2302,-5.2201,-5.2452,-5.1674,-5.1247,-5.1498,-5.0795,-5.0343,-5.0343,-4.9866,-4.959,-4.959,-4.959,-4.959,-4.959,-4.959,-4.9741,-5.0067,-5.0619,-5.1197,-5.1749,-5.2302,-5.2703,-1.8204,-1.961,-2.0941,-2.7344,-2.6841,-2.5762,-2.9654,-3.0131,-3.0407,-3.2616,-3.4827,-3.6609,-3.7339,-3.7847,-3.8107,-3.8107,-3.8107,-3.8801,-4.0916,-4.1169,-4.1504,-4.2304,-4.142,-4.1057,-4.2024,-4.2505,-4.3041,-4.4024,-4.552,-4.5869,-4.4932,-4.4932,-4.4932,-4.4932,-4.4932,-4.5207,-4.5869,-4.4705,-4.3712,-4.2905,-4.2361,-4.2398,-4.297,-4.295,-4.4203,-4.6193,-4.5309,-4.5103,-4.5519,-4.4446,-4.4342,-4.4844,-4.4844,-4.5196,-4.5698,-4.5698,-4.5949,-4.6301,-4.6301,-4.6301,-4.6301,-4.6301,-4.6301,-4.6301,-4.6301,-4.6301,-4.6301,-4.6301,-4.6301,-4.6301,-4.6301,-4.6301,-4.6301,-4.6301,-4.6301,-4.6301,-4.6301,-4.6301,-4.6502,-4.7205,-4.7757,-4.8485,-4.9615,-5.0393,-5.1122,-5.1975,-5.2226,-5.2452,-5.2879,-5.2452,-5.2101,-5.2101,-5.1222,-5.0645,-5.0645,-5.0117,-4.9791,-4.9791,-4.9665,-4.959,-4.959,-4.959,-4.959,-4.959,-4.9741,-5.0017,-5.0419,-5.0996,-5.1574,-5.2126,-5.2678,-5.2929,-1.6471,-1.7903,-1.9258,-2.3326,-2.3401,-2.3075,-2.541,-2.6716,-2.8097,-3.0331,-3.2575,-3.4388,-3.547,-3.6974,-3.8107,-3.8107,-3.8107,-3.8559,-3.9798,-4.0,-3.9972,-4.0059,-3.9006,-3.8953,-4.0686,-4.041,-4.0817,-4.2629,-4.336,-4.3693,-4.3598,-4.3598,-4.3598,-4.3598,-4.3598,-4.3026,-4.1887,-4.1183,-4.1043,-4.1443,-4.1386,-4.1688,-4.2242,-4.2821,-4.3375,-4.3992,-4.4407,-4.4659,-4.4684,-4.4568,-4.492,-4.5447,-4.5447,-4.5773,-4.6276,-4.6276,-4.6276,-4.6301,-4.6301,-4.6301,-4.6301,-4.6301,-4.6301,-4.6301,-4.6301,-4.6301,-4.6301,-4.6301,-4.6301,-4.6301,-4.6301,-4.6301,-4.6301,-4.6301,-4.6301,-4.6301,-4.6301,-4.6301,-4.6627,-4.7657,-4.8335,-4.9063,-5.0193,-5.1297,-5.2026,-5.2101,-5.2553,-5.2904,-5.2929,-5.2452,-5.2101,-5.2101,-5.1574,-5.1247,-5.1247,-5.0695,-5.0368,-5.0368,-4.9891,-4.959,-4.959,-4.959,-4.959,-4.959,-5.0117,-5.0393,-5.0419,-5.0996,-5.1574,-5.2126,-5.2678,-5.2929,-1.4953,-1.5709,-1.669,-2.1242,-2.1016,-2.0639,-2.428,-2.5661,-2.664,-2.8172,-3.1085,-3.337,-3.3395,-3.506,-3.6555,-3.6913,-3.6964,-3.7428,-3.8559,-3.8738,-3.9006,-3.9826,-3.8827,-3.8368,-3.9006,-3.9295,-3.9787,-4.0844,-4.1215,-4.1663,-4.2269,-4.1274,-4.1167,-4.2226,-4.2252,-4.227,-4.2145,-4.2241,-4.1926,-4.1329,-4.1329,-4.163,-4.2183,-4.3087,-4.3815,-4.4367,-4.5296,-4.5497,-4.5171,-4.5171,-4.5522,-4.6024,-4.6024,-4.6125,-4.6301,-4.6301,-4.6301,-4.6301,-4.6301,-4.6301,-4.6301,-4.6301,-4.6301,-4.6301,-4.6301,-4.6301,-4.6301,-4.6301,-4.6301,-4.6301,-4.6301,-4.6301,-4.6301,-4.6301,-4.6301,-4.6301,-4.6301,-4.6301,-4.6728,-4.8184,-4.8636,-4.9364,-5.1172,-5.1825,-5.2226,-5.2578,-5.2804,-5.2804,-5.2452,-5.2226,-5.1975,-5.1599,-5.1398,-5.1122,-5.077,-5.0544,-5.0268,-4.9916,-4.9715,-4.959,-4.959,-4.959,-4.9766,-5.0117,-5.0318,-5.0594,-5.0971,-5.1523,-5.2101,-5.2628,-5.2829,-5.2929,-1.2931,-1.3518,-1.4475,-1.8304,-1.8455,-1.8555,-2.2071,-2.428,-2.5812,-2.6565,-3.0105,-3.2968,-3.2566,-3.3872,-3.5303,-3.6207,-3.6358,-3.6615,-3.7402,-3.7494,-3.7861,-3.8675,-3.8043,-3.7494,-3.7494,-3.8106,-3.8678,-3.9251,-3.9575,-4.0121,-4.0941,-3.9927,-3.9927,-4.1178,-4.1204,-4.1594,-4.2346,-4.2735,-4.2516,-4.1882,-4.1882,-4.2082,-4.2459,-4.3564,-4.4267,-4.4694,-4.5824,-4.61,-4.5773,-4.5773,-4.5974,-4.6301,-4.6301,-4.6301,-4.6301,-4.6301,-4.6301,-4.6301,-4.6301,-4.6301,-4.6301,-4.6301,-4.6301,-4.6301,-4.6301,-4.6301,-4.6301,-4.6301,-4.6301,-4.6301,-4.6301,-4.6301,-4.6301,-4.6301,-4.6301,-4.6301,-4.6301,-4.6451,-4.7029,-4.8485,-4.9063,-4.9916,-5.1774,-5.2251,-5.2503,-5.2879,-5.2929,-5.2804,-5.2427,-5.2377,-5.2101,-5.1373,-5.1272,-5.0971,-5.0218,-5.0142,-4.9992,-4.9615,-4.959,-4.959,-4.959,-4.9766,-5.0042,-5.0419,-5.0795,-5.1172,-5.1548,-5.1925,-5.2377,-5.2929,-5.2929,-5.2929,0.0,0.0,0.0,-1.4425,-1.5643,-1.6898,-1.8532,-2.2347,-2.5485,-2.5511,-2.9478,-3.2968,-3.3018,-3.352,-3.4449,-3.6081,-3.6332,-3.6332,-3.6332,-3.6358,-3.6358,-3.6358,-3.6358,-3.6358,-3.6358,-3.6835,-3.7387,-3.7965,-3.8492,-3.9044,-3.9697,-3.9747,-3.9998,-4.0526,-4.0551,-4.1078,-4.2158,-4.2183,-4.2459,-4.2986,-4.2986,-4.2986,-4.3011,-4.4116,-4.4618,-4.4694,-4.5824,-4.6301,-4.6301,-4.6301,-4.6301,-4.6301,-4.6301,-4.6301,-4.6301,-4.6301,-4.6301,-4.6301,-4.6301,-4.6301,-4.6301,-4.6301,-4.6301,-4.6301,-4.6301,-4.6301,-4.6301,-4.6301,-4.6301,-4.6301,-4.6301,-4.6301,-4.6301,-4.6301,-4.6301,-4.6326,-4.6326,-4.6778,-4.7481,-4.8586,-4.9665,-5.077,-5.19,-5.2553,-5.2904,-5.2904,-5.2879,-5.2879,-5.2879,-5.2854,-5.2427,-5.1348,-5.1247,-5.0795,-4.969,-4.9615,-4.9615,-4.959,-4.959,-4.959,-4.959,-5.0117,-5.0419,-5.0444,-5.1548,-5.2126,-5.2126,-5.2126,-5.2402,-5.2929,-5.2929,-5.2929,-1.0094,0.0,0.0,0.0,0.0,0.0,-1.6923,-2.0012,-2.2849,-2.3653,-2.7168,-3.0432,-3.1637,-3.3294,-3.4776,-3.5629,-3.578,-3.578,-3.578,-3.6107,-3.6358,-3.6358,-3.6358,-3.6358,-3.6358,-3.6508,-3.6985,-3.7939,-3.7061,-3.7588,-4.0149,-4.0676,-4.0953,-4.1103,-4.1505,-4.1856,-4.2158,-4.2559,-4.2836,-4.2986,-4.2986,-4.2986,-4.3011,-4.4116,-4.4618,-4.4694,-4.5824,-4.6301,-4.6301,-4.6301,-4.6301,-4.6301,-4.6301,-4.6301,-4.6301,-4.6301,-4.6301,-4.6301,-4.6301,-4.6301,-4.6301,-4.6301,-4.6301,-4.6301,-4.6301,-4.6301,-4.6301,-4.6301,-4.6301,-4.6301,-4.6301,-4.6301,-4.6301,-4.6301,-4.6301,-4.6426,-4.6828,-4.733,-4.8033,-4.9163,-4.9941,-5.077,-5.19,-5.2226,-5.2327,-5.2327,-5.2,-5.1724,-5.1724,-5.1373,-5.0845,-5.0142,-5.0419,-5.0368,-4.9665,-4.9967,-5.0017,-4.9615,-4.959,-4.959,-4.959,-5.0117,-5.0619,-5.1021,-5.1749,-5.2302,-5.2703,-5.2703,-5.2779,-5.2929,-5.2929,-5.2929,-1.0218,-1.0443,-1.0969,-1.2128,0.0,0.0,-1.617,-1.9635,-2.2774,-2.3653,-2.7469,-3.0608,-3.0407,-3.1637,-3.2767,-3.3093,-3.3345,-3.3972,-3.5353,-3.6006,-3.6282,-3.6031,-3.6232,-3.6358,-3.6358,-3.6358,-3.681,-3.7914,-3.7111,-3.7713,-4.0375,-4.0827,-4.1204,-4.1656,-4.1982,-4.2258,-4.2484,-4.2811,-4.2986,-4.2986,-4.2986,-4.2986,-4.3011,-4.4116,-4.4618,-4.4694,-4.5824,-4.6301,-4.6301,-4.6301,-4.6301,-4.6301,-4.6301,-4.6301,-4.6301,-4.6301,-4.6301,-4.6301,-4.6301,-4.6301,-4.6301,-4.6301,-4.6301,-4.6301,-4.6301,-4.6301,-4.6301,-4.6301,-4.6301,-4.6301,-4.6301,-4.6301,-4.6301,-4.6301,-4.6301,-4.6451,-4.7004,-4.7531,-4.8234,-4.9364,-5.0243,-5.0996,-5.1649,-5.195,-5.2026,-5.18,-5.1498,-5.1272,-5.1272,-5.0996,-5.0569,-4.9992,-5.0218,-5.0193,-4.964,-4.9891,-4.9941,-4.9615,-4.959,-4.969,-4.9916,-5.0469,-5.1046,-5.1599,-5.2176,-5.2603,-5.2929,-5.2929,-5.2929,-5.2929,-5.2929,-5.2929,-1.0794,-1.0794,-1.1044,-1.2153,-1.2797,0.0,-1.5793,-1.9786,-2.3301,-2.4104,-2.8222,-3.106,-2.895,-2.9026,-2.9453,-2.9503,-2.998,-3.1461,-3.4625,-3.578,-3.6031,-3.5353,-3.5906,-3.6383,-3.6433,-3.6458,-3.691,-3.8015,-3.8216,-3.8944,-4.0425,-4.0626,-4.1153,-4.2133,-4.2208,-4.2484,-4.2961,-4.2986,-4.2986,-4.2986,-4.2986,-4.2986,-4.3011,-4.4116,-4.4618,-4.4694,-4.5824,-4.6301,-4.6301,-4.6301,-4.6301,-4.6301,-4.6301,-4.6301,-4.6301,-4.6301,-4.6301,-4.6301,-4.6301,-4.6301,-4.6301,-4.6301,-4.6301,-4.6301,-4.6301,-4.6301,-4.6301,-4.6301,-4.6301,-4.6301,-4.6301,-4.6301,-4.6301,-4.6301,-4.6351,-4.6552,-4.7104,-4.7631,-4.8335,-4.9389,-5.0444,-5.1197,-5.1197,-5.1599,-5.1749,-5.1247,-5.1147,-5.1122,-5.1172,-5.1122,-5.0896,-5.0368,-5.0318,-5.0117,-4.964,-4.959,-4.959,-4.959,-4.9665,-4.9916,-5.0393,-5.1046,-5.1599,-5.2101,-5.2653,-5.2929,-5.2929,-5.2929,-5.2929,-5.2929,-5.2929,-5.2929,-1.1405,-1.1425,-1.1575,-1.2253,-1.2797,0.0,-1.4374,-1.6011,-1.7978,-2.0313,-2.202,-2.3728,-2.5862,-2.6716,-2.7268,-2.7695,-2.8247,-2.9428,-3.1863,-3.4223,-3.5177,-3.3721,-3.5228,-3.6533,-3.6985,-3.701,-3.7487,-3.8617,-3.9521,-4.0174,-4.0501,-4.1354,-4.1932,-4.2158,-4.2585,-4.2861,-4.2986,-4.2986,-4.2986,-4.2986,-4.2986,-4.2986,-4.3011,-4.4116,-4.4618,-4.4694,-4.5824,-4.6301,-4.6301,-4.6301,-4.6301,-4.6301,-4.6301,-4.6301,-4.6301,-4.6301,-4.6301,-4.6301,-4.6301,-4.6301,-4.6301,-4.6301,-4.6301,-4.6301,-4.6301,-4.6301,-4.6301,-4.6301,-4.6301,-4.6301,-4.6301,-4.6301,-4.6301,-4.6301,-4.6652,-4.7104,-4.7631,-4.8209,-4.8812,-4.9464,-5.0142,-5.0594,-5.0594,-5.067,-5.072,-5.0594,-5.0218,-5.0092,-5.0519,-5.0193,-4.9891,-4.9766,-4.9766,-4.9715,-4.9615,-4.959,-4.959,-4.959,-5.0017,-5.0293,-5.0419,-5.1398,-5.2,-5.2101,-5.2653,-5.2929,-5.2929,-5.2929,-5.2929,-5.2929,-5.2929,-5.2929,-1.2465,-1.2203,-1.2052,-1.2354,-1.2572,0.0,0.0,-1.5583,-1.7426,-1.9083,-2.0966,-2.2498,-2.305,-2.3602,-2.4079,-2.4356,-2.4632,-2.5385,-2.7042,-3.0859,-3.347,-3.3495,-3.47,-3.5755,-3.6307,-3.6358,-3.6935,-3.8341,-3.9471,-4.0224,-4.0501,-4.1304,-4.1882,-4.2158,-4.2685,-4.2986,-4.2986,-4.2986,-4.2986,-4.2986,-4.2986,-4.2986,-4.3011,-4.4116,-4.4618,-4.4694,-4.5824,-4.6301,-4.6301,-4.6301,-4.6301,-4.6301,-4.6301,-4.6301,-4.6301,-4.6301,-4.6301,-4.6301,-4.6301,-4.6301,-4.6301,-4.6301,-4.6301,-4.6301,-4.6301,-4.6301,-4.6301,-4.6301,-4.6301,-4.6301,-4.6301,-4.6301,-4.6376,-4.6652,-4.6928,-4.7355,-4.8159,-4.856,-4.8937,-4.949,-4.9816,-5.0017,-5.0017,-5.0243,-5.0318,-5.0042,-4.9766,-4.969,-4.9967,-4.9766,-4.959,-4.959,-4.959,-4.959,-4.959,-4.959,-4.9715,-4.9992,-5.0268,-5.067,-5.1222,-5.18,-5.2226,-5.2503,-5.2779,-5.2929,-5.2929,-5.2929,-5.2929,-5.2929,-5.2929,-5.2929,-1.3766,-1.3383,-1.3006,-1.2906,-1.2806,-1.2956,0.0,0.0,0.0,-1.7953,-2.0213,-2.1619,-2.0137,-2.0137,-2.0413,-2.0514,-2.0614,-2.1117,-2.2322,-2.6515,-3.0156,-3.1938,-3.2918,-3.3671,-3.4223,-3.5052,-3.6282,-3.804,-3.922,-3.9998,-4.035,-4.0978,-4.153,-4.1982,-4.2635,-4.2986,-4.2986,-4.2986,-4.2986,-4.2986,-4.2986,-4.2986,-4.3011,-4.4116,-4.4618,-4.4694,-4.5824,-4.6301,-4.6301,-4.6301,-4.6301,-4.6301,-4.6301,-4.6301,-4.6301,-4.6301,-4.6301,-4.6301,-4.6301,-4.6301,-4.6301,-4.6301,-4.6301,-4.6301,-4.6301,-4.6301,-4.6301,-4.6301,-4.6301,-4.6301,-4.6301,-4.6301,-4.6451,-4.7004,-4.7205,-4.7556,-4.856,-4.8862,-4.9063,-4.9515,-4.959,-4.959,-4.959,-4.9967,-5.0117,-4.9665,-4.959,-4.959,-4.959,-4.959,-4.959,-4.959,-4.959,-4.959,-4.959,-4.959,-4.9841,-5.0393,-5.0519,-5.1046,-5.2076,-5.2201,-5.2477,-5.2929,-5.2929,-5.2929,-5.2929,-5.2929,-5.2929,-5.2929,-5.2929,-5.2929,-1.5364,-1.5367,-1.5191,-1.4714,-1.4249,-1.3921,-1.4047,0.0,-1.3961,-1.4551,0.0,-1.5583,-1.6773,0.0,0.0,-1.6999,-1.7526,-1.8405,-1.9962,-2.1594,-2.3427,-2.5586,-2.762,-2.9076,-2.9628,-3.3244,-3.6433,-3.8617,-3.9798,-4.0249,-3.9798,-4.0777,-4.1354,-4.143,-4.2434,-4.2986,-4.2986,-4.2986,-4.2986,-4.2986,-4.2986,-4.2986,-4.3011,-4.4116,-4.4618,-4.4694,-4.5824,-4.6301,-4.6301,-4.6301,-4.6301,-4.6301,-4.6301,-4.6301,-4.6301,-4.6301,-4.6301,-4.6301,-4.6301,-4.6301,-4.6301,-4.6301,-4.6301,-4.6301,-4.6301,-4.6301,-4.6301,-4.6301,-4.6301,-4.6301,-4.6301,-4.6301,-4.6451,-4.7004,-4.7481,-4.7983,-4.8636,-4.9163,-4.9515,-4.959,-4.959,-4.959,-4.959,-4.964,-4.9665,-4.9615,-4.959,-4.959,-4.959,-4.959,-4.959,-4.959,-4.959,-4.959,-4.959,-4.959,-4.9841,-5.0393,-5.0896,-5.1448,-5.2076,-5.2578,-5.2854,-5.2929,-5.2929,-5.2929,-5.2929,-5.2929,-5.2929,-5.2929,-5.2929,-5.2929,-1.7798,-1.78,-1.7434,-1.7293,-1.6581,-1.5903,-1.5994,-1.4853,-1.3684,-1.3584,0.0,0.0,0.0,0.0,0.0,0.0,-1.5768,-1.6271,-1.7275,-1.7827,-1.9911,-2.4707,-2.6088,-2.7519,-2.9704,-3.1311,-3.3119,-3.5353,-3.6835,-3.7538,-3.7287,-3.9873,-4.1329,-4.1329,-4.2409,-4.2986,-4.2986,-4.2986,-4.2986,-4.2986,-4.2986,-4.3137,-4.3489,-4.4267,-4.4794,-4.5171,-4.5974,-4.6301,-4.6301,-4.6301,-4.6301,-4.6301,-4.6301,-4.6301,-4.6301,-4.6301,-4.6301,-4.6301,-4.6301,-4.6301,-4.6301,-4.6301,-4.6301,-4.6301,-4.6301,-4.5525,-4.4767,-4.4767,-4.4767,-4.4767,-4.4767,-4.5772,-4.6659,-4.6162,-4.723,-4.8283,-4.7751,-4.8719,-4.959,-4.959,-4.959,-4.959,-4.959,-4.959,-4.959,-4.959,-4.959,-4.959,-4.959,-4.959,-4.959,-4.959,-4.959,-4.959,-4.959,-4.9891,-5.0318,-5.0896,-5.1749,-5.2352,-5.2578,-5.2804,-5.2929,-5.2929,-5.2929,-5.2929,-5.2929,-5.2929,-5.2929,-5.2929,-5.2929,-5.2929,-2.0111,-2.0241,-1.9936,-1.9182,-1.8418,-1.7811,-1.7268,-1.5809,-1.4374,-1.381,-1.3921,0.0,0.0,0.0,-1.4412,-1.4412,0.0,-1.4513,-1.4764,-1.504,-1.725,-2.2698,-2.4004,-2.5561,-2.8298,-2.9026,-3.0131,-3.2039,-3.4123,-3.5286,-3.5437,-3.9094,-4.1178,-4.1329,-4.2409,-4.2986,-4.2986,-4.2986,-4.2986,-4.2986,-4.2986,-4.3263,-4.3815,-4.4367,-4.4945,-4.5522,-4.6075,-4.6301,-4.6301,-4.6301,-4.6059,-4.5671,-4.6059,-4.6059,-4.5525,-4.5525,-4.5525,-4.5525,-4.5013,-4.5159,-4.5525,-4.5525,-4.5914,-4.618,-4.5793,-4.4767,-4.3606,-4.3083,-4.2958,-4.3004,-4.3121,-4.4356,-4.5465,-4.483,-4.606,-4.7142,-4.6836,-4.7509,-4.8216,-4.8763,-4.8477,-4.8216,-4.8763,-4.9307,-4.959,-4.959,-4.959,-4.959,-4.959,-4.959,-4.959,-4.959,-4.959,-4.959,-4.959,-5.0092,-5.072,-5.1448,-5.2402,-5.2929,-5.2929,-5.2929,-5.2929,-5.2929,-5.2929,-5.2929,-5.2929,-5.2929,-5.2929,-5.2929,-5.2929,-5.2929,-2.1962,-2.2629,-2.2703,-1.975,-1.9341,-1.9158,-1.7049,-1.607,-1.5492,-1.4979,-1.445,-1.4249,-1.4777,-1.3986,-1.3248,-1.3248,-1.3248,0.0,0.0,-1.3468,-1.5029,-1.7375,-1.9987,-2.2071,-2.319,-2.6289,-2.8649,-2.9804,-3.2918,-3.4977,-3.5437,-3.8718,-4.0777,-4.1329,-4.2409,-4.2986,-4.2986,-4.2986,-4.2986,-4.2986,-4.2986,-4.3263,-4.3815,-4.4367,-4.4945,-4.5522,-4.6075,-4.6301,-4.6301,-4.6301,-4.5281,-4.3979,-4.5671,-4.5281,-4.3731,-4.3731,-4.3731,-4.3606,-4.1947,-4.2454,-4.3731,-4.3731,-4.489,-4.5939,-4.4251,-4.3731,-4.3333,-4.1693,-4.1309,-4.1421,-4.1741,-4.1875,-4.2276,-4.313,-4.3354,-4.4052,-4.628,-4.5457,-4.4778,-4.6532,-4.5457,-4.4778,-4.6532,-4.8347,-4.959,-4.959,-4.959,-4.959,-4.959,-4.959,-4.959,-4.959,-4.959,-4.959,-4.959,-5.0092,-5.0896,-5.2,-5.2603,-5.2929,-5.2929,-5.2929,-5.2929,-5.2929,-5.2929,-5.2929,-5.2929,-5.2929,-5.2929,-5.2929,-5.2929,-5.2929,-2.4357,-2.4514,-2.4421,-2.4223,-2.2753,-2.1187,-2.0902,-1.8781,-1.6547,-1.5618,-1.5306,-1.513,-1.4953,-1.4299,-1.3821,-1.3821,-1.3157,-1.263,0.0,-1.273,-1.3383,-1.4513,-1.7074,-1.9635,-2.182,-2.2372,-2.3552,-2.5787,-2.7996,-2.9503,-3.0055,-3.4977,-3.8191,-3.9094,-4.1279,-4.261,-4.2986,-4.2986,-4.2986,-4.2986,-4.2986,-4.3463,-4.4342,-4.4543,-4.5146,-4.605,-4.6225,-4.6301,-4.6301,-4.6301,-4.5281,-4.3731,-4.4374,-4.3482,-4.2201,-4.3333,-4.3731,-4.3458,-4.182,-4.1565,-4.2074,-4.2074,-4.2454,-4.2832,-4.2201,-4.1309,-4.0278,-3.9627,-3.9733,-3.9858,-4.003,-4.1461,-4.2549,-4.1654,-4.2667,-4.3755,-4.3222,-4.368,-4.4253,-4.4914,-4.4505,-4.4253,-4.4914,-4.6556,-4.8191,-4.9461,-4.959,-4.959,-4.959,-4.959,-4.959,-4.959,-4.959,-4.9741,-5.0117,-5.0996,-5.185,-5.2603,-5.2829,-5.2929,-5.2929,-5.2929,-5.2929,-5.2929,-5.2929,-5.2929,-5.2929,-5.2929,-5.2929,-5.2929,-5.2929,-5.2929,-2.6076,-2.6235,-2.6292,-2.6201,-2.4768,-2.329,-2.3018,-2.1235,-1.9322,-1.813,-1.7816,-1.746,-1.6338,-1.5516,-1.4736,-1.4121,-1.3268,-1.263,0.0,-1.2404,-1.2572,-1.3148,-1.5693,-1.8003,-1.956,-1.9962,-2.0765,-2.2397,-2.4607,-2.6214,-2.6942,-3.2767,-3.6483,-3.7412,-4.0501,-4.2333,-4.2685,-4.2886,-4.2986,-4.2986,-4.2986,-4.3564,-4.4618,-4.4618,-4.5246,-4.6301,-4.5646,-4.5403,-4.5403,-4.5403,-4.3979,-4.2051,-4.3208,-4.2328,-4.0408,-4.1542,-4.1542,-4.0773,-3.9758,-3.9758,-4.0278,-4.0278,-4.0666,-4.1052,-4.0408,-3.9497,-3.8507,-3.8027,-3.8139,-3.8446,-3.8616,-4.0076,-4.1113,-4.0041,-4.0996,-4.2031,-4.1467,-4.1749,-4.2312,-4.2988,-4.2591,-4.2312,-4.2988,-4.4071,-4.5704,-4.8191,-4.9177,-4.959,-4.959,-4.959,-4.959,-4.959,-4.959,-4.9891,-5.067,-5.1574,-5.2352,-5.2904,-5.2929,-5.2929,-5.2929,-5.2929,-5.2829,-5.2628,-5.2829,-5.2829,-5.2628,-5.2829,-5.2929,-5.2929,-5.2929,-5.2929]}]]